[[{"header":{"parameterUnit":"m.s-1","parameterCategory":1,"la1":30.6,"la2":29.2853,"lo1":-89.7004,"lo2":-87.6739,"dy":0.0162,"dx":0.0183,"nx":112,"ny":82,"refTime":"2023-06-20T06:00:00:Z","depth":0,"parameterNumber":2,"parameterNumberName":"U-component_of_WINDS"},"data":[0.0,0.0,0.0,0.0,0.0,0.0,0.0,0.0,0.0,0.0,0.0,0.0,0.0,0.0,0.0,0.0,0.0,0.0,0.0,0.0,0.0,0.0,0.0,0.0,0.0,0.0,0.0,0.0,0.0,0.0,0.0,0.0,0.0,0.0,0.0,0.0,0.0,0.0,0.0,0.0,0.0,0.0,0.0,0.0,0.0,0.0,0.0,0.0,0.0,0.0,0.0,0.0,0.0,0.0,0.0,0.0,0.0,0.0,0.0,0.0,0.0,0.0,0.0,0.0,0.0,0.0,0.0,0.0,0.0,0.0,0.0,0.0,0.0,0.0,0.0,0.0,0.0,0.0,0.0,0.0,0.0,0.0,0.0,0.0,0.0,0.0,0.0,0.0,0.0,0.0,0.0,-2.5871,-2.8046,-2.91,-2.8603,-2.7837,-2.6971,-2.5988,0.0,0.0,0.0,0.0,0.0,0.0,0.0,0.0,0.0,0.0,0.0,0.0,0.0,0.0,0.0,0.0,0.0,0.0,0.0,0.0,0.0,0.0,0.0,0.0,0.0,0.0,0.0,0.0,0.0,0.0,0.0,0.0,0.0,0.0,0.0,0.0,0.0,0.0,0.0,0.0,0.0,0.0,0.0,0.0,0.0,0.0,0.0,0.0,0.0,0.0,0.0,0.0,0.0,0.0,0.0,0.0,0.0,0.0,0.0,0.0,0.0,0.0,0.0,0.0,0.0,0.0,0.0,0.0,0.0,0.0,0.0,0.0,0.0,0.0,0.0,0.0,0.0,0.0,0.0,0.0,0.0,0.0,0.0,0.0,0.0,0.0,0.0,0.0,0.0,0.0,0.0,0.0,0.0,0.0,0.0,0.0,0.0,0.0,0.0,0.0,0.0,0.0,0.0,0.0,-2.4805,-2.768,-2.8752,-2.9284,-2.9179,-2.774,-2.6765,-2.6553,0.0,0.0,0.0,0.0,0.0,0.0,0.0,0.0,0.0,0.0,0.0,0.0,0.0,0.0,0.0,0.0,0.0,0.0,0.0,0.0,0.0,0.0,0.0,0.0,0.0,0.0,0.0,0.0,0.0,0.0,0.0,0.0,0.0,0.0,0.0,0.0,0.0,0.0,0.0,0.0,0.0,0.0,0.0,0.0,0.0,0.0,0.0,0.0,0.0,0.0,0.0,0.0,0.0,0.0,0.0,0.0,0.0,0.0,0.0,0.0,0.0,0.0,0.0,0.0,0.0,0.0,0.0,0.0,0.0,0.0,0.0,0.0,0.0,0.0,0.0,0.0,0.0,0.0,0.0,0.0,0.0,0.0,0.0,0.0,0.0,0.0,0.0,0.0,0.0,0.0,0.0,0.0,0.0,0.0,0.0,0.0,0.0,0.0,0.0,0.0,0.0,0.0,0.0,-2.467,-2.6582,-2.8203,-2.9483,-2.9954,-2.9362,-2.7968,-2.6895,-2.6224,-2.6207,0.0,0.0,0.0,0.0,0.0,0.0,0.0,0.0,0.0,0.0,0.0,0.0,0.0,0.0,0.0,0.0,0.0,0.0,0.0,0.0,0.0,0.0,0.0,0.0,0.0,0.0,0.0,0.0,0.0,0.0,0.0,0.0,0.0,0.0,0.0,0.0,0.0,0.0,0.0,0.0,0.0,0.0,0.0,0.0,0.0,0.0,0.0,0.0,0.0,0.0,0.0,0.0,0.0,0.0,0.0,0.0,0.0,0.0,0.0,0.0,0.0,0.0,0.0,0.0,0.0,0.0,0.0,0.0,0.0,0.0,0.0,0.0,0.0,0.0,0.0,0.0,0.0,0.0,0.0,0.0,0.0,0.0,0.0,0.0,0.0,0.0,0.0,0.0,0.0,0.0,0.0,0.0,0.0,0.0,0.0,0.0,0.0,0.0,0.0,0.0,0.0,0.0,-2.6263,-2.7811,-2.8551,-3.0032,-3.0566,-2.9415,-2.8333,-2.715,-2.5871,-2.5925,0.0,0.0,0.0,0.0,0.0,0.0,0.0,0.0,0.0,0.0,0.0,0.0,0.0,0.0,0.0,0.0,0.0,0.0,0.0,0.0,0.0,0.0,0.0,0.0,0.0,0.0,0.0,0.0,0.0,0.0,0.0,0.0,0.0,0.0,0.0,0.0,0.0,0.0,0.0,0.0,0.0,0.0,0.0,0.0,0.0,0.0,0.0,0.0,0.0,0.0,0.0,0.0,0.0,0.0,0.0,0.0,0.0,0.0,0.0,0.0,0.0,0.0,0.0,0.0,0.0,0.0,0.0,0.0,0.0,0.0,0.0,0.0,0.0,0.0,0.0,0.0,0.0,0.0,0.0,0.0,0.0,0.0,0.0,0.0,0.0,0.0,0.0,0.0,0.0,0.0,0.0,0.0,0.0,0.0,0.0,0.0,0.0,0.0,0.0,0.0,0.0,0.0,-2.6733,-2.7968,-2.9091,-3.0268,-3.0566,-2.9415,-2.8734,-2.7602,-2.5897,-2.6335,0.0,0.0,0.0,0.0,0.0,0.0,0.0,0.0,0.0,0.0,0.0,0.0,0.0,0.0,0.0,0.0,0.0,0.0,0.0,0.0,0.0,0.0,0.0,0.0,0.0,0.0,0.0,0.0,0.0,0.0,0.0,0.0,0.0,0.0,0.0,0.0,0.0,0.0,0.0,0.0,0.0,0.0,0.0,0.0,0.0,0.0,0.0,0.0,0.0,0.0,0.0,0.0,0.0,0.0,0.0,0.0,0.0,0.0,0.0,0.0,0.0,0.0,0.0,0.0,0.0,0.0,0.0,0.0,0.0,0.0,0.0,0.0,0.0,0.0,0.0,0.0,0.0,0.0,0.0,0.0,0.0,0.0,0.0,0.0,0.0,0.0,0.0,0.0,0.0,0.0,0.0,0.0,0.0,0.0,0.0,0.0,0.0,0.0,0.0,0.0,0.0,0.0,-2.6504,-2.7575,0.0,-2.9666,-2.9781,-2.9362,-2.8412,-2.7419,-2.6425,0.0,0.0,0.0,0.0,0.0,0.0,0.0,0.0,0.0,0.0,0.0,0.0,0.0,0.0,0.0,0.0,0.0,0.0,0.0,0.0,0.0,0.0,0.0,0.0,0.0,0.0,0.0,0.0,0.0,0.0,0.0,0.0,0.0,0.0,0.0,0.0,0.0,0.0,0.0,0.0,0.0,0.0,0.0,0.0,0.0,0.0,0.0,0.0,0.0,0.0,0.0,0.0,0.0,0.0,0.0,0.0,0.0,0.0,0.0,0.0,0.0,0.0,0.0,0.0,0.0,0.0,0.0,0.0,0.0,0.0,0.0,0.0,0.0,0.0,0.0,0.0,0.0,0.0,0.0,0.0,0.0,0.0,0.0,0.0,0.0,0.0,0.0,0.0,0.0,0.0,0.0,0.0,0.0,0.0,0.0,0.0,0.0,0.0,0.0,0.0,0.0,0.0,-2.5981,-2.6582,-2.7549,0.0,-2.931,-2.931,-2.931,-2.836,-2.7471,-2.6745,0.0,0.0,0.0,0.0,0.0,0.0,0.0,0.0,0.0,0.0,0.0,0.0,0.0,0.0,0.0,0.0,0.0,0.0,0.0,0.0,0.0,0.0,0.0,0.0,0.0,0.0,0.0,0.0,0.0,0.0,0.0,0.0,0.0,0.0,0.0,0.0,0.0,0.0,0.0,0.0,0.0,0.0,0.0,0.0,0.0,0.0,0.0,0.0,0.0,0.0,0.0,0.0,0.0,0.0,0.0,0.0,0.0,0.0,0.0,0.0,0.0,0.0,0.0,0.0,0.0,0.0,0.0,0.0,0.0,0.0,0.0,0.0,0.0,0.0,0.0,0.0,0.0,0.0,0.0,0.0,0.0,0.0,0.0,0.0,0.0,0.0,0.0,0.0,0.0,0.0,0.0,0.0,0.0,0.0,0.0,0.0,0.0,0.0,0.0,0.0,0.0,0.0,-2.6641,-2.7183,-2.7934,-2.9179,-2.931,-2.931,-2.931,-2.876,-2.7923,0.0,0.0,0.0,0.0,0.0,0.0,0.0,0.0,0.0,0.0,0.0,0.0,0.0,0.0,0.0,0.0,0.0,0.0,0.0,0.0,0.0,0.0,0.0,0.0,0.0,0.0,0.0,0.0,0.0,0.0,0.0,0.0,0.0,0.0,0.0,0.0,0.0,0.0,0.0,0.0,0.0,0.0,0.0,0.0,0.0,0.0,0.0,0.0,0.0,0.0,0.0,0.0,0.0,0.0,0.0,0.0,0.0,0.0,0.0,0.0,0.0,0.0,0.0,0.0,0.0,0.0,0.0,0.0,0.0,0.0,0.0,0.0,0.0,0.0,0.0,0.0,0.0,0.0,0.0,0.0,0.0,0.0,0.0,0.0,0.0,0.0,0.0,0.0,0.0,0.0,0.0,0.0,0.0,0.0,0.0,0.0,0.0,0.0,0.0,0.0,0.0,0.0,0.0,-2.6641,-2.7183,-2.7934,-2.9179,-2.8943,-2.8865,-2.9284,-2.836,-2.7594,-2.7288,0.0,0.0,0.0,0.0,0.0,0.0,0.0,0.0,0.0,0.0,0.0,0.0,0.0,0.0,0.0,0.0,0.0,0.0,0.0,0.0,0.0,0.0,0.0,0.0,0.0,0.0,0.0,0.0,0.0,0.0,0.0,0.0,0.0,0.0,0.0,0.0,0.0,0.0,0.0,0.0,0.0,0.0,0.0,0.0,0.0,0.0,0.0,0.0,0.0,0.0,0.0,0.0,0.0,0.0,0.0,0.0,0.0,0.0,0.0,0.0,0.0,0.0,0.0,0.0,0.0,0.0,0.0,0.0,0.0,0.0,0.0,0.0,0.0,0.0,0.0,0.0,0.0,0.0,0.0,0.0,0.0,0.0,0.0,0.0,0.0,0.0,0.0,0.0,0.0,0.0,0.0,0.0,0.0,0.0,0.0,0.0,0.0,0.0,0.0,0.0,0.0,0.0,-2.7189,-2.762,-2.8229,-2.9205,-2.8786,-2.8656,-2.9258,-2.8412,-2.7863,-2.7863,0.0,0.0,0.0,0.0,0.0,0.0,0.0,0.0,0.0,0.0,0.0,0.0,0.0,0.0,0.0,0.0,0.0,0.0,0.0,0.0,0.0,0.0,0.0,0.0,0.0,0.0,0.0,0.0,0.0,0.0,0.0,0.0,0.0,0.0,0.0,0.0,0.0,0.0,0.0,0.0,0.0,0.0,0.0,0.0,0.0,0.0,0.0,0.0,0.0,0.0,0.0,0.0,0.0,0.0,0.0,0.0,0.0,0.0,0.0,0.0,0.0,0.0,0.0,0.0,0.0,0.0,0.0,0.0,0.0,0.0,0.0,0.0,0.0,0.0,0.0,0.0,0.0,0.0,0.0,0.0,0.0,0.0,0.0,0.0,0.0,0.0,0.0,0.0,0.0,0.0,0.0,0.0,0.0,0.0,0.0,0.0,0.0,0.0,0.0,0.0,0.0,0.0,-2.8058,-2.8387,-2.8752,-2.9301,-2.8856,-2.8752,-2.9301,-2.8839,-2.8499,-2.8499,0.0,0.0,0.0,0.0,0.0,0.0,0.0,0.0,0.0,0.0,0.0,0.0,0.0,0.0,0.0,0.0,0.0,0.0,0.0,0.0,0.0,0.0,0.0,0.0,0.0,0.0,0.0,0.0,0.0,0.0,0.0,0.0,0.0,0.0,0.0,0.0,0.0,0.0,0.0,0.0,0.0,0.0,0.0,0.0,0.0,0.0,0.0,0.0,0.0,0.0,0.0,0.0,0.0,0.0,0.0,0.0,0.0,0.0,0.0,0.0,-2.1376,0.0,0.0,0.0,0.0,0.0,0.0,0.0,0.0,0.0,0.0,0.0,0.0,0.0,0.0,0.0,0.0,0.0,0.0,0.0,0.0,0.0,0.0,0.0,0.0,0.0,0.0,0.0,0.0,0.0,0.0,0.0,0.0,0.0,0.0,0.0,0.0,0.0,0.0,0.0,0.0,0.0,-2.811,-2.9054,-2.9787,-2.9892,-2.9787,-2.9787,-2.9892,-2.9405,-2.9127,-2.9127,-2.9127,0.0,0.0,0.0,0.0,0.0,0.0,0.0,0.0,0.0,0.0,0.0,0.0,0.0,0.0,0.0,0.0,0.0,0.0,0.0,0.0,0.0,0.0,0.0,0.0,0.0,0.0,0.0,0.0,0.0,0.0,0.0,0.0,0.0,0.0,0.0,0.0,0.0,0.0,0.0,0.0,0.0,0.0,0.0,0.0,0.0,0.0,0.0,0.0,0.0,0.0,0.0,0.0,0.0,0.0,0.0,0.0,0.0,0.0,0.0,0.0,-2.2149,0.0,0.0,0.0,0.0,0.0,0.0,0.0,0.0,0.0,0.0,0.0,0.0,0.0,0.0,0.0,0.0,0.0,0.0,0.0,0.0,0.0,0.0,0.0,0.0,0.0,0.0,0.0,0.0,0.0,0.0,0.0,0.0,0.0,0.0,0.0,0.0,0.0,0.0,0.0,0.0,-2.8498,-2.9444,-3.01,-3.01,-3.01,-3.01,-3.01,-2.9813,-2.9693,-2.9693,-2.9693,0.0,0.0,0.0,0.0,0.0,0.0,0.0,0.0,0.0,0.0,0.0,0.0,0.0,0.0,0.0,0.0,0.0,0.0,0.0,0.0,0.0,0.0,0.0,0.0,0.0,0.0,0.0,0.0,0.0,0.0,0.0,0.0,0.0,0.0,0.0,0.0,0.0,0.0,0.0,0.0,0.0,0.0,0.0,0.0,0.0,0.0,0.0,0.0,0.0,0.0,0.0,0.0,0.0,0.0,-2.4529,-2.4859,-2.4941,-2.5127,-2.5378,-2.395,-2.3143,-2.2873,0.0,0.0,0.0,0.0,0.0,0.0,0.0,0.0,0.0,0.0,0.0,0.0,0.0,0.0,0.0,0.0,0.0,0.0,0.0,0.0,0.0,0.0,0.0,0.0,0.0,-2.8964,-2.9246,0.0,0.0,0.0,0.0,0.0,0.0,0.0,0.0,0.0,0.0,0.0,0.0,-2.9031,-2.9757,-3.0257,-3.0257,-3.0257,-3.0257,-3.0257,-3.0257,-3.0257,-3.0257,-3.0257,-3.0032,0.0,0.0,0.0,0.0,0.0,0.0,0.0,0.0,0.0,0.0,0.0,0.0,0.0,0.0,0.0,0.0,0.0,0.0,0.0,0.0,0.0,0.0,0.0,0.0,0.0,0.0,0.0,0.0,0.0,0.0,0.0,0.0,-1.511,-1.511,0.0,0.0,0.0,0.0,0.0,0.0,0.0,0.0,0.0,0.0,0.0,0.0,0.0,0.0,-2.4735,-2.4797,-2.5088,-2.5523,-2.6044,-2.6293,-2.6356,-2.677,-2.677,-2.6392,-2.6604,0.0,-2.4177,-2.3494,0.0,0.0,0.0,0.0,0.0,0.0,0.0,0.0,0.0,0.0,0.0,0.0,0.0,0.0,0.0,0.0,0.0,0.0,0.0,0.0,0.0,0.0,-2.9788,-2.8456,-2.8873,-2.9618,0.0,-2.9573,-2.9288,-2.8888,0.0,0.0,0.0,0.0,0.0,0.0,0.0,0.0,-2.942,-3.028,-3.0869,-3.0869,-3.0869,-3.0869,-3.0869,-3.0869,-3.0869,-3.0869,-3.0869,-3.0607,-2.9996,-2.9996,0.0,0.0,0.0,0.0,0.0,0.0,0.0,0.0,0.0,0.0,0.0,0.0,0.0,0.0,0.0,0.0,0.0,0.0,0.0,0.0,0.0,0.0,0.0,0.0,0.0,0.0,0.0,0.0,0.0,-1.5078,-1.5253,-1.5481,-1.5459,-1.5864,0.0,0.0,0.0,0.0,0.0,0.0,0.0,0.0,0.0,-2.3887,-2.4198,-2.4736,-2.5585,-2.6103,-2.6599,-2.7034,-2.7759,-2.8235,-2.8504,-2.8711,-2.8835,-2.8856,-2.8545,-2.811,-2.7469,-2.5792,-2.4987,-2.4717,0.0,0.0,0.0,0.0,0.0,-2.5719,-2.6063,0.0,0.0,0.0,0.0,0.0,0.0,0.0,0.0,0.0,0.0,0.0,0.0,0.0,0.0,-2.7767,-2.8581,-2.9372,-2.9222,-3.0018,-3.0608,0.0,-2.9116,-2.8392,-2.9202,0.0,0.0,0.0,0.0,0.0,-2.967,-3.0707,-3.1339,-3.1026,-3.1287,-3.1339,-3.1026,-3.0973,-3.0973,-3.0973,-3.0973,-3.0869,-3.0634,-3.0607,-3.0503,0.0,0.0,0.0,0.0,0.0,0.0,0.0,0.0,0.0,0.0,0.0,0.0,0.0,0.0,0.0,0.0,0.0,0.0,0.0,0.0,0.0,0.0,0.0,0.0,0.0,0.0,0.0,0.0,-1.5491,-1.5745,-1.5809,-1.6283,-1.6884,0.0,0.0,0.0,0.0,0.0,0.0,-2.3639,-2.3967,-2.4479,-2.5334,-2.5685,-2.631,-2.7096,-2.7849,-2.8359,-2.8814,-2.9622,-3.018,-3.0532,-3.0636,-3.0822,-3.0988,-3.0305,-3.0139,-3.018,-2.7862,-2.6724,-2.6351,-2.5916,-2.5544,-2.5233,-2.5453,-2.575,-2.6044,-2.6222,-2.6544,-2.6841,-2.6841,0.0,-2.7498,-2.7786,0.0,0.0,0.0,0.0,-2.8492,-2.8276,-2.8116,-2.7911,-2.7632,-2.842,-2.9263,-2.9263,-3.004,-3.0768,0.0,-2.9756,-2.902,-3.0298,0.0,0.0,0.0,0.0,-2.9951,-3.0025,-3.0927,-3.1484,-3.1235,-3.1444,-3.1496,-3.1235,-3.1078,-3.0973,-3.0973,-3.0973,-3.0973,-3.0973,-3.0973,-3.0973,-3.0973,0.0,0.0,0.0,0.0,0.0,0.0,0.0,0.0,0.0,0.0,0.0,0.0,0.0,0.0,0.0,0.0,0.0,0.0,0.0,0.0,0.0,0.0,0.0,0.0,0.0,0.0,0.0,0.0,0.0,-1.6254,-1.7879,0.0,0.0,0.0,0.0,-2.3536,-2.2644,-2.2876,-2.4977,-2.4761,-2.5518,-2.7669,-2.7779,-2.8649,-3.0429,-3.0491,-3.0739,-3.1215,-3.1671,-3.1864,-3.1905,-3.2339,-3.2318,-3.1905,-3.1864,-3.1671,-3.1133,-2.8814,-2.7841,-2.7779,-2.7324,-2.7185,-2.7164,-2.7164,-2.7185,-2.7206,-2.7206,-2.7348,-2.7558,-2.7558,-2.745,-2.7259,-2.7122,-2.7082,0.0,0.0,-2.8634,-2.9104,-2.8571,-2.9498,-3.0229,-2.8732,-2.8732,-2.9496,-3.0789,-2.9897,-2.9139,0.0,-3.1009,-3.1595,-3.162,0.0,-3.0902,-3.1047,-3.0689,-3.0431,-3.0608,-3.0887,-3.1235,-3.1719,-3.1339,-3.1235,-3.1719,-3.1287,-3.0973,-3.0973,-3.0973,-3.0973,-3.0973,-3.0973,-3.0973,-3.0973,-3.0947,0.0,0.0,0.0,0.0,0.0,0.0,0.0,0.0,0.0,0.0,0.0,0.0,0.0,0.0,0.0,0.0,0.0,0.0,0.0,0.0,0.0,0.0,0.0,0.0,0.0,0.0,0.0,0.0,-1.8868,-1.958,0.0,0.0,-2.2206,-2.3066,-2.4251,-2.4756,-2.5548,-2.6884,-2.7099,-2.7959,-2.9663,-2.9994,-3.0594,-3.1547,-3.2126,-3.2354,-3.225,-3.2996,-3.3348,-3.3348,-3.3203,-3.3058,-3.2892,-3.2602,-3.2395,-3.2168,-3.0975,-3.0056,-2.9187,-2.8421,-2.7945,-2.7655,-2.7413,-2.7448,-2.7696,-2.7696,-2.7931,-2.8237,-2.8091,-2.8311,-2.853,-2.781,-2.8283,-2.9019,-2.8795,-2.9277,-2.9799,-2.9401,-2.9746,-3.0,-2.944,-3.0337,-3.1338,-3.1527,-3.2051,-3.2572,-3.2876,-3.1746,-3.104,-3.1782,-3.1369,-3.0944,-3.0868,-3.0801,-3.0773,-3.0698,-3.1161,-3.147,-3.1313,-3.1444,-3.1432,-3.1313,-3.1104,-3.0973,-3.0973,-3.0973,-3.0973,-3.0973,-3.0973,-3.0973,-3.0973,-3.0973,-3.0973,0.0,0.0,0.0,0.0,0.0,0.0,0.0,0.0,0.0,0.0,0.0,0.0,0.0,0.0,0.0,0.0,0.0,0.0,0.0,0.0,0.0,0.0,0.0,0.0,0.0,0.0,-1.9162,-2.0243,-2.1584,-2.2673,-2.3354,-2.4516,-2.5498,-2.6147,-2.716,-2.8048,-2.8814,-2.9435,-3.0263,-3.134,-3.1816,-3.2271,-3.2727,-3.3306,-3.3472,-3.3182,-3.3782,-3.4132,-3.4111,-3.38,-3.3617,-3.3596,-3.3306,-3.3099,-3.2934,-3.2623,-3.1878,-3.0822,-2.9911,-2.9352,-2.9063,-2.8752,-2.8731,-2.8835,-2.8669,-2.8814,-2.9001,-2.8744,-2.8956,-2.926,-2.8625,-2.9107,-2.9872,-2.977,-3.0041,-3.0422,-3.0426,-3.042,-3.0469,-3.0767,-3.1592,-3.2463,-3.2795,-3.3731,-3.4603,-3.4824,-3.3038,-3.1807,-3.272,-3.2108,-3.1551,-3.1824,-3.1305,-3.1017,-3.1331,-3.1498,-3.1432,-3.1287,-3.1444,-3.1548,-3.1548,-3.1209,-3.1078,-3.1261,-3.1104,-3.0973,-3.0973,-3.0973,-3.0973,-3.0973,-3.0973,-3.0973,-3.0973,0.0,0.0,0.0,0.0,0.0,0.0,0.0,0.0,0.0,0.0,0.0,0.0,0.0,0.0,0.0,0.0,0.0,0.0,0.0,0.0,0.0,0.0,0.0,-1.744,-1.9866,-2.1247,-2.02,-2.3845,-2.6056,-2.5048,-2.6804,-2.84,-2.9311,-2.9829,-3.0284,-3.0739,-3.1609,-3.2235,-3.2731,-3.3203,-3.3637,-3.4152,-3.4113,-3.4113,-3.4152,-3.4113,-3.4113,-3.4113,-3.4152,-3.4152,-3.4152,-3.4132,-3.3803,-3.3389,-3.3389,-3.3141,-3.2685,-3.1754,-3.1402,-3.1402,-3.1381,-3.1091,-3.0636,-3.0201,-3.0036,-2.9973,-2.9497,-2.9352,-2.9372,-2.9394,-2.9444,-2.965,-3.065,-3.0908,-3.1068,-3.1549,-3.1659,-3.1913,-3.265,-3.2537,-3.2734,-3.4617,-3.4732,-3.4791,-3.569,-3.496,-3.4253,-3.4563,-3.3421,-3.2861,-3.3949,-3.2199,0.0,-3.2568,-3.1757,-3.1261,-3.1771,-3.1392,-3.1496,-3.2594,-3.1705,-3.1287,-3.1797,-3.1339,-3.1026,-3.1026,-3.1026,-3.1026,-3.1026,-3.1026,-3.1026,-3.1026,0.0,0.0,0.0,0.0,0.0,0.0,0.0,0.0,0.0,0.0,0.0,0.0,0.0,0.0,0.0,0.0,0.0,0.0,0.0,0.0,0.0,0.0,-1.9304,-1.9208,-2.1276,-2.2963,-2.3378,-2.6067,-2.7896,-2.8141,-2.9534,-3.0677,-3.1236,-3.1712,-3.2168,-3.2602,-3.2871,-3.3368,-3.4176,-3.438,-3.4505,-3.4629,-3.49,-3.49,-3.4629,-3.49,-3.5045,-3.5045,-3.4714,-3.4629,-3.4608,-3.4277,-3.4049,-3.3945,-3.3945,-3.3803,-3.3575,-3.2333,-3.1857,-3.1816,-3.1505,-3.1298,-3.1174,-3.105,-3.1008,-3.0926,-3.045,-3.0548,-3.0831,-3.0263,-3.0525,-3.1005,-3.1084,-3.1816,-3.2592,-3.2728,-3.335,-3.3993,-3.419,-3.4703,-3.5301,-3.5846,-3.6116,-3.6477,-3.7189,-3.6348,-3.5375,-3.4882,-3.4276,-3.3949,-3.4262,-3.3792,0.0,-3.3352,-3.3064,-3.2777,-3.2489,-3.2698,-3.2829,-3.2698,-3.2803,-3.2751,-3.2463,-3.2306,-3.2228,-3.2228,-3.2228,-3.2228,-3.2228,-3.181,-3.181,0.0,0.0,0.0,0.0,0.0,0.0,0.0,0.0,0.0,0.0,0.0,0.0,0.0,0.0,0.0,0.0,0.0,0.0,0.0,0.0,0.0,0.0,-2.1353,-2.1712,-2.2843,-2.3983,-2.5058,-2.6016,-2.8322,-3.0003,-3.0254,-3.1455,-3.2395,-3.2851,-3.3141,-3.341,-3.3658,-3.3903,-3.4256,-3.4795,-3.4941,-3.5045,-3.5045,-3.5293,-3.5293,-3.5045,-3.5293,-3.5418,-3.5418,-3.5148,-3.5045,0.0,-3.4755,-3.4527,-3.4422,-3.4422,-3.4297,0.0,0.0,0.0,0.0,0.0,-3.165,-3.1629,-3.1443,-3.1381,-3.134,-3.1071,-3.1183,-3.1443,-3.1222,-3.1801,-3.2517,-3.2369,-3.327,-3.4152,-3.3941,-3.4337,-3.4921,-3.5307,-3.5881,-3.6427,-3.6875,-3.7175,-3.7482,-3.7821,0.0,0.0,-3.6259,-3.5409,-3.4946,-3.5417,-3.4685,-3.411,-3.4293,-3.3666,-3.3091,-3.2725,-3.3012,-3.3169,-3.3091,-3.3169,0.0,0.0,0.0,-3.2698,-3.2698,-3.2698,0.0,0.0,0.0,-3.2359,-3.2698,0.0,0.0,0.0,-3.1705,-3.1705,0.0,0.0,0.0,0.0,0.0,0.0,0.0,0.0,0.0,0.0,0.0,0.0,0.0,0.0,0.0,0.0,-2.3655,-2.4721,-2.7419,-2.7437,-2.7401,-2.7991,-3.0534,-3.2068,-3.1722,-3.2808,-3.372,-3.4176,-3.4217,-3.4217,-3.4217,0.0,0.0,0.0,0.0,-3.548,-3.5418,-3.5521,-3.5562,-3.55,-3.55,-3.55,-3.55,-3.5438,-3.5418,-3.5418,-3.5418,-3.519,-3.4899,-3.4899,-3.459,-3.4217,-3.4173,-3.3883,-3.3348,-3.2561,-3.2215,0.0,0.0,0.0,0.0,-3.1649,-3.1717,-3.186,-3.2426,-3.3303,-3.4094,-3.4073,-3.4849,-3.5574,-3.509,-3.5066,-3.5355,-3.6285,-3.6474,-3.6709,-3.769,-3.79,-3.79,-3.79,-3.79,-3.79,-3.79,-3.6619,-3.594,-3.6959,-3.5391,-3.4424,-3.5365,-3.4084,-3.3064,-3.2986,0.0,0.0,-3.3744,-3.33,-3.3221,-3.3744,-3.3221,-3.2881,-3.2881,-3.2829,-3.2829,-3.2881,-3.2829,-3.2829,-3.2881,-3.2881,-3.2881,-3.2881,-3.2751,-3.2698,0.0,0.0,0.0,0.0,0.0,0.0,0.0,0.0,0.0,0.0,0.0,0.0,0.0,0.0,0.0,-2.5479,-2.6337,-2.7602,-3.0645,-3.046,-2.9813,-2.9361,-3.188,-3.3391,-3.2686,-3.3801,-3.4672,-3.5128,-3.5148,-3.5148,-3.5148,-3.5252,0.0,-3.5293,-3.5749,-3.579,-3.5418,-3.6163,-3.6349,-3.5976,0.0,0.0,-3.5976,-3.5583,-3.5418,-3.5418,-3.5418,-3.5376,-3.5293,-3.5293,-3.5231,-3.5086,-3.4341,-3.401,-3.3906,-3.3741,-3.3679,-3.3617,-3.3141,-3.2996,-3.3043,-3.3274,-3.3617,-3.4124,-3.4808,-3.5165,0.0,-3.5246,-3.5722,-3.6148,-3.6048,-3.6662,-3.7366,-3.7551,-3.7598,-3.767,-3.7854,-3.79,-3.79,-3.79,-3.79,-3.79,-3.79,-3.7612,-3.7482,-3.7691,-3.7351,-3.6985,-3.6698,-3.594,-3.5286,-3.4842,-3.4789,-3.4842,-3.4946,-3.4868,-3.4842,-3.4946,-3.4397,-3.4058,-3.4058,-3.3666,-3.3613,-3.4058,-3.3639,-3.3639,-3.4058,-3.4058,-3.4058,-3.4058,-3.3117,-3.2698,0.0,0.0,0.0,0.0,0.0,0.0,0.0,0.0,0.0,0.0,0.0,-2.1181,0.0,0.0,-2.4393,-2.726,-2.8365,-2.969,-3.1989,-3.2435,-3.2234,-3.1584,-3.3051,-3.4058,-3.3882,-3.4841,-3.5521,-3.5749,-3.5769,-3.5769,-3.5769,-3.5769,-3.5769,-3.5769,-3.6225,-3.6349,-3.6121,-3.6577,-3.668,-3.6453,-3.6453,-3.6453,-3.6453,-3.5976,-3.5769,-3.5749,-3.5521,-3.5418,-3.5418,-3.5418,-3.5767,-3.6316,-3.5848,-3.5191,-3.4503,-3.4905,-3.5056,-3.5088,-3.5343,-3.5373,-3.5432,-3.5395,-3.558,-3.591,-3.6449,-3.6967,-3.7314,-3.6874,-3.7362,-3.7826,-3.7262,-3.7505,-3.79,-3.79,-3.79,-3.79,-3.79,-3.79,-3.79,-3.79,-3.79,-3.79,-3.79,-3.79,-3.79,-3.79,-3.7639,-3.7351,-3.7037,-3.6462,-3.5992,-3.573,-3.5704,-3.56,-3.5312,-3.5286,-3.5417,-3.5678,-3.5417,-3.526,-3.526,-3.4999,-3.4972,-3.5234,-3.4972,-3.4972,-3.526,-3.526,-3.526,-3.5234,-3.4659,-3.4084,0.0,0.0,0.0,0.0,0.0,0.0,0.0,0.0,-2.1189,-2.0243,-2.1943,-2.3583,-2.3473,-2.478,-2.6664,-2.8952,-3.0139,-3.1288,-3.2493,-3.3348,-3.3699,-3.341,-3.3865,-3.4443,-3.4838,-3.5542,-3.6018,-3.6101,-3.6039,-3.6059,-3.6246,-3.6163,-3.6163,-3.6246,-3.6701,-3.6887,-3.6804,-3.697,-3.7032,-3.6929,-3.6929,-3.6929,-3.6929,-3.6453,-3.6246,-3.6225,-3.5749,-3.5562,-3.5542,-3.5685,-3.6359,-3.7287,-3.7588,-3.6785,-3.5597,-3.6362,-3.6603,-3.6689,-3.7346,-3.7562,-3.7542,-3.7439,-3.7418,-3.7482,-3.7863,-3.8573,-3.912,-3.8288,-3.864,-3.9076,-3.8135,-3.79,-3.79,-3.79,-3.79,-3.79,-3.79,-3.79,-3.79,-3.79,-3.79,-3.79,-3.79,-3.79,-3.79,-3.79,-3.7482,-3.7168,-3.7168,-3.6645,-3.6279,-3.6279,-3.6175,-3.594,-3.5495,-3.5547,-3.5757,-3.6096,-3.6096,-3.6096,-3.6096,-3.6096,-3.6096,-3.6096,-3.6096,-3.6096,-3.6096,-3.6096,-3.6096,-3.6096,-3.6096,-3.56,-1.7877,-1.7831,-1.7792,-1.7691,-1.8237,-1.922,0.0,0.0,-2.2741,-2.4122,-2.4653,-2.5383,-2.702,-2.81,-2.9257,-3.0772,-3.1819,-3.2493,-3.2669,-3.2752,-3.2996,-3.3348,-3.4214,-3.4859,-3.5314,-3.5438,-3.5666,-3.608,-3.5728,-3.5852,-3.668,-3.6349,-3.6308,-3.6722,-3.7177,-3.7218,-3.6804,-3.7612,-3.7819,-3.7425,-3.7425,-3.7425,-3.7405,-3.6929,-3.6722,-3.6701,-3.6246,-3.6039,-3.606,-3.6774,-3.7188,-3.7407,-3.8566,-3.8566,-3.8063,-3.8625,-3.8821,-3.8811,-3.8459,-3.8204,-3.8111,-3.8737,-3.8925,-3.9032,-3.9549,-3.9636,-3.941,-3.8782,-3.8356,-3.8057,-3.7926,-3.79,-3.79,-3.79,-3.79,-3.79,-3.79,-3.79,-3.79,-3.79,-3.79,-3.79,-3.79,-3.79,-3.79,-3.79,-3.7848,-3.7795,-3.7795,-3.7273,-3.6907,-3.6907,-3.6436,-3.607,-3.6018,-3.6515,-3.6619,-3.6123,-3.6096,-3.6096,-3.6096,-3.6096,-3.6096,-3.6096,-3.6096,-3.6096,-3.6096,-3.6096,-3.6096,-3.6096,-3.6096,-3.6044,-1.874,-1.9524,-2.0245,0.0,-2.0974,-2.2285,-2.3147,-2.4699,-2.5935,-2.6079,-2.7214,-2.8192,-2.8174,-2.9616,-3.0949,0.0,-3.2615,-3.341,-3.3141,-3.3348,-3.3389,-3.3037,-3.3348,-3.3969,-3.4941,-3.5273,-3.5728,-3.6453,-3.6328,-3.6515,-3.7177,-3.7032,-3.7011,-3.7198,-3.7653,-3.7798,-3.7612,-3.7984,-3.8088,-3.7902,-3.7902,-3.7902,-3.7881,-3.7136,-3.666,-3.6433,-3.7487,-3.7667,-3.7245,-3.7739,-3.8349,-3.9082,-3.9239,-3.9626,-4.0089,-3.9917,-3.9632,-3.9391,-3.9946,-4.004,-4.0038,-4.0305,-4.044,-4.0414,-4.0247,-4.0155,-3.9886,-3.8972,-3.8553,-3.837,-3.837,-3.8135,-3.7978,-3.8292,-3.8135,-3.8004,-3.8318,-3.837,-3.8475,-3.8841,-3.8893,-3.8893,-3.8893,-3.8893,-3.8789,-3.8423,-3.8109,-3.79,-3.79,-3.7691,-3.7534,-3.7534,-3.6985,-3.6776,-3.7116,-3.7063,-3.7037,-3.7142,-3.7142,-3.7142,-3.7142,-3.7142,-3.7142,-3.7142,-3.7142,-3.7142,-3.7142,-3.7142,-3.7142,-3.7142,-3.7142,-3.7142,-2.001,0.0,0.0,-2.2033,-2.3537,-2.5134,-2.5588,-2.7492,-2.8977,-2.8442,-2.9662,-3.0516,-2.9677,-3.0877,-3.1953,-3.1837,-3.2987,-3.3762,-3.343,-3.3555,-3.341,-3.2566,-3.2437,-3.2851,-3.4072,-3.4714,-3.548,-3.6535,-3.6618,-3.6929,-3.7653,-3.757,-3.755,-3.7674,-3.8005,-3.8191,-3.8191,-3.8191,-3.837,-3.8747,-3.8747,-3.8946,-3.9299,-3.8466,-3.7784,-3.7419,-3.862,-3.8761,-3.8116,-3.848,-3.9222,-4.0042,-3.9933,-4.037,-4.0993,-4.0526,-4.0227,-4.0153,-4.1117,-4.1413,-4.1415,-4.1437,-4.1354,-4.1193,-4.0592,-4.0409,-4.02,-3.9233,-3.8972,-3.8972,-3.8972,-3.8658,-3.8475,-3.8867,-3.8658,-3.8475,-3.8867,-3.8972,-3.9076,-3.952,-3.9599,-3.9599,-3.9599,-3.9599,-3.9468,-3.9024,-3.8632,-3.8266,-3.7952,-3.79,-3.79,-3.79,-3.7508,-3.7429,-3.7874,-3.7508,-3.7429,-3.7874,-3.79,-3.79,-3.79,-3.79,-3.79,-3.79,-3.79,-3.79,-3.79,-3.79,-3.79,-3.79,-3.79,-3.79,-2.1847,0.0,-2.2789,-2.3598,-2.5082,-2.6692,-2.814,-2.9713,-3.1094,-3.2133,-3.2015,-3.1902,-3.2274,-3.2155,-3.2153,-3.2607,-3.312,-3.3389,-3.3368,-3.3037,-3.2545,-3.207,-3.1671,-3.1774,0.0,-3.3596,-3.4672,-3.6039,-3.6121,-3.6722,-3.8088,-3.7736,-3.7695,-3.815,-3.8171,-3.8191,-3.8191,-3.8191,-3.888,-4.0149,-4.0149,-4.0817,-4.2074,-4.1485,-4.0982,-4.0418,-3.9496,-3.8788,-3.8285,-3.906,-3.9402,-3.9568,-4.0765,-4.0949,-4.0551,-4.0498,-4.0983,-4.1625,-4.1653,-4.1667,-4.1673,-4.1724,-4.1489,-4.1193,-4.0592,-4.0409,-4.0305,-3.973,-3.9573,-3.9573,-3.9573,-3.9573,-3.9573,-3.9573,-3.9573,-3.9573,-3.9573,-3.9573,-3.9599,-3.9599,-3.9599,-3.9599,-3.9599,-3.9599,-3.9599,-3.9599,-3.9573,-3.9155,-3.8057,-3.79,-3.79,-3.79,-3.7874,-3.7874,-3.79,-3.7874,-3.7874,-3.79,-3.79,-3.79,-3.79,-3.79,-3.79,-3.79,-3.79,-3.79,-3.79,-3.79,-3.79,-3.79,-3.79,-3.79,-2.3371,0.0,-2.5726,-2.6758,-2.8309,-2.9808,-3.0941,-3.2117,-3.2855,-3.2378,-3.2083,-3.1668,-3.0989,-3.059,-3.0787,-3.1871,-3.2514,-3.3037,-3.3348,-3.3513,-3.312,-3.1754,-3.1464,0.0,0.0,0.0,0.0,-3.5521,-3.5935,-3.6577,-3.7674,-3.7881,-3.8026,-3.8171,-3.8191,-3.8636,-3.9517,-3.9517,-4.0192,-4.1524,-4.1185,-4.0694,-4.0166,-4.0844,-4.0538,-3.9639,-4.0712,-4.0748,-4.0077,-4.0508,-4.0434,-4.0141,-4.0217,-4.0149,-3.9973,-4.0156,-4.0541,-4.09,-4.09,-4.1029,-4.1231,-4.1383,-4.1354,-4.1193,-4.0592,-4.0409,-4.0305,-3.9756,-3.9599,-3.9677,-4.0043,-3.9886,-3.9703,-4.0069,-3.986,-3.9703,-4.0069,-4.0148,-4.0252,-4.0671,-4.0749,-4.0749,-4.0749,-4.0749,-4.0592,-4.02,-3.9494,-3.8867,-3.8475,-3.8135,-3.79,-3.79,-3.79,-3.79,-3.79,-3.79,-3.79,-3.79,-3.79,-3.79,-3.79,-3.79,-3.79,-3.79,-3.79,-3.79,-3.79,-3.79,-3.79,-3.79,-3.79,-3.79,-2.5083,-2.6494,-2.8061,-2.9564,-3.0916,-3.2123,-3.272,-3.3313,-3.3408,-3.2341,-3.1601,-3.0858,-2.9842,-2.9366,-2.9513,-3.0747,-3.1366,-3.2085,-3.3016,-3.312,-3.2789,-3.1961,-3.1567,-3.1319,0.0,0.0,0.0,-3.4817,-3.5666,-3.6515,-3.7446,-3.8364,-3.8946,-3.8946,-3.9386,-4.0018,-4.0882,-4.0882,-4.1497,-4.2638,-4.2555,-4.1923,-4.0785,-4.1426,-4.1079,-3.9931,-4.1126,-4.132,-4.0825,-4.0728,-4.0651,-4.045,-3.9898,-3.9749,-3.9826,-4.0032,-4.0338,-4.0643,-4.0643,-4.0795,-4.1047,-4.1248,-4.1324,-4.1246,-4.0853,-4.0749,-4.0671,-4.0305,-4.0226,-4.0305,-4.0644,-4.0488,-4.0305,-4.0644,-4.0461,-4.0305,-4.0671,-4.0749,-4.0853,-4.1246,-4.1324,-4.1324,-4.1324,-4.1324,-4.1193,-4.0801,-3.9939,-3.9259,-3.905,-3.8736,-3.8423,-3.8214,-3.8187,-3.8109,-3.7926,-3.79,-3.79,-3.79,-3.79,-3.79,-3.79,-3.79,-3.79,-3.79,-3.79,-3.79,-3.79,-3.79,-3.8004,-3.8187,-3.8004,-3.8109,-2.6891,-2.8301,-2.9703,-3.1806,-3.2888,-3.3449,-3.3522,-3.3267,-3.2821,-3.1961,-3.0701,-2.958,0.0,0.0,-2.8544,-2.9459,-2.986,-3.0698,-3.2499,-3.2043,-3.1816,0.0,0.0,0.0,0.0,0.0,0.0,-3.4108,0.0,-3.6601,-3.7621,-3.9368,-4.0322,-4.0322,-4.1524,-4.2201,-4.2241,-4.2259,-4.2716,-4.3445,-4.415,-4.4267,-4.3689,-4.3162,-4.2359,-4.125,-4.0724,-4.0551,-4.0475,-3.9948,-4.0023,-4.0425,-3.9898,-3.9826,-4.0083,-4.0134,-4.044,-4.0896,-4.0946,-4.1097,-4.1324,-4.1324,-4.1324,-4.1324,-4.1324,-4.1324,-4.1324,-4.1324,-4.1324,-4.1324,-4.1324,-4.1324,-4.1324,-4.1324,-4.1324,-4.1324,-4.1324,-4.1324,-4.1324,-4.1324,-4.1324,-4.1324,-4.1324,-4.1324,-4.1324,-4.1324,-4.0827,-4.0252,-3.973,-3.9625,-3.939,-3.8762,-3.871,-3.8501,-3.7952,-3.79,-3.79,-3.79,-3.79,-3.7926,-3.7952,-3.7952,-3.7952,-3.8004,-3.8004,-3.8004,-3.8004,-3.8004,-3.8266,-3.8736,-3.8214,-3.8579,-2.8597,-2.9992,-3.12,-3.2444,-3.3326,-3.3741,-3.3028,-3.2695,-3.211,-3.0438,-2.9215,-2.8215,0.0,0.0,0.0,-2.9486,-3.061,0.0,-3.3304,-3.3443,0.0,-3.2789,0.0,-3.2292,-3.2008,-3.3473,0.0,0.0,-3.6729,-3.8135,-4.0397,-4.1253,-4.1715,-4.1715,-4.2011,-4.2481,-4.3099,-4.371,-4.39,-4.3672,-4.3894,-4.3514,-4.2615,-4.2489,-4.1982,-4.1275,-4.115,-4.0902,-4.0501,-4.0375,-4.0149,-3.9898,-3.9747,-3.9826,-4.0134,-4.0338,-4.0593,-4.0946,-4.1147,-4.1248,-4.1324,-4.1324,-4.1324,-4.1324,-4.1324,-4.1324,-4.1324,-4.1324,-4.1324,-4.1324,-4.1324,-4.1324,-4.1324,-4.1324,-4.1324,-4.1324,-4.1324,-4.1324,-4.1324,-4.1324,-4.1324,-4.1324,-4.1324,-4.1324,-4.1324,-4.1324,-4.1193,-4.088,-4.0278,-3.986,-3.939,-3.8762,-3.871,-3.8501,-3.7952,-3.79,-3.79,-3.79,-3.79,-3.8083,-3.8475,-3.8501,-3.871,-3.9181,-3.9181,-3.9181,-3.9181,-3.9181,-3.9233,-3.939,-3.9233,-3.9337,-3.027,-3.1524,-3.2512,-3.3372,-3.3775,-3.3746,-3.2716,-3.1962,-3.093,-2.9205,-2.8091,0.0,-2.6452,0.0,0.0,0.0,0.0,0.0,-3.2937,-3.3356,-3.3513,0.0,-3.3954,0.0,-3.4125,-3.5725,-3.7562,0.0,-3.8919,-3.9446,-4.1374,-4.249,-4.3107,-4.3107,-4.3455,-4.371,-4.3923,-4.4112,-4.4116,-4.379,-4.3564,-4.2986,-4.2213,-4.2213,-4.1731,-4.0924,0.0,-4.0802,-4.0501,-4.0249,-4.0151,-4.0231,-3.9979,-4.0134,-4.0517,-4.0926,-4.1078,-4.1123,-4.1535,-4.1533,-4.1324,-4.1324,-4.1324,-4.1324,-4.1324,-4.1324,-4.1324,-4.1324,-4.1324,-4.1324,-4.1324,-4.1324,-4.1324,-4.1324,-4.1324,-4.1324,-4.1324,-4.1324,-4.1324,-4.1324,-4.1324,-4.1324,-4.1324,-4.1324,-4.1324,-4.1324,-4.1324,-4.1193,-4.0853,-4.054,-4.0122,-3.952,-3.9468,-3.9233,-3.871,-3.8658,-3.8658,-3.8658,-3.8658,-3.8789,-3.9076,-3.9102,-3.9259,-3.9599,-3.9599,-3.9599,-3.9599,-3.9599,-3.973,-3.9965,-3.973,-3.9886,-3.1819,-3.2879,-3.3679,-3.437,-3.4098,-3.3442,-3.2416,-3.1018,-2.9532,-2.8089,0.0,-2.6366,-2.5972,-2.6129,-2.667,-2.7774,0.0,-3.0155,-3.2377,-3.305,-3.3749,-3.4891,-3.5811,-3.6545,-3.7104,-3.8329,-4.0223,-4.2806,-4.1578,-4.1164,-4.2226,-4.3726,-4.4535,-4.4462,-4.4953,-4.502,-4.4518,-4.3966,-4.3689,-4.3689,-4.3212,-4.2791,-4.2313,-4.2238,-4.1605,-4.0626,0.0,0.0,-4.0375,-3.9973,-4.023,-4.0869,-4.0464,-4.0645,-4.1181,-4.1698,-4.1722,-4.1507,-4.2004,-4.1794,-4.1324,-4.1324,-4.1324,-4.1324,-4.1324,-4.1324,-4.1324,-4.1324,-4.1324,-4.1324,-4.1324,-4.1324,-4.1324,-4.1324,-4.1324,-4.1324,-4.1324,-4.1324,-4.1324,-4.1324,-4.1324,-4.1324,-4.1324,-4.1324,-4.1324,-4.1324,-4.1324,-4.1324,-4.1324,-4.1324,-4.1089,-4.0488,-4.0409,-4.02,-3.9651,-3.9599,-3.9599,-3.9599,-3.9599,-3.9651,-3.9703,-3.973,-3.9756,-3.9834,-3.9834,-3.9834,-3.9834,-3.9834,-4.0069,-4.0514,-4.0189,-4.0552,-3.2942,-3.3912,-3.437,-3.4457,-3.3857,-3.2831,-3.1476,-2.9729,0.0,0.0,-2.6388,-2.5994,-2.5906,-2.6257,-2.7107,-2.8896,0.0,0.0,0.0,0.0,-3.6455,0.0,0.0,0.0,0.0,0.0,0.0,0.0,0.0,0.0,-4.6081,-4.5991,-4.5775,-4.5326,-4.4502,-4.4041,-4.394,-4.3388,-4.3112,-4.3112,-4.3011,-4.2936,-4.2866,-4.2414,-4.1806,-4.1125,0.0,0.0,-3.9873,-4.0224,-4.0583,-4.0946,-4.1326,-4.1822,-4.2346,-4.2397,-4.2294,-4.2081,-4.2185,-4.1794,-4.1324,-4.1324,-4.1324,-4.1324,-4.1324,-4.1324,-4.1324,-4.1324,-4.1324,-4.1324,-4.1324,-4.1324,-4.1324,-4.1324,-4.1324,-4.1324,-4.1324,-4.1324,-4.1324,-4.1324,-4.1324,-4.1324,-4.1324,-4.1324,-4.1324,-4.1324,-4.1324,-4.1324,-4.1324,-4.1324,-4.1089,-4.0488,-4.0409,-4.02,-3.9651,-3.9599,-3.9599,-3.9599,-3.9599,-3.9808,-4.0252,-4.0278,-4.0514,-4.101,-4.101,-4.101,-4.101,-4.101,-4.1063,-4.1141,-4.1897,-4.2361,-3.3672,-3.4338,-3.4469,-3.4207,-3.3224,-3.1935,-3.0493,0.0,0.0,0.0,-2.6749,-2.6693,-2.7121,0.0,0.0,0.0,0.0,0.0,0.0,0.0,0.0,0.0,0.0,0.0,0.0,0.0,0.0,0.0,0.0,0.0,-4.6677,-4.6175,-4.5497,-4.4644,-4.4091,-4.3664,-4.3363,-4.3112,-4.2986,-4.2986,-4.2986,-4.2986,-4.2961,-4.271,-4.2283,-4.1756,-4.148,0.0,-4.0576,-4.1011,-4.1299,-4.164,-4.208,-4.2446,-4.284,-4.3179,-4.2814,-4.2264,-4.25,-4.2056,-4.1324,-4.1324,-4.1324,-4.1324,-4.1324,-4.1324,-4.1324,-4.1324,-4.1324,-4.1324,-4.1324,-4.1324,-4.1324,-4.1324,-4.1324,-4.1324,-4.1324,-4.1324,-4.1324,-4.1324,-4.1324,-4.1324,-4.1324,-4.1324,-4.1324,-4.1324,-4.1324,-4.1324,-4.1324,-4.1324,-4.1219,-4.0906,-4.088,-4.0775,-4.0514,-4.0488,-4.0488,-4.0488,-4.0488,-4.0618,-4.088,-4.088,-4.101,-4.1298,-4.1324,-4.1324,-4.1324,-4.1324,-4.1324,-4.1298,-4.2333,-4.2792,-3.401,-3.4513,-3.4534,-3.3945,-3.2634,-3.1177,-3.0013,-2.9038,0.0,0.0,-2.7447,-2.7649,-2.8267,0.0,-2.8425,0.0,0.0,0.0,0.0,0.0,0.0,0.0,0.0,0.0,0.0,0.0,0.0,0.0,0.0,0.0,-4.6125,-4.5598,-4.4844,-4.384,-4.3689,-4.3413,-4.2986,-4.2986,-4.2986,-4.2986,-4.2986,-4.2986,-4.2986,-4.2861,-4.2615,-4.2213,-4.2087,0.0,0.0,-4.1802,-4.2121,-4.2415,-4.2809,-4.3125,-4.3441,-4.3885,-4.3415,-4.263,-4.2918,-4.2343,-4.1481,-4.135,-4.1402,-4.1481,-4.135,-4.1402,-4.1507,-4.1507,-4.1507,-4.1533,-4.1638,-4.169,-4.1664,-4.1533,-4.1585,-4.1638,-4.1533,-4.1585,-4.169,-4.169,-4.169,-4.169,-4.169,-4.1585,-4.1507,-4.1507,-4.1402,-4.1324,-4.1324,-4.1324,-4.1324,-4.1324,-4.1324,-4.1324,-4.1324,-4.1324,-4.1324,-4.1324,-4.1324,-4.1324,-4.1324,-4.1324,-4.1324,-4.1324,-4.1324,-4.1398,-4.1647,-4.1647,-4.1746,-4.1967,-4.2985,-4.3436,-3.3595,-3.4491,-3.4928,-3.4032,-3.2372,-3.0888,-3.071,0.0,0.0,-2.8171,-2.8307,-2.8307,-2.8386,-2.8395,-2.8714,-2.972,0.0,-3.1853,0.0,0.0,0.0,0.0,0.0,0.0,0.0,0.0,0.0,0.0,0.0,0.0,0.0,-4.502,-4.4418,-4.3815,-4.3313,-4.3037,-4.2986,-4.2986,-4.2986,-4.2986,-4.2986,-4.2986,-4.2961,-4.2514,-4.2263,-4.2187,0.0,0.0,0.0,-4.2207,-4.2681,-4.3003,-4.3842,-4.432,-4.4565,-4.4643,-4.4251,-4.365,-4.318,-4.2605,-4.2004,-4.1481,-4.1664,-4.2004,-4.1481,-4.1664,-4.2133,-4.2133,-4.2133,-4.2213,-4.2735,-4.2866,-4.2735,-4.2213,-4.2474,-4.2735,-4.2213,-4.25,-4.2866,-4.2866,-4.2866,-4.2866,-4.2866,-4.2422,-4.2133,-4.2133,-4.1638,-4.1324,-4.1324,-4.1324,-4.1324,-4.1324,-4.1324,-4.1324,-4.1324,-4.1324,-4.1324,-4.1324,-4.1324,-4.1324,-4.1324,-4.1324,-4.1324,-4.1324,-4.1324,-4.172,-4.2647,-4.2647,-4.3129,-4.4031,-4.5052,-4.5553,-3.294,-3.4054,-3.4556,-3.3595,-3.2303,-3.1083,-3.0443,0.0,0.0,-2.9096,-2.9174,-2.933,-2.9858,-2.9549,-2.9479,-3.0424,-3.0357,0.0,0.0,0.0,0.0,0.0,0.0,0.0,0.0,0.0,0.0,0.0,0.0,0.0,0.0,-4.4242,-4.3865,-4.3313,-4.3087,-4.2986,-4.2986,-4.2986,-4.2986,-4.2986,-4.2986,-4.2986,-4.2961,-4.2816,-4.2715,-4.269,0.0,0.0,0.0,-4.319,-4.3541,-4.3813,-4.4318,-4.4613,-4.4668,-4.4668,-4.4356,-4.3781,-4.3232,-4.2657,-4.2133,-4.1507,-4.1925,-4.2579,-4.2004,-4.2213,-4.2683,-4.2683,-4.2683,-4.2735,-4.2971,-4.3023,-4.2971,-4.2735,-4.2605,-4.2552,-4.2657,-4.2579,-4.2605,-4.2944,-4.3023,-4.3023,-4.3023,-4.2552,-4.2291,-4.2631,-4.1899,-4.1428,-4.1794,-4.2031,-4.1967,-4.1348,-4.1324,-4.1324,-4.1324,-4.1324,-4.1547,-4.2137,-4.1647,-4.1597,-4.2186,-4.2186,-4.2186,-4.2186,-4.2819,-4.3321,-4.3701,-4.3701,-4.3937,-4.4312,-4.5326,-4.5779,-3.2391,-3.346,-3.3857,-3.2874,-3.1984,-3.1132,0.0,0.0,0.0,-3.0037,-3.0088,-3.0266,-3.0898,-3.0495,-3.0305,-3.0898,-3.033,-3.0452,-3.2363,0.0,0.0,0.0,0.0,0.0,0.0,0.0,0.0,0.0,0.0,0.0,0.0,-4.3564,-4.3388,-4.2986,-4.2986,-4.2986,-4.2986,-4.2986,-4.2886,-4.2791,-4.2911,-4.2886,-4.2791,-4.2911,-4.2986,-4.2986,0.0,0.0,0.0,-4.3764,-4.4064,-4.4313,-4.4613,-4.4668,-4.4668,-4.4668,-4.4356,-4.3781,-4.3232,-4.2657,-4.2133,-4.1507,-4.2082,-4.2944,-4.2552,-4.2814,-4.3284,-4.3284,-4.3389,-4.352,-4.352,-4.352,-4.3493,-4.331,-4.3101,-4.2997,-4.3232,-4.3075,-4.3049,-4.3441,-4.352,-4.3625,-4.394,-4.3309,-4.2969,-4.3597,-4.2933,-4.2431,-4.2854,-4.3431,-4.3551,-4.2869,-4.277,-4.2488,-4.1796,-4.172,-4.2137,-4.3177,-4.2577,-4.2479,-4.3225,-4.3225,-4.3225,-4.3225,-4.3937,-4.4452,-4.473,-4.473,-4.4915,-4.519,-4.5943,-4.6255,-3.1922,-3.2648,-3.2853,-3.187,-3.1225,-3.0767,0.0,0.0,-2.9935,-3.0823,-3.0973,-3.0973,-3.0973,-3.0973,-3.0973,-3.0973,-3.0811,0.0,-3.188,0.0,0.0,0.0,0.0,0.0,0.0,0.0,0.0,0.0,0.0,0.0,0.0,-4.2986,-4.2986,-4.2986,-4.2986,-4.2986,-4.2986,-4.2986,-4.271,-4.2213,-4.2766,-4.274,-4.2238,-4.2791,-4.2986,0.0,0.0,0.0,0.0,-4.3764,-4.4064,-4.4313,-4.4613,-4.4668,-4.4668,-4.4668,-4.4356,-4.3781,-4.3232,-4.2657,-4.2133,-4.1507,-4.2082,-4.3023,-4.3023,-4.3415,-4.3912,-4.3912,-4.4278,-4.4642,-4.4642,-4.4642,-4.4565,-4.399,-4.4278,-4.4539,-4.399,-4.4304,-4.4696,-4.4642,-4.4642,-4.502,-4.6137,-4.4996,-4.4256,-4.5324,-4.4936,-4.4606,-4.4556,-4.5573,-4.6256,-4.6256,-4.6236,-4.5295,-4.297,-4.2792,-4.3225,-4.4219,-4.4266,-4.4266,-4.4266,-4.4266,-4.4266,-4.4266,-4.4312,-4.4776,-4.5779,-4.5779,-4.6299,-4.7266,-4.7266,-4.7266,-3.1315,-3.2229,-3.2732,-3.2038,-3.1705,-3.1423,-3.1031,0.0,-3.0672,-3.0936,-3.0973,-3.0973,-3.0973,-3.0973,-3.0973,-3.0973,-3.071,-3.0701,0.0,0.0,0.0,0.0,0.0,0.0,0.0,0.0,0.0,0.0,0.0,0.0,0.0,0.0,-4.2464,-4.2464,-4.2841,-4.2785,-4.2464,-4.2841,-4.2886,-4.2766,-4.2886,-4.2886,-4.2766,-4.2886,0.0,0.0,0.0,0.0,0.0,-4.3844,-4.4148,-4.4559,-4.4668,-4.4668,-4.4668,-4.4668,-4.4356,-4.3833,-4.3676,-4.2971,-4.2185,-4.1951,-4.2134,-4.25,-4.2892,-4.3702,-4.446,-4.446,-4.4591,-4.4668,-4.4668,-4.4668,-4.4696,-4.4487,-4.4304,-4.4199,-4.4408,-4.4278,-4.4251,-4.4643,-4.5342,-4.5715,-4.5288,-4.5703,-4.6099,-4.6125,-4.5917,-4.5888,-4.6256,-4.6906,-4.7081,-4.6381,-4.6938,-4.6548,-4.4682,-4.4502,-4.4734,-4.531,-4.4684,-4.4638,-4.5281,-4.5326,-4.5326,-4.5326,-4.5987,-4.6506,-4.6814,-4.6814,-4.6975,-4.7309,-4.7309,-4.7309,0.0,-3.1725,-3.2103,-3.16,-3.1534,0.0,0.0,0.0,0.0,-3.0973,-3.0973,-3.0973,-3.0973,-3.0973,-3.0973,-3.0973,-3.0672,0.0,0.0,0.0,0.0,0.0,0.0,0.0,0.0,0.0,0.0,0.0,0.0,0.0,0.0,0.0,-4.2283,-4.1856,-4.2384,-4.2665,-4.2514,-4.2811,-4.2861,-4.2715,-4.2886,-4.2861,-4.274,-4.2942,0.0,0.0,0.0,0.0,0.0,-4.401,-4.4313,-4.4668,-4.4668,-4.4591,-4.4408,-4.4408,-4.3912,-4.3311,-4.3467,-4.2944,-4.2238,-4.2422,-4.2631,-4.2918,-4.3493,-4.4173,-4.4668,-4.4668,-4.4668,-4.4668,-4.4668,-4.4668,-4.4668,-4.4668,-4.446,-4.4278,-4.4643,-4.4434,-4.4304,-4.467,-4.5609,-4.6321,-4.6006,-4.6795,-4.7494,-4.7582,-4.7596,-4.7669,-4.8019,-4.8682,-4.8828,-4.823,-4.8734,-4.8565,-4.7286,-4.6375,-4.6016,-4.6358,-4.5808,-4.5718,-4.6344,-4.6344,-4.6344,-4.6344,-4.6975,-4.7309,-4.7309,-4.7309,-4.7309,-4.7309,-4.7309,-4.7309,0.0,-3.1167,0.0,0.0,0.0,0.0,0.0,0.0,0.0,-3.0973,-3.0973,-3.0973,-3.0973,-3.0973,-3.0999,-3.0999,-3.066,0.0,0.0,0.0,0.0,0.0,0.0,0.0,0.0,0.0,0.0,0.0,0.0,0.0,0.0,0.0,-4.2359,-4.1326,-4.1806,-4.2338,-4.2811,-4.2836,-4.261,-4.2162,-4.261,-4.2585,-4.2162,-4.2635,0.0,0.0,0.0,0.0,0.0,-4.4203,-4.4476,-4.4668,-4.4696,-4.433,-4.3912,-4.3833,-4.3206,-4.2317,-4.2892,-4.2709,-4.2368,-4.284,-4.3415,-4.3964,-4.4513,-4.4696,-4.4668,-4.4668,-4.4668,-4.4668,-4.4668,-4.4668,-4.4668,-4.4668,-4.4668,-4.4668,-4.4668,-4.4668,-4.4722,-4.483,-4.5768,-4.6816,-4.7813,-4.8117,-4.8546,-4.9464,-4.9659,-4.9708,-4.9708,-5.0555,-5.1229,-5.1229,-5.1229,-5.096,-5.0255,-4.8257,-4.715,-4.7445,-4.7399,-4.7369,-4.7369,-4.7339,-4.7309,-4.7309,-4.7369,-4.7369,-4.7309,-4.7369,-4.7369,-4.7309,-4.7369,-4.7369,-3.1021,0.0,-3.1033,-3.0944,-3.0971,-3.097,0.0,0.0,0.0,0.0,0.0,0.0,0.0,-3.0887,-3.0773,-3.0773,0.0,0.0,0.0,0.0,0.0,0.0,0.0,0.0,0.0,0.0,0.0,0.0,0.0,0.0,0.0,0.0,-4.1178,-4.1275,-4.1053,-4.0953,-4.1103,-4.1505,-4.1656,-4.153,-4.1656,-4.1656,-4.153,-4.1656,0.0,0.0,0.0,0.0,-4.3259,-4.4023,-4.4476,-4.4696,-4.4251,-4.399,-4.3807,-4.3389,-4.3049,-4.2892,-4.3467,-4.3284,-4.284,-4.2971,-4.3415,-4.3885,-4.4042,-4.4382,-4.4668,-4.4668,-4.4668,-4.4668,-4.4668,-4.4668,-4.4668,-4.4668,-4.4668,-4.4668,-4.4668,-4.4668,-4.4992,-4.5821,-4.6867,-4.7712,-4.7965,-4.9337,-5.0268,-4.9659,-5.0316,-5.0822,-5.0822,-5.1011,-5.1229,-5.1229,-5.1229,-5.096,-5.0255,-4.9713,-4.9266,-4.8835,-4.8327,-4.8057,-4.8057,-4.7578,-4.7309,-4.7309,-4.7788,-4.7818,-4.7309,-4.7818,-4.7788,-4.7309,-4.7818,-4.8057,-3.0973,-3.0973,-3.0973,-3.0973,-3.0973,-3.0973,-3.0973,0.0,0.0,0.0,0.0,0.0,0.0,0.0,0.0,0.0,0.0,0.0,0.0,0.0,0.0,0.0,0.0,0.0,0.0,0.0,0.0,0.0,0.0,0.0,0.0,0.0,-4.0902,-4.0899,-4.0676,-4.0651,-4.0849,-4.1125,-4.1275,-4.1275,-4.1275,-4.1275,-4.1275,-4.1275,0.0,0.0,0.0,0.0,-4.2697,-4.3407,-4.3804,-4.3912,-4.3598,-4.331,-4.3101,-4.2735,-4.2474,-4.2369,-4.318,-4.3624,-4.3807,-4.3807,-4.4016,-4.4278,-4.4278,-4.4487,-4.4668,-4.4668,-4.4668,-4.4668,-4.4668,-4.4668,-4.483,-4.5342,-4.51,-4.483,-4.5342,-4.5502,-4.5662,-4.6269,-4.7689,-4.8745,-4.8745,-5.0124,-5.1011,-5.0412,-5.0822,-5.1229,-5.1229,-5.1229,-5.1229,-5.1229,-5.1229,-5.1079,-5.0674,-5.0644,-5.0272,-4.9359,-4.897,-4.8745,-4.8745,-4.8117,-4.7758,-4.7758,-4.8386,-4.8566,-4.8207,-4.8566,-4.8566,-4.8207,-4.8566,-4.8745,-3.0973,-3.0973,-3.0973,-3.0973,-3.0973,-3.0973,-3.0973,0.0,0.0,0.0,0.0,0.0,0.0,0.0,0.0,0.0,0.0,0.0,0.0,0.0,0.0,0.0,0.0,0.0,0.0,0.0,0.0,0.0,0.0,0.0,0.0,0.0,0.0,-4.04,-4.04,-4.0626,-4.1025,-4.1025,-4.1025,-4.1025,-4.1025,-4.1025,-4.1025,-4.1025,-4.1078,0.0,0.0,0.0,-4.216,-4.2788,-4.3023,-4.3023,-4.2918,-4.2605,-4.2211,-4.2133,-4.1847,-4.1742,-4.2892,-4.3858,-4.4668,-4.4668,-4.4668,-4.4668,-4.4668,-4.4668,-4.4668,-4.4668,-4.4668,-4.4668,-4.4668,-4.4668,-4.4938,-4.59,-4.5395,-4.4992,-4.6164,-4.6374,-4.6478,-4.6843,-4.8346,-4.9659,-4.9834,-5.0632,-5.1229,-5.1229,-5.1229,-5.1229,-5.1229,-5.1229,-5.1229,-5.1229,-5.1229,-5.1259,-5.1349,-5.1289,-5.078,-4.9808,-4.9569,-4.9419,-4.9299,-4.876,-4.8446,-4.8446,-4.9075,-4.9419,-4.9299,-4.9419,-4.9419,-4.9299,-4.9419,-4.9404,-3.0973,-3.0973,-3.0973,-3.0973,-3.0973,-3.0973,-3.0973,-3.0973,0.0,0.0,0.0,0.0,0.0,0.0,0.0,0.0,0.0,0.0,0.0,0.0,0.0,0.0,0.0,0.0,0.0,0.0,0.0,0.0,0.0,0.0,0.0,0.0,0.0,-3.9823,-3.9823,-3.9848,-3.9948,-3.9948,-3.9948,-3.9948,-3.9948,-3.9948,-3.9948,-3.9948,-4.0079,0.0,0.0,-4.1621,-4.1931,-4.2684,-4.3023,-4.2971,-4.25,-4.229,-4.2159,-4.1638,-4.2004,-4.2918,-4.4015,-4.4537,-4.4668,-4.4668,-4.4668,-4.4668,-4.4668,-4.4668,-4.4668,-4.4668,-4.4668,-4.4668,-4.4668,-4.4668,-4.4722,-4.4938,-4.483,-4.4992,-4.6164,-4.6374,-4.6947,-4.8774,-4.9366,-4.9883,-5.0822,-5.1058,-5.1229,-5.1229,-5.1229,-5.1229,-5.1229,-5.1229,-5.1229,-5.1229,-5.1229,-5.1439,-5.2007,-5.1528,-5.1379,-5.1738,-5.069,-4.9853,-4.9329,-4.9209,-4.9179,-4.9179,-4.9763,-4.9823,-4.9299,-4.9823,-4.9793,-4.9329,-4.9823,-5.0046,-3.0973,-3.0973,-3.0973,-3.0973,-3.0973,-3.0973,-3.0973,-3.1235,0.0,0.0,0.0,0.0,0.0,0.0,0.0,0.0,0.0,0.0,0.0,0.0,0.0,0.0,0.0,0.0,0.0,0.0,0.0,0.0,0.0,0.0,0.0,0.0,0.0,0.0,-3.9697,-3.9697,-3.9697,-3.9697,-3.9697,-3.9697,-3.9697,-3.9697,-3.9697,-3.9697,-3.9826,-4.0134,0.0,-4.1106,-4.1361,-4.1876,-4.2108,-4.2082,-4.1821,-4.1716,-4.1716,-4.1768,-4.25,-4.3546,-4.4095,-4.446,-4.4668,-4.4668,-4.4668,-4.4668,-4.4668,-4.4668,-4.4668,-4.4668,-4.4668,-4.4668,-4.4668,-4.5127,-4.5741,-4.6347,-4.6503,-4.6816,-4.7892,-4.8145,-4.8396,-4.9415,-5.0076,-5.0632,-5.1135,-5.1229,-5.1229,-5.1229,-5.1229,-5.1229,-5.1229,-5.1229,-5.1229,-5.1229,-5.1528,-5.1887,-5.2187,-5.2247,-5.2097,-5.1708,-5.1109,-5.0435,-4.9823,-5.0122,-5.0152,-4.9793,-5.0421,-5.0631,-5.0331,-5.0631,-5.0601,-5.0331,-5.0631,-5.0734,-3.0973,-3.0973,-3.0973,-3.0973,-3.0973,-3.1026,-3.1156,-3.1522,-3.185,0.0,0.0,0.0,0.0,0.0,0.0,0.0,0.0,0.0,0.0,0.0,0.0,0.0,0.0,0.0,0.0,0.0,0.0,0.0,0.0,0.0,0.0,0.0,0.0,0.0,-3.9697,-3.9697,-3.9697,-3.9697,-3.9697,-3.9697,-3.9697,-3.9697,-3.9697,-3.98,-3.9929,-4.0236,-4.0491,-4.0744,-4.0997,-4.1198,-4.1324,-4.1324,-4.1324,-4.1402,-4.1585,-4.216,-4.2997,-4.3939,-4.4016,-4.4356,-4.4668,-4.4668,-4.4668,-4.4668,-4.4668,-4.4668,-4.4668,-4.4668,-4.4884,-4.51,-4.51,-4.5768,-4.6687,-4.7712,-4.8016,-4.8296,-4.9366,-4.9611,-4.9659,-4.9931,-5.0632,-5.1259,-5.1439,-5.1319,-5.1259,-5.1439,-5.1319,-5.1229,-5.1229,-5.1349,-5.1439,-5.1439,-5.2037,-5.2366,-5.2217,-5.2785,-5.2606,-5.1289,-5.1229,-5.0943,-5.0435,-5.096,-5.0943,-5.0435,-5.096,-5.1229,-5.1229,-5.1229,-5.1229,-5.1229,-5.1229,-5.1229,-3.0973,-3.0973,-3.0973,-3.0973,-3.0973,-3.113,-3.1615,-3.1771,0.0,-3.2515,0.0,0.0,0.0,0.0,0.0,0.0,0.0,0.0,0.0,0.0,0.0,0.0,0.0,0.0,0.0,0.0,0.0,0.0,0.0,0.0,0.0,0.0,0.0,0.0,0.0,-3.9697,-3.9697,-3.9697,-3.9697,-3.9697,-3.9697,-3.9697,-3.9697,-3.9981,-4.0236,-4.0517,-4.0744,-4.1047,-4.1274,-4.1274,-4.1324,-4.1324,-4.1324,-4.1638,-4.2186,-4.2735,-4.3337,-4.3938,-4.4487,-4.4696,-4.4668,-4.4668,-4.4668,-4.4668,-4.4668,-4.4668,-4.4668,-4.4668,-4.5449,-4.6269,-4.6269,-4.6321,-4.6687,-4.7712,-4.8016,-4.8296,-4.9366,-4.9611,-4.9883,-5.087,-5.1182,-5.1409,-5.2037,-5.1618,-5.1439,-5.2037,-5.1618,-5.1229,-5.1229,-5.1738,-5.2127,-5.2127,-5.2725,-5.2875,-5.2247,-5.2785,-5.2606,-5.1289,-5.1229,-5.1199,-5.1139,-5.1199,-5.1199,-5.1139,-5.1199,-5.1229,-5.1229,-5.1229,-5.1229,-5.1229,-5.1229,-5.1229,-3.0973,-3.0973,-3.0973,-3.0973,-3.0973,0.0,0.0,-3.2774,-3.3264,-3.3513,-3.427,0.0,0.0,0.0,0.0,0.0,0.0,0.0,0.0,0.0,0.0,0.0,0.0,0.0,0.0,0.0,0.0,0.0,0.0,0.0,0.0,0.0,0.0,0.0,0.0,-3.9697,-3.9697,-3.9697,-3.9697,-3.9697,-3.9697,-3.9697,-3.9697,-3.9981,-4.0236,-4.0517,-4.0795,-4.1047,-4.1324,-4.1324,-4.1324,-4.135,-4.1716,-4.2186,-4.2762,-4.3337,-4.3912,-4.4434,-4.4643,-4.4668,-4.4668,-4.4668,-4.4668,-4.4668,-4.4668,-4.4668,-4.483,-4.5555,-4.6058,-4.6374,-4.6374,-4.7383,-4.8496,-4.8894,-4.9484,-5.0095,-5.0508,-5.0555,-5.0728,-5.1105,-5.1558,-5.1768,-5.1618,-5.1708,-5.1917,-5.2157,-5.1648,-5.1498,-5.2336,-5.2306,-5.2366,-5.2755,-5.3414,-5.3713,-5.3473,-5.3683,-5.3234,-5.1917,-5.1439,-5.1229,-5.1229,-5.1229,-5.1229,-5.1229,-5.1229,-5.1229,-5.1229,-5.1229,-5.1439,-5.1828,-5.1828,-5.2067,-3.0924,-3.0887,-3.0785,-3.0785,0.0,0.0,-3.2734,-3.3519,-3.4159,-3.4787,-3.5429,0.0,0.0,0.0,0.0,0.0,0.0,0.0,0.0,0.0,0.0,0.0,0.0,0.0,0.0,0.0,0.0,0.0,0.0,0.0,0.0,0.0,0.0,0.0,0.0,-3.9697,-3.9697,-3.9697,-3.9697,-3.9697,-3.9697,-3.9697,-3.9697,-4.0083,-4.0338,-4.0491,-4.0846,-4.1147,-4.1324,-4.1324,-4.1324,-4.135,-4.1742,-4.2369,-4.3075,-4.3467,-4.4095,-4.4668,-4.4668,-4.4668,-4.4668,-4.4668,-4.4668,-4.4668,-4.4668,-4.4938,-4.5395,-4.6164,-4.6895,-4.7383,-4.7383,-4.8496,-4.9659,-5.0028,-5.068,-5.1289,-5.1498,-5.1528,-5.1588,-5.1798,-5.2187,-5.2426,-5.2217,-5.2366,-5.2576,-5.2815,-5.2276,-5.2157,-5.3054,-5.2965,-5.3084,-5.3743,-5.4251,-5.4431,-5.4221,-5.4221,-5.3623,-5.2276,-5.1977,-5.1648,-5.1229,-5.1409,-5.1528,-5.1528,-5.1738,-5.1828,-5.1828,-5.1828,-5.2067,-5.2516,-5.2516,-5.2755,-3.0698,-3.052,-3.0406,0.0,0.0,0.0,-3.3341,-3.3852,-3.4495,-3.6225,-3.5808,-3.5288,-3.5801,0.0,0.0,0.0,0.0,0.0,0.0,0.0,0.0,0.0,0.0,0.0,0.0,0.0,0.0,0.0,0.0,0.0,0.0,0.0,0.0,0.0,0.0,0.0,-3.9697,-3.9697,-3.9697,-3.9697,-3.9697,-3.9697,-3.9749,-4.0262,-4.0517,-4.0542,-4.1073,-4.1324,-4.1324,-4.1324,-4.1324,-4.1324,-4.1324,-4.203,-4.3023,-4.3023,-4.3755,-4.4668,-4.4668,-4.4722,-4.4668,-4.4668,-4.4668,-4.4668,-4.4722,-4.5502,-4.6374,-4.6426,-4.7943,-4.9611,-4.9611,-4.9611,-4.9883,-5.0964,-5.1229,-5.1409,-5.2067,-5.2187,-5.2396,-5.3054,-5.3174,-5.3414,-5.4072,-5.3653,-5.3414,-5.4102,-5.3623,-5.3174,-5.3204,-5.3773,-5.4461,-5.5119,-5.5179,-5.491,-5.4281,-5.4221,-5.3653,-5.2306,-5.2815,-5.2606,-5.1289,-5.1858,-5.2217,-5.2217,-5.2845,-5.3174,-5.3174,-5.3174,-5.3174,-5.3204,-5.3204,-5.3204,-3.0698,-3.052,0.0,-3.0406,0.0,0.0,0.0,-3.3947,0.0,0.0,-3.6282,-3.5743,0.0,0.0,0.0,0.0,0.0,0.0,0.0,0.0,0.0,0.0,0.0,0.0,0.0,0.0,0.0,0.0,0.0,0.0,0.0,0.0,0.0,0.0,0.0,0.0,-3.9697,-3.9697,-3.9697,-3.9697,-3.9878,-3.9981,-3.9981,-4.0338,-4.0593,-4.0795,-4.1147,-4.1324,-4.1324,-4.1324,-4.1324,-4.135,-4.1768,-4.2108,-4.2474,-4.2866,-4.3493,-4.4121,-4.4121,-4.4382,-4.4668,-4.4668,-4.4668,-4.483,-4.5662,-4.6111,-4.6739,-4.8195,-4.912,-4.9757,-5.0508,-5.0728,-5.0822,-5.1105,-5.1229,-5.1409,-5.2067,-5.2187,-5.2396,-5.3054,-5.3563,-5.3832,-5.3533,-5.3713,-5.3982,-5.4192,-5.3623,-5.3354,-5.3832,-5.4491,-5.497,-5.5179,-5.5179,-5.491,-5.4281,-5.464,-5.4311,-5.2965,-5.3533,-5.3294,-5.1977,-5.2546,-5.2875,-5.2875,-5.3084,-5.3174,-5.3174,-5.3174,-5.3443,-5.3892,-5.3892,-5.4162,-3.047,-3.0318,0.0,-3.0419,-3.1269,-3.2438,-3.3784,0.0,0.0,0.0,0.0,0.0,0.0,0.0,0.0,0.0,0.0,0.0,0.0,0.0,0.0,0.0,0.0,0.0,0.0,0.0,0.0,0.0,0.0,0.0,0.0,0.0,0.0,0.0,0.0,0.0,-3.9371,-3.9597,-3.9697,-3.9697,-3.9981,-4.0185,-4.0287,-4.0542,-4.0744,-4.0896,-4.1147,-4.1324,-4.1324,-4.1324,-4.1324,-4.135,-4.169,-4.1977,-4.2264,-4.2552,-4.3049,-4.3625,-4.4309,-4.4467,-4.4569,-4.5661,-4.5688,-4.5609,-4.6712,-4.7331,-4.7943,-4.9219,-4.9931,-5.0364,-5.1011,-5.1229,-5.1229,-5.1229,-5.1229,-5.1409,-5.2067,-5.2396,-5.2785,-5.3473,-5.4132,-5.4461,-5.4042,-5.4311,-5.461,-5.461,-5.4251,-5.4132,-5.4551,-5.494,-5.5179,-5.5179,-5.5179,-5.5029,-5.464,-5.497,-5.473,-5.3653,-5.4221,-5.4132,-5.3054,-5.3384,-5.3593,-5.3593,-5.3862,-5.3982,-5.3982,-5.3982,-5.4192,-5.461,-5.461,-5.482,-3.0164,0.0,0.0,-3.0482,-3.1486,0.0,0.0,0.0,0.0,0.0,0.0,0.0,0.0,0.0,0.0,0.0,0.0,0.0,0.0,0.0,0.0,0.0,0.0,0.0,0.0,0.0,0.0,0.0,0.0,0.0,0.0,0.0,0.0,0.0,0.0,0.0,-3.8844,-3.9397,-3.9673,0.0,-4.0109,-4.0389,-4.0542,-4.0896,-4.1021,-4.1071,-4.1348,-4.1448,-4.1448,-4.1448,-4.1448,-4.1448,-4.1448,-4.1738,-4.2133,-4.2235,-4.2602,-4.3308,-4.4897,-4.4855,-4.4493,-4.7077,-4.7248,-4.6657,-4.7813,-4.8844,-4.9611,-4.9708,-5.046,-5.1229,-5.1229,-5.1229,-5.1229,-5.1229,-5.1259,-5.1468,-5.2067,-5.2725,-5.3384,-5.4072,-5.47,-5.5119,-5.5179,-5.5179,-5.5179,-5.5179,-5.5179,-5.5179,-5.5179,-5.5179,-5.5179,-5.5179,-5.5179,-5.5179,-5.5179,-5.5179,-5.494,-5.4341,-5.485,-5.491,-5.4311,-5.4311,-5.4311,-5.4311,-5.488,-5.5179,-5.5179,-5.5179,-5.5179,-5.5179,-5.5179,-5.5179,-3.0126,-2.9934,0.0,0.0,-3.2089,0.0,0.0,0.0,0.0,0.0,0.0,0.0,0.0,0.0,0.0,0.0,0.0,0.0,0.0,0.0,0.0,0.0,0.0,0.0,0.0,0.0,0.0,0.0,0.0,0.0,0.0,0.0,0.0,0.0,0.0,-3.8316,-3.8191,-3.8969,-3.9373,0.0,-4.1086,-4.1495,-4.0846,-4.1693,-4.2159,-4.2404,-4.2452,-4.2479,-4.2479,-4.2479,-4.2479,-4.2479,-4.2479,-4.2096,-4.1581,-4.2373,-4.3045,-4.3733,-4.4851,-4.5406,-4.5757,-4.6867,-4.7063,-4.7147,-4.8751,-4.9415,-4.9757,-5.0632,-5.1011,-5.1229,-5.1229,-5.1229,-5.1229,-5.1229,-5.1618,-5.2037,-5.2187,-5.2725,-5.3384,-5.4072,-5.4311,-5.4581,-5.5089,-5.5179,-5.5179,-5.5179,-5.5179,-5.5179,-5.5179,-5.5179,-5.5179,-5.5179,-5.5179,-5.5179,-5.5179,-5.5179,-5.5119,-5.4999,-5.5119,-5.5119,-5.497,-5.497,-5.497,-5.497,-5.5119,-5.5179,-5.5179,-5.5179,-5.5179,-5.5179,-5.5179,-5.5179,-2.9972,0.0,0.0,-3.111,0.0,0.0,0.0,0.0,0.0,0.0,0.0,0.0,0.0,0.0,0.0,0.0,0.0,0.0,0.0,0.0,0.0,0.0,0.0,0.0,0.0,0.0,0.0,0.0,0.0,0.0,0.0,0.0,0.0,0.0,-3.7864,-3.7889,-3.7613,-3.8339,-3.8716,-3.8865,-4.057,-4.1609,-4.2049,-4.1906,-4.1967,-4.2088,-4.2598,-4.2792,-4.2792,-4.2792,-4.2792,-4.2792,-4.2792,-4.2479,-4.2137,-4.3129,-4.3704,-4.418,-4.5534,-4.5817,-4.5898,-4.7559,-4.7961,-4.8055,-4.9443,-5.0129,-5.046,-5.1011,-5.1229,-5.1229,-5.1229,-5.1229,-5.1229,-5.1229,-5.1468,-5.1738,-5.1738,-5.2486,-5.3204,-5.3234,-5.4012,-5.47,-5.473,-5.497,-5.5179,-5.5179,-5.5179,-5.5179,-5.5179,-5.5179,-5.5179,-5.5179,-5.5179,-5.5179,-5.5179,-5.5179,-5.5179,-5.5179,-5.5179,-5.5179,-5.5179,-5.5179,-5.5179,-5.5179,-5.5179,-5.5179,-5.5179,-5.5179,-5.5179,-5.5179,-5.5179,-5.5179,-2.9856,0.0,-3.0306,-3.1838,0.0,0.0,0.0,0.0,0.0,0.0,0.0,0.0,0.0,0.0,0.0,0.0,0.0,0.0,0.0,0.0,0.0,0.0,0.0,0.0,0.0,0.0,0.0,0.0,0.0,0.0,0.0,0.0,-3.7513,-3.7109,-3.7487,-3.7513,-3.7036,-3.7686,-3.811,-3.8331,-3.9707,-4.1338,-4.3108,-4.2124,-4.169,-4.1868,-4.2722,-4.3177,-4.3293,-4.3293,-4.3293,-4.3293,-4.3293,-4.3225,-4.3177,-4.4219,-4.4545,-4.4787,-4.6326,-4.6316,-4.5985,-4.834,-4.8857,-4.8741,-4.9875,-5.0584,-5.1079,-5.1199,-5.1229,-5.1229,-5.1229,-5.1229,-5.1229,-5.1229,-5.1319,-5.1379,-5.1379,-5.2247,-5.2875,-5.2456,-5.3803,-5.488,-5.4461,-5.482,-5.5179,-5.5179,-5.5179,-5.5179,-5.5179,-5.5179,-5.5179,-5.5179,-5.5179,-5.5179,-5.5179,-5.5179,-5.5179,-5.5179,-5.5179,-5.5179,-5.5179,-5.5179,-5.5239,-5.5359,-5.5239,-5.5179,-5.5179,-5.5179,-5.5179,-5.5179,-5.5179,-5.5179,0.0,0.0,-3.0783,0.0,0.0,0.0,0.0,0.0,0.0,0.0,0.0,0.0,0.0,0.0,0.0,0.0,0.0,0.0,0.0,0.0,0.0,0.0,0.0,0.0,0.0,0.0,0.0,0.0,0.0,0.0,0.0,-3.6631,-3.6606,-3.6531,-3.6581,-3.6581,-3.6505,-3.7515,-3.8012,-3.806,-3.9994,-4.1517,-4.2626,-4.2924,-4.3343,-4.389,-4.4031,-4.4563,-4.5417,-4.5417,-4.5417,-4.5417,-4.5417,-4.4869,-4.4219,-4.5235,-4.5598,-4.5763,-4.6845,-4.7167,-4.7169,-4.8118,-4.8387,-4.8567,-4.9837,-5.0255,-5.0435,-5.105,-5.1229,-5.1229,-5.1229,-5.1229,-5.1229,-5.1229,-5.1648,-5.2067,-5.2067,-5.2217,-5.2486,-5.2965,-5.3743,-5.4491,-5.497,-5.5119,-5.5179,-5.5179,-5.5179,-5.5179,-5.5179,-5.5179,-5.5179,-5.5179,-5.5179,-5.5179,-5.5179,-5.5179,-5.5179,-5.5179,-5.5179,-5.5179,-5.5179,-5.5179,-5.5448,-5.6068,-5.5478,-5.5179,-5.5179,-5.5179,-5.5179,-5.5179,-5.5179,-5.5179,-2.9804,-3.0206,-3.0809,0.0,0.0,0.0,0.0,0.0,0.0,0.0,0.0,0.0,0.0,0.0,0.0,0.0,0.0,0.0,0.0,0.0,0.0,0.0,0.0,0.0,0.0,0.0,0.0,0.0,0.0,0.0,-3.6405,-3.6405,-3.6405,-3.6405,-3.6405,-3.6405,-3.6405,-3.6988,-3.7909,-3.9258,-4.0621,-4.1775,-4.2653,-4.2705,-4.3097,-4.376,-4.4744,-4.5372,-4.5779,-4.5779,-4.5779,-4.5779,-4.5779,-4.5553,-4.5281,-4.6255,-4.6638,-4.6682,-4.7149,-4.7309,-4.7369,-4.7638,-4.8237,-4.8925,-4.9523,-5.0212,-5.0794,-5.1139,-5.1229,-5.1229,-5.1229,-5.1229,-5.1319,-5.1678,-5.2007,-5.2306,-5.2665,-5.3054,-5.3533,-5.4192,-5.4251,-5.4431,-5.5089,-5.5179,-5.5179,-5.5179,-5.5179,-5.5179,-5.5179,-5.5179,-5.5179,-5.5179,-5.5179,-5.5179,-5.5179,-5.5179,-5.5179,-5.5179,-5.5179,-5.5359,-5.5718,-5.5748,-5.6047,-5.6675,-5.6077,-5.5927,-5.6256,-5.5897,-5.5748,-5.5718,-5.5359,-5.5388,0.0,0.0,0.0,0.0,0.0,0.0,0.0,0.0,0.0,0.0,0.0,0.0,0.0,0.0,0.0,0.0,0.0,0.0,0.0,0.0,0.0,0.0,0.0,0.0,0.0,0.0,0.0,0.0,0.0,0.0,-3.6405,-3.664,-3.664,-3.6405,-3.6687,-3.6734,-3.6405,-3.6896,-3.8198,-4.0318,-4.1211,-4.1953,-4.2589,-4.2754,-4.3165,-4.3865,-4.5033,-4.5768,-4.6166,-4.6166,-4.6166,-4.6166,-4.6166,-4.6166,-4.6255,-4.7019,-4.7309,-4.7309,-4.7309,-4.7309,-4.7339,-4.7489,-4.8207,-4.912,-4.9404,-5.0182,-5.0973,-5.1169,-5.1229,-5.1259,-5.1439,-5.1468,-5.1588,-5.2067,-5.2456,-5.2755,-5.2905,-5.3473,-5.4102,-5.4581,-5.4431,-5.4431,-5.5089,-5.5179,-5.5179,-5.5179,-5.5179,-5.5179,-5.5179,-5.5179,-5.5179,-5.5179,-5.5179,-5.5179,-5.5179,-5.5179,-5.5179,-5.5179,-5.5359,-5.5658,-5.6188,-5.6368,-5.6705,-5.7334,-5.6915,-5.6795,-5.7094,-5.6645,-5.6406,-5.6406,-5.5897,-5.5927,0.0,-2.9804,0.0,0.0,0.0,0.0,0.0,0.0,0.0,0.0,0.0,0.0,0.0,0.0,0.0,0.0,0.0,0.0,0.0,0.0,0.0,0.0,0.0,0.0,0.0,0.0,0.0,0.0,0.0,0.0,-3.6405,-3.7222,-3.7315,-3.6452,-3.7526,-3.7572,-3.6405,-3.775,-3.9166,-4.0603,-4.1548,-4.1993,-4.2104,-4.356,-4.4542,-4.5198,-4.4966,-4.5742,-4.7222,-4.7222,-4.7222,-4.7222,-4.7222,-4.7222,-4.7222,-4.7266,-4.7309,-4.7309,-4.7309,-4.7309,-4.7399,-4.8027,-4.8297,-4.8566,-4.9777,-5.0196,-5.0375,-5.1003,-5.1229,-5.1379,-5.1977,-5.2157,-5.2157,-5.2187,-5.3174,-5.3773,-5.2516,-5.2785,-5.3234,-5.3264,-5.3773,-5.4431,-5.5089,-5.5179,-5.5179,-5.5179,-5.5179,-5.5179,-5.5179,-5.5179,-5.5179,-5.5179,-5.5179,-5.5179,-5.5179,-5.5179,-5.5179,-5.5179,-5.5777,-5.6188,-5.6218,-5.6735,-5.7363,-5.8052,-5.8052,-5.7723,-5.7094,-5.7064,-5.7034,-5.7034,-5.7004,-5.7004,0.0,0.0,0.0,0.0,0.0,0.0,0.0,0.0,0.0,0.0,0.0,0.0,0.0,0.0,0.0,0.0,0.0,0.0,0.0,0.0,0.0,0.0,0.0,0.0,0.0,0.0,0.0,0.0,0.0,0.0,-3.758,-3.7936,-3.798,-3.7624,-3.784,-3.7913,-3.775,-3.9552,-4.0831,-4.1519,-4.2415,-4.282,-4.285,-4.3409,-4.4287,-4.5304,-4.5179,-4.5964,-4.7309,-4.7309,-4.7309,-4.7309,-4.7309,-4.7309,-4.7309,-4.7309,-4.7309,-4.7309,-4.7309,-4.7309,-4.7339,-4.7578,-4.8237,-4.906,-4.9464,-5.0212,-5.0853,-5.1139,-5.1528,-5.1917,-5.2127,-5.2516,-5.2935,-5.3384,-5.3862,-5.4072,-5.3593,-5.3683,-5.3832,-5.3832,-5.4371,-5.491,-5.5149,-5.5179,-5.5179,-5.5179,-5.5179,-5.5179,-5.5179,-5.5179,-5.5179,-5.5179,-5.5179,-5.5179,-5.5179,-5.5179,-5.5359,-5.5777,-5.6098,-5.6555,-5.7393,-5.7633,-5.8082,-5.874,-5.874,-5.862,-5.8381,-5.7962,-5.7752,-5.7752,-5.7304,-5.7334,-2.9804,0.0,0.0,0.0,0.0,0.0,0.0,0.0,0.0,0.0,0.0,0.0,0.0,0.0,0.0,0.0,0.0,0.0,0.0,0.0,0.0,0.0,0.0,0.0,0.0,0.0,0.0,0.0,0.0,0.0,-3.7903,-3.8273,-3.8486,-3.8598,-3.8263,-3.8425,-3.9262,-4.0802,-4.1864,-4.2456,-4.305,-4.329,-4.329,-4.329,-4.3888,-4.4975,-4.5185,-4.6052,-4.7309,-4.7309,-4.7309,-4.7309,-4.7309,-4.7309,-4.7309,-4.7309,-4.7309,-4.7309,-4.7309,-4.7309,-4.7339,-4.7549,-4.8386,-4.9359,-4.9523,-5.0361,-5.1229,-5.1229,-5.1678,-5.2247,-5.2486,-5.3025,-5.3683,-5.4371,-5.4371,-5.4221,-5.4221,-5.4221,-5.4221,-5.4221,-5.473,-5.5179,-5.5179,-5.5179,-5.5179,-5.5179,-5.5179,-5.5179,-5.5179,-5.5179,-5.5179,-5.5179,-5.5179,-5.5269,-5.5508,-5.5538,-5.5807,-5.6436,-5.6705,-5.7214,-5.8082,-5.8351,-5.865,-5.9099,-5.9099,-5.9099,-5.9099,-5.865,-5.8471,-5.8441,-5.7992,-5.8022,0.0,0.0,0.0,0.0,0.0,0.0,0.0,0.0,0.0,0.0,0.0,0.0,0.0,0.0,0.0,0.0,0.0,0.0,0.0,0.0,0.0,0.0,0.0,0.0,0.0,0.0,0.0,0.0,0.0,-3.7308,-3.7377,-3.8186,-3.883,-3.909,-3.8796,-3.9284,-4.0625,-4.1311,-4.2164,-4.326,-4.329,-4.329,-4.329,-4.329,-4.3648,-4.4347,-4.4975,-4.6022,-4.7279,-4.7309,-4.7309,-4.7309,-4.7309,-4.7309,-4.7309,-4.7309,-4.7309,-4.7309,-4.7309,-4.7309,-4.7429,-4.8057,-4.876,-4.9419,-5.0032,-5.0644,-5.1229,-5.1229,-5.1678,-5.2366,-5.3025,-5.3713,-5.4371,-5.5029,-5.47,-5.4251,-5.4251,-5.4251,-5.4221,-5.4221,-5.473,-5.5179,-5.5179,-5.5209,-5.5209,-5.5179,-5.5209,-5.5209,-5.5179,-5.5179,-5.5179,-5.5179,-5.5209,-5.5478,-5.6107,-5.6248,-5.6466,-5.7094,-5.7752,-5.8141,-5.8141,-5.877,-5.9099,-5.9099,-5.9099,-5.9099,-5.9099,-5.9099,-5.9099,-5.9099,-5.9099,-5.9099,-2.9804,0.0,0.0,0.0,0.0,0.0,0.0,0.0,0.0,0.0,0.0,0.0,0.0,0.0,0.0,0.0,0.0,0.0,0.0,0.0,0.0,0.0,0.0,0.0,0.0,0.0,0.0,0.0,-3.6872,-3.7494,-3.8609,-3.8914,-3.9036,-3.9021,-3.9326,-3.9582,-3.9894,-4.14,-4.2337,-4.2641,-4.312,-4.329,-4.329,-4.329,-4.3648,-4.4317,-4.4496,-4.5364,-4.6621,-4.71,-4.7309,-4.7309,-4.7309,-4.7309,-4.7309,-4.7309,-4.7309,-4.7309,-4.7309,-4.7309,-4.7339,-4.7519,-4.8356,-4.9329,-4.9494,-5.0331,-5.1229,-5.1229,-5.1678,-5.2456,-5.3623,-5.4072,-5.4371,-5.5029,-5.5059,-5.491,-5.491,-5.491,-5.479,-5.4311,-5.473,-5.5179,-5.5179,-5.5598,-5.5748,-5.5269,-5.5598,-5.5718,-5.5239,-5.5179,-5.5179,-5.5179,-5.5628,-5.5987,-5.6166,-5.6585,-5.7124,-5.7782,-5.8022,-5.8351,-5.88,-5.9009,-5.9099,-5.9099,-5.9099,-5.9099,-5.9099,-5.9099,-5.9099,-5.9099,-5.9099,-5.9099,-2.9804,-2.9804,-2.9804,0.0,0.0,0.0,0.0,-3.003,0.0,0.0,0.0,0.0,0.0,0.0,0.0,0.0,0.0,0.0,0.0,0.0,0.0,0.0,0.0,0.0,0.0,0.0,0.0,0.0,-3.726,-3.7816,-3.8716,-3.8859,-3.8851,-3.881,-3.9525,-3.9909,-3.9809,-4.1249,-4.2141,-4.241,-4.2761,-4.306,-4.329,-4.329,-4.3499,-4.3888,-4.4197,-4.4915,-4.5933,-4.6621,-4.707,-4.7309,-4.7309,-4.7309,-4.7309,-4.7309,-4.7309,-4.7309,-4.7309,-4.7309,-4.7369,-4.7638,-4.8416,-4.9359,-4.9583,-5.0391,-5.1229,-5.1229,-5.1678,-5.2516,-5.3862,-5.4221,-5.4371,-5.5029,-5.5179,-5.5179,-5.5179,-5.5179,-5.5089,-5.47,-5.494,-5.5179,-5.5179,-5.5748,-5.6098,-5.5658,-5.5927,-5.6047,-5.5658,-5.5359,-5.5179,-5.5179,-5.5777,-5.6286,-5.6526,-5.7154,-5.7812,-5.8501,-5.853,-5.871,-5.9099,-5.9099,-5.9099,-5.9099,-5.9099,-5.9099,-5.9099,-5.9099,-5.9099,-5.9099,-5.9099,-5.9099,-2.9893,-2.988,-2.9918,0.0,0.0,0.0,-3.0011,-2.9972,0.0,0.0,0.0,0.0,0.0,0.0,0.0,0.0,0.0,0.0,0.0,0.0,0.0,0.0,0.0,0.0,0.0,0.0,-3.7039,-3.7106,-3.7796,-3.824,-3.824,-3.8427,-3.8567,-3.8567,-3.9469,-4.0018,-4.0018,-4.086,-4.1602,-4.2171,-4.2321,-4.2671,-4.32,-4.326,-4.329,-4.3319,-4.3958,-4.4616,-4.5334,-4.5963,-4.6651,-4.7309,-4.7309,-4.7309,-4.7309,-4.7309,-4.7309,-4.7309,-4.7309,-4.7309,-4.7429,-4.8087,-4.876,-4.9419,-4.9986,-5.0644,-5.1229,-5.1229,-5.1648,-5.2396,-5.3743,-5.4102,-5.4281,-5.5029,-5.5179,-5.5179,-5.5179,-5.5179,-5.5179,-5.5179,-5.5179,-5.5179,-5.5179,-5.5748,-5.6188,-5.6128,-5.6188,-5.6188,-5.6128,-5.5538,-5.5179,-5.5179,-5.5777,-5.6406,-5.7034,-5.7723,-5.8411,-5.9069,-5.9099,-5.9099,-5.9099,-5.9099,-5.9099,-5.9099,-5.9099,-5.9099,-5.9099,-5.9099,-5.9099,-5.9099,-5.9099,-5.9099,0.0,0.0,0.0,0.0,0.0,0.0,-3.1474,-3.1145,0.0,0.0,0.0,0.0,0.0,0.0,0.0,0.0,0.0,0.0,0.0,0.0,0.0,0.0,0.0,0.0,0.0,0.0,-3.8014,-3.8165,-3.8501,-3.8612,-3.8456,-3.8612,-3.8833,-3.898,-3.9201,-3.9371,-3.9546,-4.021,-4.0666,-4.0786,-4.1901,-4.247,-4.262,-4.309,-4.329,-4.329,-4.3439,-4.4197,-4.5304,-4.5454,-4.6202,-4.7309,-4.7309,-4.7309,-4.7309,-4.7309,-4.7309,-4.7309,-4.7309,-4.7309,-4.7429,-4.8087,-4.876,-4.9419,-4.9986,-5.0644,-5.1229,-5.1229,-5.1319,-5.1708,-5.3025,-5.3384,-5.3683,-5.491,-5.5179,-5.5179,-5.5179,-5.5179,-5.5179,-5.5179,-5.5179,-5.5179,-5.5179,-5.5748,-5.6038,-5.5478,-5.5837,-5.6038,-5.5448,-5.5269,-5.5179,-5.5179,-5.5777,-5.6406,-5.7034,-5.7723,-5.8411,-5.9069,-5.9099,-5.9099,-5.9099,-5.9099,-5.9099,-5.9099,-5.9099,-5.9099,-5.9099,-5.9099,-5.9099,-5.9099,-5.9099,-5.9099,0.0,0.0,0.0,-3.2124,0.0,0.0,0.0,-3.1998,0.0,0.0,0.0,0.0,0.0,0.0,0.0,0.0,0.0,0.0,0.0,0.0,0.0,0.0,0.0,0.0,0.0,0.0,-3.8277,-3.8493,-3.8686,-3.876,-3.8649,-3.8833,-3.898,-3.909,-3.9192,-3.9301,-3.9373,-3.9738,-4.0068,-4.0397,-4.1414,-4.2081,-4.241,-4.303,-4.329,-4.329,-4.329,-4.3858,-4.4825,-4.5155,-4.5903,-4.686,-4.7189,-4.7309,-4.7309,-4.7309,-4.7309,-4.7309,-4.7309,-4.7309,-4.7429,-4.8087,-4.8506,-4.8955,-4.9897,-5.0644,-5.1229,-5.1229,-5.1229,-5.1528,-5.2845,-5.3174,-5.3533,-5.488,-5.5179,-5.5179,-5.5179,-5.5179,-5.5179,-5.5179,-5.5179,-5.5179,-5.5179,-5.5748,-5.6128,-5.5718,-5.5957,-5.6098,-5.5718,-5.5388,-5.5179,-5.5179,-5.6047,-5.6765,-5.7064,-5.8022,-5.874,-5.9069,-5.9099,-5.9099,-5.9099,-5.9099,-5.9099,-5.9099,-5.9099,-5.9099,-5.9099,-5.9099,-5.9099,-5.9099,-5.9099,-5.9099,0.0,0.0,0.0,0.0,0.0,-3.3919,0.0,0.0,0.0,0.0,0.0,0.0,0.0,0.0,0.0,0.0,0.0,0.0,0.0,0.0,0.0,0.0,0.0,0.0,0.0,0.0,-3.8389,-3.8567,-3.876,-3.8907,-3.887,-3.9053,-3.9156,-3.9156,-3.9301,-3.9373,-3.9373,-3.9373,-3.9679,-4.0217,-4.0876,-4.1572,-4.2231,-4.2851,-4.317,-4.329,-4.329,-4.3678,-4.4377,-4.5035,-4.5693,-4.6381,-4.704,-4.7309,-4.7309,-4.7309,-4.7309,-4.7309,-4.7309,-4.7309,-4.7429,-4.8087,-4.8446,-4.8895,-5.0016,-5.0764,-5.1229,-5.1229,-5.1229,-5.1498,-5.2665,-5.3084,-5.3503,-5.47,-5.5089,-5.5179,-5.5179,-5.5179,-5.5179,-5.5179,-5.5179,-5.5179,-5.5179,-5.5628,-5.5987,-5.5987,-5.5987,-5.5987,-5.5987,-5.5628,-5.5329,-5.5209,-5.6346,-5.7094,-5.7094,-5.8201,-5.8979,-5.9099,-5.9099,-5.9099,-5.9099,-5.9099,-5.9099,-5.9099,-5.9099,-5.9099,-5.9099,-5.9099,-5.9099,-5.9099,-5.9099,-5.9099,0.0,0.0,0.0,0.0,-3.5157,0.0,0.0,0.0,0.0,0.0,0.0,0.0,0.0,0.0,0.0,0.0,0.0,0.0,0.0,0.0,0.0,0.0,0.0,0.0,0.0,0.0,0.0,-3.876,-3.9119,-3.9265,-3.9053,-3.9265,-3.9373,-3.9373,-3.9373,-3.9373,-3.9373,-3.9373,-3.9469,-3.9493,-4.0187,-4.0846,-4.1542,-4.2201,-4.2791,-4.329,-4.329,-4.3678,-4.4377,-4.5035,-4.5693,-4.6381,-4.704,-4.7309,-4.7309,-4.7309,-4.7309,-4.7309,-4.7309,-4.7309,-4.7429,-4.8087,-4.9075,-5.0106,-5.0853,-5.1169,-5.1229,-5.1229,-5.1229,-5.1379,-5.2127,-5.2725,-5.3384,-5.4132,-5.476,-5.5179,-5.5179,-5.5179,-5.5179,-5.5179,-5.5179,-5.5179,-5.5179,-5.5239,-5.5299,-5.5299,-5.5299,-5.5299,-5.5299,-5.5748,-5.5837,-5.5239,-5.6346,-5.7094,-5.7094,-5.7782,-5.8471,-5.9069,-5.9099,-5.9099,-5.9099,-5.9099,-5.9099,-5.9099,-5.9099,-5.9099,-5.9099,-5.9099,-5.9099,-5.9099,-5.9099,-5.9099,0.0,0.0,0.0,0.0,0.0,0.0,-3.6375,0.0,-3.6215,0.0,0.0,0.0,0.0,0.0,0.0,0.0,0.0,0.0,0.0,0.0,0.0,0.0,0.0,0.0,0.0,0.0,0.0,0.0,0.0,-3.9337,-3.9265,-3.9337,-3.9373,-3.9373,-3.9373,-3.9373,-3.9373,-3.9373,-3.9373,-3.9403,-4.0098,-4.0756,-4.1414,-4.2111,-4.2731,-4.329,-4.329,-4.3439,-4.3768,-4.4436,-4.5125,-4.5783,-4.6471,-4.698,-4.7309,-4.7309,-4.7309,-4.7309,-4.7309,-4.7309,-4.7429,-4.8087,-4.8925,-4.9793,-5.0451,-5.0853,-5.1229,-5.1229,-5.1229,-5.1379,-5.2037,-5.2396,-5.2875,-5.3952,-5.4431,-5.473,-5.5119,-5.5179,-5.5179,-5.5179,-5.5179,-5.5179,-5.5179,-5.5179,-5.5179,-5.5179,-5.5179,-5.5179,-5.5179,-5.5448,-5.5658,-5.5748,-5.6555,-5.7244,-5.7663,-5.8291,-5.88,-5.9099,-5.9099,-5.9099,-5.9099,-5.9099,-5.9099,-5.9099,-5.9099,-5.9099,-5.9099,-5.9099,-5.9099,-5.9099,-5.9099,-5.9308,-3.5742,0.0,0.0,0.0,0.0,0.0,0.0,0.0,0.0,0.0,0.0,0.0,0.0,0.0,0.0,-3.7026,0.0,0.0,0.0,0.0,0.0,0.0,0.0,0.0,0.0,0.0,0.0,0.0,-3.9228,-3.9373,-3.9373,-3.9373,-3.9373,-3.9373,-3.9373,-3.9373,-3.9373,-3.9373,-3.9499,-3.9679,-3.9978,-4.0666,-4.1692,-4.1991,-4.2551,-4.329,-4.329,-4.329,-4.3349,-4.4007,-4.4706,-4.5364,-4.6052,-4.6741,-4.7309,-4.7309,-4.7309,-4.7309,-4.7309,-4.7429,-4.7668,-4.8327,-4.8985,-4.9643,-5.0301,-5.0794,-5.1229,-5.1229,-5.1229,-5.1319,-5.1798,-5.2067,-5.2456,-5.3414,-5.3803,-5.4102,-5.479,-5.491,-5.497,-5.5149,-5.5179,-5.5179,-5.5179,-5.5179,-5.5179,-5.5179,-5.5179,-5.5179,-5.5179,-5.5359,-5.5658,-5.6188,-5.6885,-5.7573,-5.8082,-5.871,-5.9099,-5.9099,-5.9099,-5.9099,-5.9099,-5.9099,-5.9099,-5.9099,-5.9099,-5.9099,-5.9099,-5.9099,-5.9099,-5.9099,-5.9099,-5.9368,0.0,0.0,0.0,-3.8165,0.0,0.0,0.0,0.0,-3.7999,0.0,0.0,0.0,0.0,0.0,-3.6387,-3.6593,-3.7155,0.0,0.0,0.0,0.0,0.0,0.0,0.0,0.0,0.0,0.0,-3.9373,-3.9373,-3.9373,-3.9373,-3.9373,-3.9373,-3.9373,-3.9373,-3.9373,-3.9373,-3.9373,-3.9738,-4.0367,-3.9738,-4.0457,-4.2351,-4.1722,-4.2132,-4.329,-4.329,-4.329,-4.3349,-4.4007,-4.4706,-4.5364,-4.6052,-4.6741,-4.7309,-4.7309,-4.7309,-4.7309,-4.7309,-4.7728,-4.8356,-4.906,-4.9673,-5.0285,-5.099,-5.1199,-5.1229,-5.1229,-5.1229,-5.1229,-5.1259,-5.1708,-5.2217,-5.2247,-5.2755,-5.3414,-5.4102,-5.4251,-5.4431,-5.5059,-5.5179,-5.5179,-5.5179,-5.5179,-5.5179,-5.5179,-5.5179,-5.5179,-5.5179,-5.5748,-5.6188,-5.6218,-5.7334,-5.8112,-5.8112,-5.871,-5.9099,-5.9099,-5.9099,-5.9099,-5.9099,-5.9099,-5.9099,-5.9099,-5.9099,-5.9099,-5.9099,-5.9099,-5.9099,-5.9099,-5.9099,-5.9129,0.0,0.0,-3.8202,-3.8202,0.0,0.0,0.0,0.0,0.0,0.0,0.0,0.0,0.0,-3.7709,-3.7637,-3.7821,-3.7711,-3.7651,0.0,0.0,0.0,0.0,0.0,0.0,0.0,0.0,0.0,-3.9192,-3.9301,-3.9373,0.0,-3.9373,-3.9373,-3.9373,-3.9373,-3.9373,-3.9373,-3.9858,-4.0187,-4.0397,-4.0606,-4.1294,-4.2381,-4.2171,-4.2491,-4.329,-4.329,-4.329,-4.3319,-4.3529,-4.4317,-4.5304,-4.5544,-4.6322,-4.7309,-4.7309,-4.7309,-4.7309,-4.7309,-4.7728,-4.8386,-4.909,-4.9703,-5.0315,-5.102,-5.1229,-5.1229,-5.1229,-5.1229,-5.1229,-5.1229,-5.1379,-5.1648,-5.2097,-5.2695,-5.3384,-5.4072,-5.4551,-5.491,-5.5149,-5.5179,-5.5179,-5.5179,-5.5179,-5.5179,-5.5179,-5.5568,-5.5688,-5.5239,-5.5777,-5.6316,-5.6735,-5.7184,-5.7812,-5.871,-5.8979,-5.9099,-5.9099,-5.9099,-5.9099,-5.9099,-5.9099,-5.9099,-5.9099,-5.9099,-5.9099,-5.9099,-5.9099,-5.9099,-5.9099,-5.9099,-5.9338,-3.8202,-3.8202,0.0,-3.8202,-3.8202,0.0,-3.8202,0.0,0.0,0.0,0.0,0.0,0.0,0.0,-3.8277,-3.8493,-3.8223,-3.8141,0.0,-3.8644,0.0,0.0,0.0,0.0,0.0,0.0,-3.9228,-3.9228,-3.9337,-3.9373,0.0,0.0,-3.9373,-3.9373,-3.9373,-3.9493,-3.9768,-4.0187,-4.0636,-4.1085,-4.1294,-4.1833,-4.2701,-4.25,-4.2731,-4.329,-4.329,-4.329,-4.329,-4.329,-4.4107,-4.5304,-4.5304,-4.6112,-4.7309,-4.7309,-4.7309,-4.7309,-4.7309,-4.7728,-4.8386,-4.909,-4.9703,-5.0315,-5.102,-5.1229,-5.1259,-5.1498,-5.1409,-5.1259,-5.1498,-5.1379,-5.1319,-5.1738,-5.2187,-5.2725,-5.3653,-5.4162,-5.461,-5.5089,-5.5179,-5.5179,-5.5179,-5.5179,-5.5179,-5.5179,-5.5538,-5.5658,-5.5239,-5.5777,-5.6368,-5.6735,-5.7184,-5.7902,-5.9009,-5.9099,-5.9099,-5.9099,-5.9099,-5.9099,-5.9099,-5.9099,-5.9338,-5.9817,-5.9338,-5.9338,-5.9817,-5.9338,-5.9099,-5.9099,-5.9099,-5.9338]},{"header":{"parameterUnit":"m.s-1","parameterCategory":1,"la1":30.6,"la2":29.2853,"lo1":-89.7004,"lo2":-87.6739,"dy":0.0162,"dx":0.0183,"nx":112,"ny":82,"refTime":"2023-06-20T06:00:00:Z","depth":0,"parameterNumber":3,"parameterNumberName":"V-component_of_WINDS"},"data":[0.0,0.0,0.0,0.0,0.0,0.0,0.0,0.0,0.0,0.0,0.0,0.0,0.0,0.0,0.0,0.0,0.0,0.0,0.0,0.0,0.0,0.0,0.0,0.0,0.0,0.0,0.0,0.0,0.0,0.0,0.0,0.0,0.0,0.0,0.0,0.0,0.0,0.0,0.0,0.0,0.0,0.0,0.0,0.0,0.0,0.0,0.0,0.0,0.0,0.0,0.0,0.0,0.0,0.0,0.0,0.0,0.0,0.0,0.0,0.0,0.0,0.0,0.0,0.0,0.0,0.0,0.0,0.0,0.0,0.0,0.0,0.0,0.0,0.0,0.0,0.0,0.0,0.0,0.0,0.0,0.0,0.0,0.0,0.0,0.0,0.0,0.0,0.0,0.0,0.0,0.0,-2.8796,-3.1148,-3.2249,-3.1698,-3.0916,-2.9433,-2.7088,0.0,0.0,0.0,0.0,0.0,0.0,0.0,0.0,0.0,0.0,0.0,0.0,0.0,0.0,0.0,0.0,0.0,0.0,0.0,0.0,0.0,0.0,0.0,0.0,0.0,0.0,0.0,0.0,0.0,0.0,0.0,0.0,0.0,0.0,0.0,0.0,0.0,0.0,0.0,0.0,0.0,0.0,0.0,0.0,0.0,0.0,0.0,0.0,0.0,0.0,0.0,0.0,0.0,0.0,0.0,0.0,0.0,0.0,0.0,0.0,0.0,0.0,0.0,0.0,0.0,0.0,0.0,0.0,0.0,0.0,0.0,0.0,0.0,0.0,0.0,0.0,0.0,0.0,0.0,0.0,0.0,0.0,0.0,0.0,0.0,0.0,0.0,0.0,0.0,0.0,0.0,0.0,0.0,0.0,0.0,0.0,0.0,0.0,0.0,0.0,0.0,0.0,0.0,0.0,-2.7549,-3.0742,-3.1932,-3.2452,-3.2336,-3.0741,-2.9145,-2.7738,0.0,0.0,0.0,0.0,0.0,0.0,0.0,0.0,0.0,0.0,0.0,0.0,0.0,0.0,0.0,0.0,0.0,0.0,0.0,0.0,0.0,0.0,0.0,0.0,0.0,0.0,0.0,0.0,0.0,0.0,0.0,0.0,0.0,0.0,0.0,0.0,0.0,0.0,0.0,0.0,0.0,0.0,0.0,0.0,0.0,0.0,0.0,0.0,0.0,0.0,0.0,0.0,0.0,0.0,0.0,0.0,0.0,0.0,0.0,0.0,0.0,0.0,0.0,0.0,0.0,0.0,0.0,0.0,0.0,0.0,0.0,0.0,0.0,0.0,0.0,0.0,0.0,0.0,0.0,0.0,0.0,0.0,0.0,0.0,0.0,0.0,0.0,0.0,0.0,0.0,0.0,0.0,0.0,0.0,0.0,0.0,0.0,0.0,0.0,0.0,0.0,0.0,0.0,-2.7459,-2.9523,-3.1322,-3.2745,-3.3267,-3.2539,-3.1061,-2.9609,-2.8369,-2.6494,0.0,0.0,0.0,0.0,0.0,0.0,0.0,0.0,0.0,0.0,0.0,0.0,0.0,0.0,0.0,0.0,0.0,0.0,0.0,0.0,0.0,0.0,0.0,0.0,0.0,0.0,0.0,0.0,0.0,0.0,0.0,0.0,0.0,0.0,0.0,0.0,0.0,0.0,0.0,0.0,0.0,0.0,0.0,0.0,0.0,0.0,0.0,0.0,0.0,0.0,0.0,0.0,0.0,0.0,0.0,0.0,0.0,0.0,0.0,0.0,0.0,0.0,0.0,0.0,0.0,0.0,0.0,0.0,0.0,0.0,0.0,0.0,0.0,0.0,0.0,0.0,0.0,0.0,0.0,0.0,0.0,0.0,0.0,0.0,0.0,0.0,0.0,0.0,0.0,0.0,0.0,0.0,0.0,0.0,0.0,0.0,0.0,0.0,0.0,0.0,0.0,0.0,-2.9232,-3.0887,-3.164,-3.3354,-3.3873,-3.2597,-3.1467,-3.022,-2.8796,-2.6497,0.0,0.0,0.0,0.0,0.0,0.0,0.0,0.0,0.0,0.0,0.0,0.0,0.0,0.0,0.0,0.0,0.0,0.0,0.0,0.0,0.0,0.0,0.0,0.0,0.0,0.0,0.0,0.0,0.0,0.0,0.0,0.0,0.0,0.0,0.0,0.0,0.0,0.0,0.0,0.0,0.0,0.0,0.0,0.0,0.0,0.0,0.0,0.0,0.0,0.0,0.0,0.0,0.0,0.0,0.0,0.0,0.0,0.0,0.0,0.0,0.0,0.0,0.0,0.0,0.0,0.0,0.0,0.0,0.0,0.0,0.0,0.0,0.0,0.0,0.0,0.0,0.0,0.0,0.0,0.0,0.0,0.0,0.0,0.0,0.0,0.0,0.0,0.0,0.0,0.0,0.0,0.0,0.0,0.0,0.0,0.0,0.0,0.0,0.0,0.0,0.0,0.0,-2.9755,-3.1061,-3.2309,-3.3616,-3.3873,-3.2597,-3.1843,-3.0655,-2.8825,-2.6916,0.0,0.0,0.0,0.0,0.0,0.0,0.0,0.0,0.0,0.0,0.0,0.0,0.0,0.0,0.0,0.0,0.0,0.0,0.0,0.0,0.0,0.0,0.0,0.0,0.0,0.0,0.0,0.0,0.0,0.0,0.0,0.0,0.0,0.0,0.0,0.0,0.0,0.0,0.0,0.0,0.0,0.0,0.0,0.0,0.0,0.0,0.0,0.0,0.0,0.0,0.0,0.0,0.0,0.0,0.0,0.0,0.0,0.0,0.0,0.0,0.0,0.0,0.0,0.0,0.0,0.0,0.0,0.0,0.0,0.0,0.0,0.0,0.0,0.0,0.0,0.0,0.0,0.0,0.0,0.0,0.0,0.0,0.0,0.0,0.0,0.0,0.0,0.0,0.0,0.0,0.0,0.0,0.0,0.0,0.0,0.0,0.0,0.0,0.0,0.0,0.0,0.0,-2.9435,-3.0626,0.0,-3.2948,-3.3003,-3.2539,-3.1555,-3.0451,-2.9348,0.0,0.0,0.0,0.0,0.0,0.0,0.0,0.0,0.0,0.0,0.0,0.0,0.0,0.0,0.0,0.0,0.0,0.0,0.0,0.0,0.0,0.0,0.0,0.0,0.0,0.0,0.0,0.0,0.0,0.0,0.0,0.0,0.0,0.0,0.0,0.0,0.0,0.0,0.0,0.0,0.0,0.0,0.0,0.0,0.0,0.0,0.0,0.0,0.0,0.0,0.0,0.0,0.0,0.0,0.0,0.0,0.0,0.0,0.0,0.0,0.0,0.0,0.0,0.0,0.0,0.0,0.0,0.0,0.0,0.0,0.0,0.0,0.0,0.0,0.0,0.0,0.0,0.0,0.0,0.0,0.0,0.0,0.0,0.0,0.0,0.0,0.0,0.0,0.0,0.0,0.0,0.0,0.0,0.0,0.0,0.0,0.0,0.0,0.0,0.0,0.0,0.0,-2.8855,-2.9523,-3.0597,0.0,-3.2481,-3.2481,-3.2481,-3.1496,-3.051,-2.9639,0.0,0.0,0.0,0.0,0.0,0.0,0.0,0.0,0.0,0.0,0.0,0.0,0.0,0.0,0.0,0.0,0.0,0.0,0.0,0.0,0.0,0.0,0.0,0.0,0.0,0.0,0.0,0.0,0.0,0.0,0.0,0.0,0.0,0.0,0.0,0.0,0.0,0.0,0.0,0.0,0.0,0.0,0.0,0.0,0.0,0.0,0.0,0.0,0.0,0.0,0.0,0.0,0.0,0.0,0.0,0.0,0.0,0.0,0.0,0.0,0.0,0.0,0.0,0.0,0.0,0.0,0.0,0.0,0.0,0.0,0.0,0.0,0.0,0.0,0.0,0.0,0.0,0.0,0.0,0.0,0.0,0.0,0.0,0.0,0.0,0.0,0.0,0.0,0.0,0.0,0.0,0.0,0.0,0.0,0.0,0.0,0.0,0.0,0.0,0.0,0.0,0.0,-2.9523,-3.019,-3.1092,-3.2336,-3.2481,-3.2481,-3.2481,-3.1872,-3.0944,0.0,0.0,0.0,0.0,0.0,0.0,0.0,0.0,0.0,0.0,0.0,0.0,0.0,0.0,0.0,0.0,0.0,0.0,0.0,0.0,0.0,0.0,0.0,0.0,0.0,0.0,0.0,0.0,0.0,0.0,0.0,0.0,0.0,0.0,0.0,0.0,0.0,0.0,0.0,0.0,0.0,0.0,0.0,0.0,0.0,0.0,0.0,0.0,0.0,0.0,0.0,0.0,0.0,0.0,0.0,0.0,0.0,0.0,0.0,0.0,0.0,0.0,0.0,0.0,0.0,0.0,0.0,0.0,0.0,0.0,0.0,0.0,0.0,0.0,0.0,0.0,0.0,0.0,0.0,0.0,0.0,0.0,0.0,0.0,0.0,0.0,0.0,0.0,0.0,0.0,0.0,0.0,0.0,0.0,0.0,0.0,0.0,0.0,0.0,0.0,0.0,0.0,0.0,-2.9523,-3.019,-3.1092,-3.2336,-3.2075,-3.1988,-3.2452,-3.1496,-3.0714,-3.0306,0.0,0.0,0.0,0.0,0.0,0.0,0.0,0.0,0.0,0.0,0.0,0.0,0.0,0.0,0.0,0.0,0.0,0.0,0.0,0.0,0.0,0.0,0.0,0.0,0.0,0.0,0.0,0.0,0.0,0.0,0.0,0.0,0.0,0.0,0.0,0.0,0.0,0.0,0.0,0.0,0.0,0.0,0.0,0.0,0.0,0.0,0.0,0.0,0.0,0.0,0.0,0.0,0.0,0.0,0.0,0.0,0.0,0.0,0.0,0.0,0.0,0.0,0.0,0.0,0.0,0.0,0.0,0.0,0.0,0.0,0.0,0.0,0.0,0.0,0.0,0.0,0.0,0.0,0.0,0.0,0.0,0.0,0.0,0.0,0.0,0.0,0.0,0.0,0.0,0.0,0.0,0.0,0.0,0.0,0.0,0.0,0.0,0.0,0.0,0.0,0.0,0.0,-3.0395,-3.0743,-3.1351,-3.2365,-3.1901,-3.1756,-3.2423,-3.1555,-3.0945,-3.0945,0.0,0.0,0.0,0.0,0.0,0.0,0.0,0.0,0.0,0.0,0.0,0.0,0.0,0.0,0.0,0.0,0.0,0.0,0.0,0.0,0.0,0.0,0.0,0.0,0.0,0.0,0.0,0.0,0.0,0.0,0.0,0.0,0.0,0.0,0.0,0.0,0.0,0.0,0.0,0.0,0.0,0.0,0.0,0.0,0.0,0.0,0.0,0.0,0.0,0.0,0.0,0.0,0.0,0.0,0.0,0.0,0.0,0.0,0.0,0.0,0.0,0.0,0.0,0.0,0.0,0.0,0.0,0.0,0.0,0.0,0.0,0.0,0.0,0.0,0.0,0.0,0.0,0.0,0.0,0.0,0.0,0.0,0.0,0.0,0.0,0.0,0.0,0.0,0.0,0.0,0.0,0.0,0.0,0.0,0.0,0.0,0.0,0.0,0.0,0.0,0.0,0.0,-3.1714,-3.1735,-3.1932,-3.2542,-3.2048,-3.1932,-3.2542,-3.1959,-3.1582,-3.1582,0.0,0.0,0.0,0.0,0.0,0.0,0.0,0.0,0.0,0.0,0.0,0.0,0.0,0.0,0.0,0.0,0.0,0.0,0.0,0.0,0.0,0.0,0.0,0.0,0.0,0.0,0.0,0.0,0.0,0.0,0.0,0.0,0.0,0.0,0.0,0.0,0.0,0.0,0.0,0.0,0.0,0.0,0.0,0.0,0.0,0.0,0.0,0.0,0.0,0.0,0.0,0.0,0.0,0.0,0.0,0.0,0.0,0.0,0.0,0.0,-3.3716,0.0,0.0,0.0,0.0,0.0,0.0,0.0,0.0,0.0,0.0,0.0,0.0,0.0,0.0,0.0,0.0,0.0,0.0,0.0,0.0,0.0,0.0,0.0,0.0,0.0,0.0,0.0,0.0,0.0,0.0,0.0,0.0,0.0,0.0,0.0,0.0,0.0,0.0,0.0,0.0,0.0,-3.1772,-3.2553,-3.3155,-3.3271,-3.3155,-3.3155,-3.3271,-3.2658,-3.2278,-3.2278,-3.2278,0.0,0.0,0.0,0.0,0.0,0.0,0.0,0.0,0.0,0.0,0.0,0.0,0.0,0.0,0.0,0.0,0.0,0.0,0.0,0.0,0.0,0.0,0.0,0.0,0.0,0.0,0.0,0.0,0.0,0.0,0.0,0.0,0.0,0.0,0.0,0.0,0.0,0.0,0.0,0.0,0.0,0.0,0.0,0.0,0.0,0.0,0.0,0.0,0.0,0.0,0.0,0.0,0.0,0.0,0.0,0.0,0.0,0.0,0.0,0.0,-3.5446,0.0,0.0,0.0,0.0,0.0,0.0,0.0,0.0,0.0,0.0,0.0,0.0,0.0,0.0,0.0,0.0,0.0,0.0,0.0,0.0,0.0,0.0,0.0,0.0,0.0,0.0,0.0,0.0,0.0,0.0,0.0,0.0,0.0,0.0,0.0,0.0,0.0,0.0,0.0,0.0,-3.2211,-3.299,-3.3503,-3.3503,-3.3503,-3.3503,-3.3503,-3.3184,-3.2977,-3.2977,-3.2977,0.0,0.0,0.0,0.0,0.0,0.0,0.0,0.0,0.0,0.0,0.0,0.0,0.0,0.0,0.0,0.0,0.0,0.0,0.0,0.0,0.0,0.0,0.0,0.0,0.0,0.0,0.0,0.0,0.0,0.0,0.0,0.0,0.0,0.0,0.0,0.0,0.0,0.0,0.0,0.0,0.0,0.0,0.0,0.0,0.0,0.0,0.0,0.0,0.0,0.0,0.0,0.0,0.0,0.0,-3.9255,-3.9879,-4.0011,-4.031,-4.0613,-3.8328,-3.7036,-3.6605,0.0,0.0,0.0,0.0,0.0,0.0,0.0,0.0,0.0,0.0,0.0,0.0,0.0,0.0,0.0,0.0,0.0,0.0,0.0,0.0,0.0,0.0,0.0,0.0,0.0,-3.7746,-3.6932,0.0,0.0,0.0,0.0,0.0,0.0,0.0,0.0,0.0,0.0,0.0,0.0,-3.2886,-3.3339,-3.3678,-3.3678,-3.3678,-3.3678,-3.3678,-3.3678,-3.3678,-3.3678,-3.3678,-3.3354,0.0,0.0,0.0,0.0,0.0,0.0,0.0,0.0,0.0,0.0,0.0,0.0,0.0,0.0,0.0,0.0,0.0,0.0,0.0,0.0,0.0,0.0,0.0,0.0,0.0,0.0,0.0,0.0,0.0,0.0,0.0,0.0,-3.3937,-3.3937,0.0,0.0,0.0,0.0,0.0,0.0,0.0,0.0,0.0,0.0,0.0,0.0,0.0,0.0,-3.968,-3.9779,-4.015,-4.0845,-4.1579,-4.1976,-4.2075,-4.2738,-4.2738,-4.2237,-4.2473,0.0,-3.8785,-3.7599,0.0,0.0,0.0,0.0,0.0,0.0,0.0,0.0,0.0,0.0,0.0,0.0,0.0,0.0,0.0,0.0,0.0,0.0,0.0,0.0,0.0,0.0,-3.6949,-3.7935,-3.8403,-3.8425,0.0,-3.652,-3.5136,-3.4503,0.0,0.0,0.0,0.0,0.0,0.0,0.0,0.0,-3.3844,-3.4076,-3.4283,-3.4283,-3.4283,-3.4283,-3.4283,-3.4283,-3.4283,-3.4283,-3.4283,-3.3993,-3.3387,-3.3387,0.0,0.0,0.0,0.0,0.0,0.0,0.0,0.0,0.0,0.0,0.0,0.0,0.0,0.0,0.0,0.0,0.0,0.0,0.0,0.0,0.0,0.0,0.0,0.0,0.0,0.0,0.0,0.0,0.0,-3.3865,-3.4258,-3.4669,-3.4722,-3.471,0.0,0.0,0.0,0.0,0.0,0.0,0.0,0.0,0.0,-3.8321,-3.8725,-3.9587,-4.0945,-4.1773,-4.2568,-4.3264,-4.4423,-4.5185,-4.5616,-4.5947,-4.6146,-4.6179,-4.5682,-4.4986,-4.3959,-4.1276,-3.9891,-3.946,0.0,0.0,0.0,0.0,0.0,-3.8674,-3.8914,0.0,0.0,0.0,0.0,0.0,0.0,0.0,0.0,0.0,0.0,0.0,0.0,0.0,0.0,-4.0307,-4.007,-3.9785,-3.9945,-3.8163,-3.6477,0.0,-3.6035,-3.5614,-3.4494,0.0,0.0,0.0,0.0,0.0,-3.3833,-3.448,-3.4806,-3.4457,-3.4748,-3.4806,-3.4457,-3.4399,-3.4399,-3.4399,-3.4399,-3.4283,-3.4022,-3.3993,-3.3877,0.0,0.0,0.0,0.0,0.0,0.0,0.0,0.0,0.0,0.0,0.0,0.0,0.0,0.0,0.0,0.0,0.0,0.0,0.0,0.0,0.0,0.0,0.0,0.0,0.0,0.0,0.0,0.0,-3.4793,-3.5364,-3.5507,-3.5936,-3.6003,0.0,0.0,0.0,0.0,0.0,0.0,-3.7923,-3.8731,-3.9654,-4.0641,-4.1205,-4.2104,-4.3363,-4.4459,-4.5384,-4.6113,-4.7404,-4.8299,-4.8862,-4.9028,-4.9326,-4.9591,-4.8498,-4.8233,-4.8299,-4.4589,-4.2767,-4.217,-4.1475,-4.0878,-4.0382,-4.0243,-4.0517,-4.0979,-4.0865,-4.1169,-4.1628,-4.1628,0.0,-3.9638,-3.9961,0.0,0.0,0.0,0.0,-4.0037,-4.0476,-4.1488,-4.247,-4.2652,-4.2036,-4.1406,-4.1406,-3.9774,-3.8165,0.0,-3.7325,-3.6812,-3.5869,0.0,0.0,0.0,0.0,-3.4002,-3.3937,-3.4651,-3.5043,-3.469,-3.4922,-3.498,-3.469,-3.4516,-3.4399,-3.4399,-3.4399,-3.4399,-3.4399,-3.4399,-3.4399,-3.4399,0.0,0.0,0.0,0.0,0.0,0.0,0.0,0.0,0.0,0.0,0.0,0.0,0.0,0.0,0.0,0.0,0.0,0.0,0.0,0.0,0.0,0.0,0.0,0.0,0.0,0.0,0.0,0.0,0.0,-3.6506,-3.7909,0.0,0.0,0.0,0.0,-3.8033,-3.9519,-4.0331,-4.0265,-4.1312,-4.268,-4.4387,-4.4456,-4.5847,-4.8696,-4.8796,-4.9193,-4.9955,-5.0684,-5.1116,-5.1183,-5.1879,-5.1846,-5.1183,-5.1116,-5.0684,-4.9823,-4.6113,-4.4556,-4.4456,-4.3727,-4.34,-4.3367,-4.3367,-4.34,-4.3433,-4.3433,-4.3343,-4.3257,-4.3257,-4.2676,-4.1776,-4.0978,-4.0723,0.0,0.0,-4.0989,-4.0896,-4.2359,-4.2719,-4.2972,-4.4033,-4.4033,-4.3525,-4.2475,-4.1434,-4.0198,0.0,-3.7617,-3.7074,-3.7104,0.0,-3.6022,-3.5794,-3.5226,-3.4776,-3.4673,-3.453,-3.469,-3.5305,-3.4806,-3.469,-3.5305,-3.4748,-3.4399,-3.4399,-3.4399,-3.4399,-3.4399,-3.4399,-3.4399,-3.4399,-3.437,0.0,0.0,0.0,0.0,0.0,0.0,0.0,0.0,0.0,0.0,0.0,0.0,0.0,0.0,0.0,0.0,0.0,0.0,0.0,0.0,0.0,0.0,0.0,0.0,0.0,0.0,0.0,0.0,-3.9559,-4.0256,0.0,0.0,-3.9856,-3.9952,-4.0661,-4.1406,-4.2206,-4.3127,-4.4005,-4.5402,-4.7471,-4.8001,-4.8961,-5.0485,-5.1413,-5.1777,-5.1612,-5.2804,-5.3367,-5.3367,-5.3135,-5.2904,-5.2638,-5.2175,-5.1843,-5.1479,-4.9691,-4.81,-4.6709,-4.5483,-4.4721,-4.4257,-4.3764,-4.3926,-4.4324,-4.4324,-4.4591,-4.4861,-4.4306,-4.412,-4.3932,-4.2722,-4.2833,-4.3328,-4.3196,-4.3202,-4.346,-4.4106,-4.4205,-4.4269,-4.469,-4.4038,-4.3332,-4.3195,-4.1581,-4.0223,-4.0328,-3.8426,-3.6828,-3.6966,-3.5928,-3.5053,-3.5121,-3.4815,-3.4631,-3.4698,-3.4913,-3.4951,-3.4777,-3.4922,-3.4985,-3.4777,-3.4545,-3.4399,-3.4399,-3.4399,-3.4399,-3.4399,-3.4399,-3.4399,-3.4399,-3.4399,-3.4399,0.0,0.0,0.0,0.0,0.0,0.0,0.0,0.0,0.0,0.0,0.0,0.0,0.0,0.0,0.0,0.0,0.0,0.0,0.0,0.0,0.0,0.0,0.0,0.0,0.0,0.0,-4.0975,-4.2322,-4.2707,-4.298,-4.3237,-4.2678,-4.2646,-4.3623,-4.4105,-4.4887,-4.6113,-4.7106,-4.8431,-5.0154,-5.0916,-5.1645,-5.2373,-5.3301,-5.3566,-5.3102,-5.4063,-5.449,-5.4456,-5.396,-5.3798,-5.3765,-5.3301,-5.297,-5.2705,-5.2208,-5.1015,-4.9326,-4.7868,-4.6974,-4.651,-4.6013,-4.598,-4.6146,-4.5881,-4.6113,-4.6411,-4.5557,-4.5561,-4.5599,-4.4289,-4.4395,-4.4919,-4.4659,-4.4854,-4.5209,-4.5536,-4.5634,-4.5601,-4.54,-4.4495,-4.3572,-4.3323,-4.1748,-4.0515,-4.1045,-3.9026,-3.7407,-3.7807,-3.6371,-3.535,-3.5892,-3.5151,-3.4675,-3.518,-3.5136,-3.4985,-3.4748,-3.4922,-3.5038,-3.5038,-3.4661,-3.4516,-3.4719,-3.4545,-3.4399,-3.4399,-3.4399,-3.4399,-3.4399,-3.4399,-3.4399,-3.4399,0.0,0.0,0.0,0.0,0.0,0.0,0.0,0.0,0.0,0.0,0.0,0.0,0.0,0.0,0.0,0.0,0.0,0.0,0.0,0.0,0.0,0.0,0.0,-3.9056,-4.1766,-4.405,-4.4711,-4.5321,-4.5937,-4.6495,-4.5505,-4.545,-4.6908,-4.7736,-4.8465,-4.9193,-5.0585,-5.1713,-5.2509,-5.3135,-5.3831,-5.4523,-5.4593,-5.4593,-5.4523,-5.4593,-5.4593,-5.4593,-5.4523,-5.4523,-5.4523,-5.449,-5.4096,-5.3434,-5.3434,-5.3036,-5.2307,-5.0817,-5.0253,-5.0253,-5.022,-4.9756,-4.9028,-4.8332,-4.8067,-4.7968,-4.7206,-4.6974,-4.6777,-4.5699,-4.5341,-4.544,-4.5762,-4.5824,-4.5952,-4.6664,-4.6825,-4.6652,-4.6092,-4.5405,-4.4441,-4.294,-4.204,-4.1279,-4.0607,-3.9428,-3.8802,-3.9673,-3.8025,-3.7061,-3.8288,-3.6394,0.0,-3.617,-3.527,-3.4719,-3.5363,-3.4864,-3.498,-3.6199,-3.5212,-3.4748,-3.5392,-3.4806,-3.4457,-3.4457,-3.4457,-3.4457,-3.4457,-3.4457,-3.4457,-3.4457,0.0,0.0,0.0,0.0,0.0,0.0,0.0,0.0,0.0,0.0,0.0,0.0,0.0,0.0,0.0,0.0,0.0,0.0,0.0,0.0,0.0,0.0,-4.323,-4.3016,-4.4858,-4.6951,-4.8876,-4.8386,-4.844,-4.9739,-4.9153,-4.9094,-4.9988,-5.075,-5.1479,-5.2175,-5.2605,-5.34,-5.4692,-5.4887,-5.5085,-5.5284,-5.5852,-5.5852,-5.5284,-5.5852,-5.6084,-5.6084,-5.5554,-5.5284,-5.5251,-5.4721,-5.4357,-5.4192,-5.4192,-5.4096,-5.3732,-5.1744,-5.0982,-5.0916,-5.0419,-5.0088,-4.9889,-4.969,-4.9624,-4.9491,-4.873,-4.8299,-4.7933,-4.7276,-4.6781,-4.6512,-4.6741,-4.6293,-4.5798,-4.5989,-4.5588,-4.511,-4.4962,-4.4318,-4.3593,-4.3196,-4.21,-4.132,-4.1575,-4.0546,-3.9634,-3.9601,-3.8573,-3.787,-3.8219,-3.7695,0.0,-3.7041,-3.6722,-3.6402,-3.6083,-3.6315,-3.646,-3.6315,-3.6431,-3.6373,-3.6054,-3.588,-3.5793,-3.5793,-3.5793,-3.5793,-3.5793,-3.5328,-3.5328,0.0,0.0,0.0,0.0,0.0,0.0,0.0,0.0,0.0,0.0,0.0,0.0,0.0,0.0,0.0,0.0,0.0,0.0,0.0,0.0,0.0,0.0,-4.3781,-4.6035,-4.7096,-4.7841,-4.9048,-5.1059,-5.0444,-5.0556,-5.2401,-5.1963,-5.1843,-5.2572,-5.3036,-5.3467,-5.3864,-5.4125,-5.4688,-5.5549,-5.5918,-5.6084,-5.6084,-5.6481,-5.6481,-5.6084,-5.6481,-5.668,-5.668,-5.6249,-5.6084,0.0,-5.562,-5.5256,-5.4953,-5.4953,-5.4754,0.0,0.0,0.0,0.0,0.0,-5.0651,-5.0618,-5.032,-5.022,-5.0154,-4.9723,-4.9422,-4.9118,-4.8657,-4.8046,-4.7423,-4.7097,-4.6321,-4.5528,-4.5247,-4.4849,-4.4396,-4.409,-4.3624,-4.322,-4.289,-4.2111,-4.1628,-4.2005,0.0,0.0,-4.0625,-3.9499,-3.8812,-3.9334,-3.8522,-3.7883,-3.8086,-3.7389,-3.6751,-3.6344,-3.6664,-3.6838,-3.6751,-3.6838,0.0,0.0,0.0,-3.6315,-3.6315,-3.6315,0.0,0.0,0.0,-3.5938,-3.6315,0.0,0.0,0.0,-3.5212,-3.5212,0.0,0.0,0.0,0.0,0.0,0.0,0.0,0.0,0.0,0.0,0.0,0.0,0.0,0.0,0.0,0.0,-4.5684,-4.8387,-5.063,-5.0532,-5.0729,-5.223,-5.1967,-5.2459,-5.453,-5.4066,-5.3964,-5.4692,-5.4759,-5.4759,-5.4759,0.0,0.0,0.0,0.0,-5.6779,-5.668,-5.6846,-5.6912,-5.6812,-5.6812,-5.6812,-5.6812,-5.6713,-5.668,-5.668,-5.668,-5.6316,-5.5714,-5.5714,-5.5355,-5.4759,-5.4556,-5.4092,-5.3367,-5.2108,-5.168,0.0,0.0,0.0,0.0,-5.0283,-5.0147,-5.001,-4.9458,-4.8683,-4.7797,-4.6898,-4.5932,-4.5025,-4.4511,-4.4282,-4.4051,-4.3339,-4.318,-4.2981,-4.2228,-4.2092,-4.2092,-4.2092,-4.2092,-4.2092,-4.2092,-4.067,-3.9915,-4.1047,-3.9305,-3.8231,-3.9276,-3.7854,-3.6722,-3.6635,0.0,0.0,-3.7476,-3.6983,-3.6896,-3.7476,-3.6896,-3.6519,-3.6519,-3.646,-3.646,-3.6519,-3.646,-3.646,-3.6519,-3.6519,-3.6519,-3.6519,-3.6373,-3.6315,0.0,0.0,0.0,0.0,0.0,0.0,0.0,0.0,0.0,0.0,0.0,0.0,0.0,0.0,0.0,-4.4692,-4.7883,-5.0442,-5.1129,-5.2101,-5.3236,-5.4643,-5.4257,-5.4489,-5.6048,-5.5566,-5.5487,-5.6216,-5.6249,-5.6249,-5.6249,-5.6415,0.0,-5.6481,-5.721,-5.7276,-5.668,-5.7873,-5.8171,-5.7574,0.0,0.0,-5.7574,-5.6945,-5.668,-5.668,-5.668,-5.6614,-5.6481,-5.6481,-5.6382,-5.615,-5.4957,-5.4427,-5.4262,-5.3997,-5.3897,-5.3798,-5.3036,-5.2804,-5.2498,-5.0631,-4.9839,-4.9304,-4.7909,-4.6771,0.0,-4.5727,-4.4708,-4.3657,-4.3536,-4.3021,-4.2514,-4.2351,-4.231,-4.2298,-4.2133,-4.2092,-4.2092,-4.2092,-4.2092,-4.2092,-4.2092,-4.1773,-4.1628,-4.186,-4.1482,-4.1076,-4.0757,-3.9915,-3.9189,-3.8696,-3.8638,-3.8696,-3.8812,-3.8725,-3.8696,-3.8812,-3.8202,-3.7825,-3.7825,-3.7389,-3.7331,-3.7825,-3.736,-3.736,-3.7825,-3.7825,-3.7825,-3.7825,-3.678,-3.6315,0.0,0.0,0.0,0.0,0.0,0.0,0.0,0.0,0.0,0.0,0.0,-4.0366,0.0,0.0,-4.5516,-4.7454,-4.9882,-5.1554,-5.182,-5.3059,-5.4047,-5.443,-5.4467,-5.4903,-5.5973,-5.644,-5.6846,-5.721,-5.7243,-5.7243,-5.7243,-5.7243,-5.7243,-5.7243,-5.7972,-5.8171,-5.7806,-5.8535,-5.8701,-5.8336,-5.8336,-5.8336,-5.8336,-5.7574,-5.7243,-5.721,-5.6846,-5.668,-5.668,-5.668,-5.6414,-5.5922,-5.5201,-5.4974,-5.4948,-5.4137,-5.3853,-5.3645,-5.2398,-5.1952,-5.1675,-5.0083,-4.9423,-4.9087,-4.8151,-4.7209,-4.6285,-4.5536,-4.4526,-4.3514,-4.2865,-4.2392,-4.2092,-4.2092,-4.2092,-4.2092,-4.2092,-4.2092,-4.2092,-4.2092,-4.2092,-4.2092,-4.2092,-4.2092,-4.2092,-4.2092,-4.1802,-4.1482,-4.1134,-4.0495,-3.9973,-3.9683,-3.9654,-3.9538,-3.9218,-3.9189,-3.9334,-3.9625,-3.9334,-3.916,-3.916,-3.887,-3.8841,-3.9131,-3.8841,-3.8841,-3.916,-3.916,-3.916,-3.9131,-3.8492,-3.7854,0.0,0.0,0.0,0.0,0.0,0.0,0.0,0.0,-3.8722,-4.2322,-4.204,-4.2219,-4.5822,-4.6727,-4.7612,-4.977,-5.1293,-5.2201,-5.2381,-5.3367,-5.393,-5.3467,-5.4195,-5.4986,-5.5752,-5.6879,-5.7641,-5.7773,-5.7674,-5.7707,-5.8005,-5.7873,-5.7873,-5.8005,-5.8734,-5.9032,-5.8899,-5.9164,-5.9264,-5.9098,-5.9098,-5.9098,-5.9098,-5.8336,-5.8005,-5.7972,-5.721,-5.6912,-5.6879,-5.6558,-5.5988,-5.528,-5.5076,-5.5052,-5.4945,-5.3783,-5.3383,-5.3134,-5.1521,-5.0879,-5.0505,-4.9459,-4.8984,-4.8738,-4.8245,-4.7528,-4.6518,-4.5227,-4.4255,-4.3398,-4.2353,-4.2092,-4.2092,-4.2092,-4.2092,-4.2092,-4.2092,-4.2092,-4.2092,-4.2092,-4.2092,-4.2092,-4.2092,-4.2092,-4.2092,-4.2092,-4.1628,-4.1279,-4.1279,-4.0699,-4.0292,-4.0292,-4.0176,-3.9915,-3.9421,-3.9479,-3.9712,-4.0089,-4.0089,-4.0089,-4.0089,-4.0089,-4.0089,-4.0089,-4.0089,-4.0089,-4.0089,-4.0089,-4.0089,-4.0089,-4.0089,-3.9538,-3.6654,-3.6763,-3.7302,-3.9158,-3.8777,-3.8867,0.0,0.0,-4.2102,-4.5129,-4.5642,-4.5911,-4.7276,-4.8548,-4.9545,-5.0092,-5.142,-5.2381,-5.2409,-5.2542,-5.2804,-5.3367,-5.4622,-5.5786,-5.6514,-5.6713,-5.7077,-5.774,-5.7177,-5.7376,-5.8701,-5.8171,-5.8104,-5.8767,-5.9496,-5.9562,-5.8899,-6.0191,-6.0523,-5.9893,-5.9893,-5.9893,-5.986,-5.9098,-5.8767,-5.8734,-5.8005,-5.7674,-5.7568,-5.609,-5.5393,-5.5198,-5.4443,-5.3819,-5.3363,-5.3777,-5.3925,-5.3788,-5.2934,-5.2104,-5.1153,-4.9693,-4.8499,-4.7455,-4.6102,-4.5096,-4.4253,-4.3452,-4.2785,-4.2266,-4.2121,-4.2092,-4.2092,-4.2092,-4.2092,-4.2092,-4.2092,-4.2092,-4.2092,-4.2092,-4.2092,-4.2092,-4.2092,-4.2092,-4.2092,-4.2092,-4.2034,-4.1976,-4.1976,-4.1395,-4.0989,-4.0989,-4.0466,-4.006,-4.0002,-4.0554,-4.067,-4.0118,-4.0089,-4.0089,-4.0089,-4.0089,-4.0089,-4.0089,-4.0089,-4.0089,-4.0089,-4.0089,-4.0089,-4.0089,-4.0089,-4.0031,-3.6484,-3.6913,-3.7679,0.0,-4.0078,-4.115,-4.3878,-4.3878,-4.4249,-4.7535,-4.7615,-4.7861,-5.0438,-5.0784,-5.1128,0.0,-5.3223,-5.3467,-5.3036,-5.3367,-5.3434,-5.287,-5.3367,-5.4361,-5.5918,-5.6448,-5.7177,-5.8336,-5.8138,-5.8436,-5.9496,-5.9264,-5.9231,-5.9529,-6.0258,-6.049,-6.0191,-6.0788,-6.0953,-6.0655,-6.0655,-6.0655,-6.0622,-5.9429,-5.8668,-5.8164,-5.6368,-5.6107,-5.6809,-5.4782,-5.3639,-5.3058,-5.2309,-5.1525,-5.0967,-5.2138,-5.2355,-5.1802,-5.0332,-4.9556,-4.9004,-4.7716,-4.6933,-4.6388,-4.5391,-4.4792,-4.4298,-4.3282,-4.2818,-4.2615,-4.2615,-4.2353,-4.2179,-4.2528,-4.2353,-4.2208,-4.2557,-4.2615,-4.2731,-4.3137,-4.3195,-4.3195,-4.3195,-4.3195,-4.3079,-4.2673,-4.2324,-4.2092,-4.2092,-4.186,-4.1686,-4.1686,-4.1076,-4.0844,-4.1221,-4.1163,-4.1134,-4.125,-4.125,-4.125,-4.125,-4.125,-4.125,-4.125,-4.125,-4.125,-4.125,-4.125,-4.125,-4.125,-4.125,-4.125,-3.6473,0.0,0.0,-4.0264,-4.1707,-4.3314,-4.5574,-4.5641,-4.6149,-4.9388,-4.9122,-4.9194,-5.2056,-5.19,-5.1888,-5.3647,-5.4095,-5.403,-5.35,-5.3699,-5.3467,-5.2243,-5.191,-5.2572,-5.4527,-5.5554,-5.6779,-5.8469,-5.8601,-5.9098,-6.0258,-6.0125,-6.0092,-6.0291,-6.0821,-6.1119,-6.1119,-6.1119,-6.0961,-6.0675,-6.0675,-6.0548,-6.0226,-5.8951,-5.8043,-5.7209,-5.5027,-5.4592,-5.5329,-5.3207,-5.1931,-5.1251,-5.0542,-4.9742,-4.9179,-5.0269,-5.0459,-4.9917,-4.8462,-4.7745,-4.7329,-4.6528,-4.613,-4.575,-4.5082,-4.4879,-4.4647,-4.3573,-4.3282,-4.3282,-4.3282,-4.2934,-4.2731,-4.3166,-4.2934,-4.2731,-4.3166,-4.3282,-4.3398,-4.3892,-4.3979,-4.3979,-4.3979,-4.3979,-4.3834,-4.334,-4.2905,-4.2498,-4.215,-4.2092,-4.2092,-4.2092,-4.1657,-4.157,-4.2063,-4.1657,-4.157,-4.2063,-4.2092,-4.2092,-4.2092,-4.2092,-4.2092,-4.2092,-4.2092,-4.2092,-4.2092,-4.2092,-4.2092,-4.2092,-4.2092,-4.2092,-3.7182,0.0,-3.9571,-4.3014,-4.3885,-4.4754,-4.7891,-4.7899,-4.7995,-5.0439,-5.0375,-5.0076,-5.0905,-5.121,-5.158,-5.231,-5.3003,-5.3434,-5.34,-5.287,-5.221,-5.1448,-5.0684,-5.085,0.0,-5.3765,-5.5487,-5.7674,-5.7806,-5.8767,-6.0953,-6.039,-6.0324,-6.1053,-6.1086,-6.1119,-6.1119,-6.1119,-6.0591,-5.9663,-5.9663,-5.9113,-5.8177,-5.7494,-5.6797,-5.6144,-5.4738,-5.3756,-5.3059,-5.1367,-5.066,-5.0531,-4.9672,-4.891,-4.8327,-4.8371,-4.8626,-4.8953,-4.8878,-4.8145,-4.7206,-4.7161,-4.6586,-4.575,-4.5082,-4.4879,-4.4763,-4.4124,-4.395,-4.395,-4.395,-4.395,-4.395,-4.395,-4.395,-4.395,-4.395,-4.395,-4.3979,-4.3979,-4.3979,-4.3979,-4.3979,-4.3979,-4.3979,-4.3979,-4.395,-4.3485,-4.2266,-4.2092,-4.2092,-4.2092,-4.2063,-4.2063,-4.2092,-4.2063,-4.2063,-4.2092,-4.2092,-4.2092,-4.2092,-4.2092,-4.2092,-4.2092,-4.2092,-4.2092,-4.2092,-4.2092,-4.2092,-4.2092,-4.2092,-4.2092,-3.7584,0.0,-4.1777,-4.4532,-4.6196,-4.7703,-4.9758,-5.0171,-5.0112,-5.0096,-4.9403,-4.8648,-4.8063,-4.8133,-4.8794,-5.0512,-5.1907,-5.287,-5.3367,-5.3632,-5.3003,-5.0817,-5.0353,0.0,0.0,0.0,0.0,-5.6846,-5.7508,-5.8535,-6.0291,-6.0622,-6.0854,-6.1086,-6.1119,-6.0793,-6.013,-6.013,-5.9587,-5.8619,-5.8141,-5.7052,-5.5411,-5.4572,-5.441,-5.4683,-5.2462,-5.2038,-5.2704,-5.0584,-4.9488,-4.9021,-4.8249,-4.7848,-4.7638,-4.7434,-4.7362,-4.7362,-4.7362,-4.6991,-4.6501,-4.6366,-4.613,-4.575,-4.5082,-4.4879,-4.4763,-4.4153,-4.3979,-4.4066,-4.4472,-4.4298,-4.4095,-4.4501,-4.4269,-4.4095,-4.4501,-4.4589,-4.4705,-4.5169,-4.5256,-4.5256,-4.5256,-4.5256,-4.5082,-4.4647,-4.3863,-4.3166,-4.2731,-4.2353,-4.2092,-4.2092,-4.2092,-4.2092,-4.2092,-4.2092,-4.2092,-4.2092,-4.2092,-4.2092,-4.2092,-4.2092,-4.2092,-4.2092,-4.2092,-4.2092,-4.2092,-4.2092,-4.2092,-4.2092,-4.2092,-4.2092,-3.8997,-4.1387,-4.4047,-4.6518,-4.8296,-4.9702,-5.0991,-5.0932,-5.0355,-4.9328,-4.8085,-4.6843,-4.5734,-4.5763,-4.655,-4.8496,-4.9953,-5.1347,-5.2837,-5.3003,-5.2473,-5.1148,-5.0518,-5.0121,0.0,0.0,0.0,-5.5719,-5.7077,-5.8436,-5.9926,-6.0364,-6.0548,-6.0548,-6.0216,-5.9751,-5.9068,-5.9068,-5.8446,-5.723,-5.6217,-5.4882,-5.3392,-5.2549,-5.2225,-5.2275,-5.0335,-5.0125,-5.0981,-4.9297,-4.8446,-4.8207,-4.7549,-4.7266,-4.7149,-4.6975,-4.6712,-4.6447,-4.6447,-4.6314,-4.609,-4.5911,-4.5895,-4.5808,-4.5372,-4.5256,-4.5169,-4.4763,-4.4676,-4.4763,-4.514,-4.4966,-4.4763,-4.514,-4.4937,-4.4763,-4.5169,-4.5256,-4.5372,-4.5808,-4.5895,-4.5895,-4.5895,-4.5895,-4.575,-4.5314,-4.4356,-4.3602,-4.3369,-4.3021,-4.2673,-4.244,-4.2411,-4.2324,-4.2121,-4.2092,-4.2092,-4.2092,-4.2092,-4.2092,-4.2092,-4.2092,-4.2092,-4.2092,-4.2092,-4.2092,-4.2092,-4.2092,-4.2208,-4.2411,-4.2208,-4.2324,-4.1409,-4.3894,-4.6289,-4.8977,-5.0043,-5.0656,-5.1496,-5.0261,-4.8774,-4.8174,-4.6385,-4.4691,0.0,0.0,-4.4805,-4.6353,-4.744,-4.9127,-5.2009,-5.128,-5.0916,0.0,0.0,0.0,0.0,0.0,0.0,-5.432,0.0,-5.829,-5.977,-5.962,-5.9499,-5.9499,-5.8619,-5.8085,-5.8007,-5.7898,-5.7074,-5.5483,-5.3917,-5.2755,-5.2067,-5.1439,-5.0481,-4.9269,-4.864,-4.8327,-4.8237,-4.7608,-4.7698,-4.8177,-4.7549,-4.7149,-4.6931,-4.6887,-4.6624,-4.6225,-4.618,-4.6046,-4.5895,-4.5895,-4.5895,-4.5895,-4.5895,-4.5895,-4.5895,-4.5895,-4.5895,-4.5895,-4.5895,-4.5895,-4.5895,-4.5895,-4.5895,-4.5895,-4.5895,-4.5895,-4.5895,-4.5895,-4.5895,-4.5895,-4.5895,-4.5895,-4.5895,-4.5895,-4.5343,-4.4705,-4.4124,-4.4008,-4.3747,-4.305,-4.2992,-4.276,-4.215,-4.2092,-4.2092,-4.2092,-4.2092,-4.2121,-4.215,-4.215,-4.215,-4.2208,-4.2208,-4.2208,-4.2208,-4.2208,-4.2498,-4.3021,-4.244,-4.2847,-4.3514,-4.5963,-4.8159,-4.996,-5.083,-5.0978,-5.0138,-4.9047,-4.7605,-4.534,-4.362,-4.2127,0.0,0.0,0.0,-4.508,-4.7703,0.0,-5.2656,-5.3261,0.0,-5.2473,0.0,-5.1678,-5.1348,-5.1667,0.0,0.0,-5.523,-5.6404,-5.7692,-5.8236,-5.8483,-5.8483,-5.8223,-5.7541,-5.6294,-5.5075,-5.3971,-5.3097,-5.266,-5.1858,-5.0674,-5.0524,-5.0032,-4.9299,-4.9149,-4.8745,-4.8267,-4.8117,-4.7848,-4.7549,-4.7369,-4.7149,-4.6887,-4.6712,-4.6491,-4.618,-4.6001,-4.5911,-4.5895,-4.5895,-4.5895,-4.5895,-4.5895,-4.5895,-4.5895,-4.5895,-4.5895,-4.5895,-4.5895,-4.5895,-4.5895,-4.5895,-4.5895,-4.5895,-4.5895,-4.5895,-4.5895,-4.5895,-4.5895,-4.5895,-4.5895,-4.5895,-4.5895,-4.5895,-4.575,-4.5401,-4.4734,-4.4269,-4.3747,-4.305,-4.2992,-4.276,-4.215,-4.2092,-4.2092,-4.2092,-4.2092,-4.2295,-4.2731,-4.276,-4.2992,-4.3515,-4.3515,-4.3515,-4.3515,-4.3515,-4.3573,-4.3747,-4.3573,-4.3689,-4.5733,-4.7854,-4.9589,-5.066,-5.0908,-5.0505,-4.9079,-4.761,-4.5856,-4.3298,-4.1646,0.0,-3.9217,0.0,0.0,0.0,0.0,0.0,-5.1825,-5.2993,-5.3632,0.0,-5.3169,0.0,-5.2548,-5.2469,-5.2904,0.0,-5.4815,-5.5686,-5.6947,-5.7291,-5.7465,-5.7465,-5.676,-5.5821,-5.4605,-5.3393,-5.2576,-5.2187,-5.1917,-5.1229,-5.0196,-5.0196,-4.9733,-4.888,0.0,-4.8626,-4.8267,-4.7967,-4.7744,-4.7523,-4.7225,-4.6887,-4.6609,-4.677,-4.6533,-4.6075,-4.6231,-4.6127,-4.5895,-4.5895,-4.5895,-4.5895,-4.5895,-4.5895,-4.5895,-4.5895,-4.5895,-4.5895,-4.5895,-4.5895,-4.5895,-4.5895,-4.5895,-4.5895,-4.5895,-4.5895,-4.5895,-4.5895,-4.5895,-4.5895,-4.5895,-4.5895,-4.5895,-4.5895,-4.5895,-4.575,-4.5372,-4.5024,-4.456,-4.3892,-4.3834,-4.3573,-4.2992,-4.2934,-4.2934,-4.2934,-4.2934,-4.3079,-4.3398,-4.3427,-4.3602,-4.3979,-4.3979,-4.3979,-4.3979,-4.3979,-4.4124,-4.4385,-4.4124,-4.4298,-4.7846,-4.944,-5.0644,-5.1075,-5.0552,-4.958,-4.8058,-4.5986,-4.3783,-4.1742,0.0,-3.9181,-3.8505,-3.9105,-4.0199,-4.1764,0.0,-4.6881,-5.07,-5.1753,-5.2975,-5.5165,-5.4105,-5.3423,-5.3987,-5.3365,-5.3377,-5.4544,-5.4801,-5.5503,-5.6806,-5.66,-5.6365,-5.6273,-5.4775,-5.3653,-5.3054,-5.2396,-5.2067,-5.2067,-5.1498,-5.0883,-5.0315,-5.0226,-4.9583,-4.8416,0.0,0.0,-4.8117,-4.7638,-4.7627,-4.7852,-4.7377,-4.686,-4.6546,-4.7131,-4.6745,-4.6098,-4.665,-4.6417,-4.5895,-4.5895,-4.5895,-4.5895,-4.5895,-4.5895,-4.5895,-4.5895,-4.5895,-4.5895,-4.5895,-4.5895,-4.5895,-4.5895,-4.5895,-4.5895,-4.5895,-4.5895,-4.5895,-4.5895,-4.5895,-4.5895,-4.5895,-4.5895,-4.5895,-4.5895,-4.5895,-4.5895,-4.5895,-4.5895,-4.5634,-4.4966,-4.4879,-4.4647,-4.4037,-4.3979,-4.3979,-4.3979,-4.3979,-4.4037,-4.4095,-4.4124,-4.4153,-4.424,-4.424,-4.424,-4.424,-4.424,-4.4501,-4.4995,-4.4341,-4.4644,-4.9069,-5.0394,-5.1075,-5.1205,-5.0196,-4.8673,-4.6666,-4.4075,0.0,0.0,-3.9214,-3.8537,-3.8408,-3.9019,-4.0378,-4.2941,0.0,0.0,0.0,0.0,-5.1821,0.0,0.0,0.0,0.0,0.0,0.0,0.0,0.0,0.0,-5.6275,-5.5792,-5.516,-5.4619,-5.3271,-5.2486,-5.2366,-5.1708,-5.1379,-5.1379,-5.1259,-5.1169,-5.0973,-5.0435,-4.9823,-4.912,0.0,0.0,-4.7519,-4.7938,-4.8044,-4.7941,-4.8387,-4.8217,-4.7758,-4.7921,-4.7386,-4.6633,-4.6749,-4.6417,-4.5895,-4.5895,-4.5895,-4.5895,-4.5895,-4.5895,-4.5895,-4.5895,-4.5895,-4.5895,-4.5895,-4.5895,-4.5895,-4.5895,-4.5895,-4.5895,-4.5895,-4.5895,-4.5895,-4.5895,-4.5895,-4.5895,-4.5895,-4.5895,-4.5895,-4.5895,-4.5895,-4.5895,-4.5895,-4.5895,-4.5634,-4.4966,-4.4879,-4.4647,-4.4037,-4.3979,-4.3979,-4.3979,-4.3979,-4.4211,-4.4705,-4.4734,-4.4995,-4.5547,-4.5547,-4.5547,-4.5547,-4.5547,-4.5605,-4.5692,-4.4733,-4.4347,-5.0038,-5.0908,-5.1102,-5.0714,-4.9256,-4.7346,-4.5208,0.0,0.0,0.0,-3.8113,-3.777,-3.7415,0.0,0.0,0.0,0.0,0.0,0.0,0.0,0.0,0.0,0.0,0.0,0.0,0.0,0.0,0.0,0.0,0.0,-5.5628,-5.5029,-5.4221,-5.3204,-5.2546,-5.2037,-5.1678,-5.1379,-5.1229,-5.1229,-5.1229,-5.1229,-5.1199,-5.09,-5.0391,-4.9763,-4.9434,0.0,-4.8356,-4.8552,-4.8461,-4.822,-4.8407,-4.8295,-4.7998,-4.8272,-4.7759,-4.6836,-4.7201,-4.6708,-4.5895,-4.5895,-4.5895,-4.5895,-4.5895,-4.5895,-4.5895,-4.5895,-4.5895,-4.5895,-4.5895,-4.5895,-4.5895,-4.5895,-4.5895,-4.5895,-4.5895,-4.5895,-4.5895,-4.5895,-4.5895,-4.5895,-4.5895,-4.5895,-4.5895,-4.5895,-4.5895,-4.5895,-4.5895,-4.5895,-4.5779,-4.543,-4.5401,-4.5285,-4.4995,-4.4966,-4.4966,-4.4966,-4.4966,-4.5111,-4.5401,-4.5401,-4.5547,-4.5866,-4.5895,-4.5895,-4.5895,-4.5895,-4.5895,-4.5866,-4.4805,-4.4312,-5.0422,-5.1167,-5.1199,-5.0325,-4.8382,-4.6114,-4.3977,-4.1183,0.0,0.0,-3.7177,-3.7027,-3.6508,0.0,-3.8153,0.0,0.0,0.0,0.0,0.0,0.0,0.0,0.0,0.0,0.0,0.0,0.0,0.0,0.0,0.0,-5.497,-5.4341,-5.3443,-5.2247,-5.2067,-5.1738,-5.1229,-5.1229,-5.1229,-5.1229,-5.1229,-5.1229,-5.1229,-5.1079,-5.0674,-5.0196,-5.0046,0.0,0.0,-4.9161,-4.8992,-4.8685,-4.86,-4.8424,-4.8246,-4.874,-4.8217,-4.7242,-4.7666,-4.7027,-4.6069,-4.5924,-4.5982,-4.6069,-4.5924,-4.5982,-4.6098,-4.6098,-4.6098,-4.6127,-4.6243,-4.6301,-4.6272,-4.6127,-4.6185,-4.6243,-4.6127,-4.6185,-4.6301,-4.6301,-4.6301,-4.6301,-4.6301,-4.6185,-4.6098,-4.6098,-4.5982,-4.5895,-4.5895,-4.5895,-4.5895,-4.5895,-4.5895,-4.5895,-4.5895,-4.5895,-4.5895,-4.5895,-4.5895,-4.5895,-4.5895,-4.5895,-4.5895,-4.5895,-4.5895,-4.5776,-4.5549,-4.5549,-4.5458,-4.5201,-4.4125,-4.3626,-4.9807,-5.1135,-5.1782,-5.0455,-4.7993,-4.5365,-4.3253,0.0,0.0,-3.6631,-3.6477,-3.6477,-3.6415,-3.6507,-3.7001,-3.8297,0.0,-3.9599,0.0,0.0,0.0,0.0,0.0,0.0,0.0,0.0,0.0,0.0,0.0,0.0,0.0,-5.3653,-5.2935,-5.2217,-5.1618,-5.1289,-5.1229,-5.1229,-5.1229,-5.1229,-5.1229,-5.1229,-5.1199,-5.0554,-5.0255,-5.0166,0.0,0.0,0.0,-4.9637,-4.9643,-4.9469,-4.9772,-4.9766,-4.9494,-4.9582,-4.9146,-4.8478,-4.7956,-4.7317,-4.665,-4.6069,-4.6272,-4.665,-4.6069,-4.6272,-4.6691,-4.6691,-4.6691,-4.6882,-4.7462,-4.7608,-4.7462,-4.6882,-4.7172,-4.7462,-4.6882,-4.7201,-4.7608,-4.7608,-4.7608,-4.7608,-4.7608,-4.7114,-4.6691,-4.6691,-4.6243,-4.5895,-4.5895,-4.5895,-4.5895,-4.5895,-4.5895,-4.5895,-4.5895,-4.5895,-4.5895,-4.5895,-4.5895,-4.5895,-4.5895,-4.5895,-4.5895,-4.5895,-4.5895,-4.5429,-4.4452,-4.4452,-4.3984,-4.3081,-4.2012,-4.1468,-4.8835,-5.0487,-5.1232,-4.9807,-4.7001,-4.4186,-4.2484,0.0,0.0,-3.585,-3.5787,-3.5659,-3.527,-3.5529,-3.584,-3.6018,-3.6178,0.0,0.0,0.0,0.0,0.0,0.0,0.0,0.0,0.0,0.0,0.0,0.0,0.0,0.0,-5.2725,-5.2276,-5.1618,-5.1349,-5.1229,-5.1229,-5.1229,-5.1229,-5.1229,-5.1229,-5.1229,-5.1199,-5.0913,-5.0794,-5.0764,0.0,0.0,0.0,-5.0236,-5.0088,-4.985,-4.9873,-4.9766,-4.9717,-4.9717,-4.9262,-4.8624,-4.8014,-4.7375,-4.6691,-4.6098,-4.6563,-4.7288,-4.665,-4.6882,-4.7404,-4.7404,-4.7404,-4.7462,-4.7724,-4.7782,-4.7724,-4.7462,-4.7317,-4.7259,-4.7375,-4.7288,-4.7317,-4.7695,-4.7782,-4.7782,-4.7782,-4.7259,-4.6969,-4.7346,-4.6534,-4.6011,-4.6417,-4.5568,-4.5201,-4.5821,-4.5895,-4.5895,-4.5895,-4.5895,-4.564,-4.4989,-4.5549,-4.5595,-4.4943,-4.4943,-4.4943,-4.4943,-4.434,-4.3796,-4.3416,-4.3416,-4.3177,-4.2792,-4.1716,-4.1219,-4.713,-4.9143,-5.0196,-4.8738,-4.5891,-4.3047,0.0,0.0,0.0,-3.5169,-3.5073,-3.4971,-3.4467,-3.4773,-3.4938,-3.4467,-3.4968,-3.5892,-3.7393,0.0,0.0,0.0,0.0,0.0,0.0,0.0,0.0,0.0,0.0,0.0,0.0,-5.1917,-5.1708,-5.1229,-5.1229,-5.1229,-5.1229,-5.1229,-5.1109,-5.0883,-5.1139,-5.1109,-5.0883,-5.1139,-5.1229,-5.1229,0.0,0.0,0.0,-5.0567,-5.0357,-5.0086,-4.9766,-4.9717,-4.9717,-4.9717,-4.9262,-4.8624,-4.8014,-4.7375,-4.6691,-4.6098,-4.6737,-4.7695,-4.7259,-4.755,-4.8072,-4.8072,-4.8188,-4.8333,-4.8333,-4.8333,-4.8304,-4.8101,-4.7869,-4.7753,-4.8014,-4.784,-4.7811,-4.8246,-4.8333,-4.8238,-4.7952,-4.7575,-4.7409,-4.7577,-4.6649,-4.6102,-4.6562,-4.527,-4.4609,-4.5373,-4.5466,-4.5463,-4.5413,-4.5429,-4.4989,-4.3937,-4.4573,-4.4666,-4.389,-4.389,-4.389,-4.389,-4.3177,-4.2647,-4.2355,-4.2355,-4.2159,-4.1864,-4.1095,-4.0743,-4.4548,-4.6952,-4.8706,-4.7249,-4.4802,-4.2153,0.0,0.0,-3.5204,-3.4534,-3.4399,-3.4399,-3.4399,-3.4399,-3.4399,-3.4399,-3.4597,0.0,-3.6674,0.0,0.0,0.0,0.0,0.0,0.0,0.0,0.0,0.0,0.0,0.0,0.0,-5.1229,-5.1229,-5.1229,-5.1229,-5.1229,-5.1229,-5.1229,-5.09,-5.0196,-5.0853,-5.0823,-5.0226,-5.0883,-5.1229,0.0,0.0,0.0,0.0,-5.0567,-5.0357,-5.0086,-4.9766,-4.9717,-4.9717,-4.9717,-4.9262,-4.8624,-4.8014,-4.7375,-4.6691,-4.6098,-4.6737,-4.7782,-4.7782,-4.8217,-4.8663,-4.8663,-4.9175,-4.9688,-4.9688,-4.9688,-4.9494,-4.8856,-4.9175,-4.9465,-4.8856,-4.9204,-4.964,-4.9688,-4.9688,-4.9346,-4.8195,-4.8358,-4.8297,-4.7243,-4.6532,-4.609,-4.6139,-4.5079,-4.4377,-4.4377,-4.4455,-4.4414,-4.4303,-4.4312,-4.389,-4.2889,-4.284,-4.284,-4.284,-4.284,-4.284,-4.284,-4.2792,-4.2306,-4.1219,-4.1219,-4.0693,-3.9749,-3.9749,-3.9749,-4.165,-4.3357,-4.4539,-4.3595,-4.16,-3.9593,-3.8405,0.0,-3.4668,-3.4433,-3.4399,-3.4399,-3.4399,-3.4399,-3.4399,-3.4399,-3.4635,-3.5163,0.0,0.0,0.0,0.0,0.0,0.0,0.0,0.0,0.0,0.0,0.0,0.0,0.0,0.0,-5.0495,-5.0495,-5.0943,-5.099,-5.0495,-5.0943,-5.1109,-5.0853,-5.1109,-5.1109,-5.0853,-5.1109,0.0,0.0,0.0,0.0,0.0,-5.0548,-5.0231,-4.9815,-4.9717,-4.9717,-4.9717,-4.9717,-4.9262,-4.8682,-4.8508,-4.7724,-4.6749,-4.6592,-4.6795,-4.7201,-4.7637,-4.8537,-4.9378,-4.9378,-4.9524,-4.9717,-4.9717,-4.9717,-4.964,-4.9407,-4.9204,-4.9088,-4.932,-4.9175,-4.9146,-4.9582,-4.905,-4.8703,-4.91,-4.7637,-4.6706,-4.7556,-4.6117,-4.5094,-4.5555,-4.4318,-4.3617,-4.4303,-4.377,-4.3501,-4.3813,-4.3828,-4.3199,-4.1792,-4.2404,-4.2452,-4.1766,-4.1716,-4.1716,-4.1716,-4.1045,-4.0516,-4.016,-4.016,-4.0032,-3.9697,-3.9697,-3.9697,0.0,-4.0697,-4.1837,-4.109,-3.9555,0.0,0.0,0.0,0.0,-3.4399,-3.4399,-3.4399,-3.4399,-3.4399,-3.4399,-3.4399,-3.4668,0.0,0.0,0.0,0.0,0.0,0.0,0.0,0.0,0.0,0.0,0.0,0.0,0.0,0.0,0.0,-5.0391,-4.9883,-5.0511,-5.0734,-5.0554,-5.102,-5.1079,-5.0794,-5.1109,-5.1079,-5.0823,-5.1063,0.0,0.0,0.0,0.0,0.0,-5.0405,-5.0086,-4.9717,-4.9717,-4.9524,-4.932,-4.932,-4.8769,-4.7996,-4.8275,-4.7695,-4.6807,-4.7114,-4.7346,-4.7666,-4.8304,-4.9059,-4.9717,-4.9717,-4.9717,-4.9717,-4.9717,-4.9717,-4.9717,-4.9717,-4.9378,-4.9175,-4.9582,-4.9349,-4.9204,-4.9611,-4.8802,-4.8072,-4.8374,-4.6897,-4.5964,-4.6657,-4.5464,-4.4647,-4.5073,-4.3833,-4.32,-4.3809,-4.3306,-4.2967,-4.3046,-4.3057,-4.2351,-4.0744,-4.1246,-4.1345,-4.0642,-4.0642,-4.0642,-4.0642,-4.0032,-3.9697,-3.9697,-3.9697,-3.9697,-3.9697,-3.9697,-3.9697,0.0,-3.8747,0.0,0.0,0.0,0.0,0.0,0.0,0.0,-3.4399,-3.4399,-3.4399,-3.4399,-3.4399,-3.4428,-3.4428,-3.4731,0.0,0.0,0.0,0.0,0.0,0.0,0.0,0.0,0.0,0.0,0.0,0.0,0.0,0.0,0.0,-5.0481,-4.9359,-4.9823,-5.0345,-5.102,-5.105,-5.078,-5.0136,-5.078,-5.075,-5.0136,-5.081,0.0,0.0,0.0,0.0,0.0,-5.0183,-4.9941,-4.9717,-4.964,-4.9233,-4.8663,-4.8682,-4.788,-4.6998,-4.7637,-4.7433,-4.6952,-4.7579,-4.8217,-4.8827,-4.9436,-4.964,-4.9717,-4.9717,-4.9717,-4.9717,-4.9717,-4.9717,-4.9717,-4.9717,-4.9717,-4.9717,-4.9717,-4.9717,-4.9669,-4.9571,-4.8653,-4.7536,-4.6476,-4.6162,-4.5767,-4.4832,-4.4615,-4.4561,-4.4561,-4.3657,-4.2986,-4.2986,-4.2986,-4.276,-4.2263,-4.2134,-4.1441,-3.9899,-3.9772,-3.9747,-3.9747,-3.9722,-3.9697,-3.9697,-3.9747,-3.9747,-3.9697,-3.9747,-3.9747,-3.9697,-3.9747,-3.9747,-3.4986,0.0,-3.5857,-3.5676,-3.5394,-3.5083,0.0,0.0,0.0,0.0,0.0,0.0,0.0,-3.453,-3.4631,-3.4631,0.0,0.0,0.0,0.0,0.0,0.0,0.0,0.0,0.0,0.0,0.0,0.0,0.0,0.0,0.0,0.0,-4.9075,-4.9299,-4.8925,-4.8805,-4.8985,-4.9464,-4.9643,-4.9494,-4.9643,-4.9643,-4.9494,-4.9643,0.0,0.0,0.0,0.0,-4.9764,-4.9978,-4.9941,-4.964,-4.9146,-4.8856,-4.8653,-4.8188,-4.7811,-4.7637,-4.8275,-4.8072,-4.7579,-4.7724,-4.8217,-4.874,-4.8914,-4.9291,-4.9717,-4.9717,-4.9717,-4.9717,-4.9717,-4.9717,-4.9717,-4.9717,-4.9717,-4.9717,-4.9717,-4.9717,-4.9424,-4.8603,-4.7485,-4.658,-4.6319,-4.4913,-4.3987,-4.4615,-4.3932,-4.3406,-4.3406,-4.3184,-4.2986,-4.2986,-4.2986,-4.276,-4.2263,-4.2178,-4.1799,-4.0978,-4.0551,-4.0325,-4.0325,-3.9923,-3.9697,-3.9697,-4.0099,-4.0124,-3.9697,-4.0124,-4.0099,-3.9697,-4.0124,-4.0325,-3.4399,-3.4399,-3.4399,-3.4399,-3.4399,-3.4399,-3.4399,0.0,0.0,0.0,0.0,0.0,0.0,0.0,0.0,0.0,0.0,0.0,0.0,0.0,0.0,0.0,0.0,0.0,0.0,0.0,0.0,0.0,0.0,0.0,0.0,0.0,-4.8745,-4.885,-4.8476,-4.8446,-4.879,-4.912,-4.9299,-4.9299,-4.9299,-4.9299,-4.9299,-4.9299,0.0,0.0,0.0,0.0,-4.9009,-4.9062,-4.897,-4.8769,-4.842,-4.8101,-4.7764,-4.7462,-4.7172,-4.7056,-4.7956,-4.8449,-4.8653,-4.8653,-4.8885,-4.9175,-4.9175,-4.9407,-4.9717,-4.9717,-4.9717,-4.9717,-4.9717,-4.9717,-4.9571,-4.905,-4.9326,-4.9571,-4.905,-4.8902,-4.8753,-4.8122,-4.666,-4.5555,-4.5555,-4.4152,-4.3184,-4.3823,-4.3406,-4.2986,-4.2986,-4.2986,-4.2986,-4.2986,-4.2986,-4.2861,-4.2615,-4.259,-4.2183,-4.1326,-4.1,-4.0902,-4.0902,-4.0375,-4.0074,-4.0074,-4.0601,-4.0752,-4.045,-4.0752,-4.0752,-4.045,-4.0752,-4.0902,-3.4399,-3.4399,-3.4399,-3.4399,-3.4399,-3.4399,-3.4399,0.0,0.0,0.0,0.0,0.0,0.0,0.0,0.0,0.0,0.0,0.0,0.0,0.0,0.0,0.0,0.0,0.0,0.0,0.0,0.0,0.0,0.0,0.0,0.0,0.0,0.0,-4.8147,-4.8147,-4.8416,-4.9,-4.9,-4.9,-4.9,-4.9,-4.9,-4.9,-4.9,-4.8955,0.0,0.0,0.0,-4.8286,-4.794,-4.7782,-4.7782,-4.7666,-4.7317,-4.6778,-4.6691,-4.6475,-4.6359,-4.7637,-4.8817,-4.9717,-4.9717,-4.9717,-4.9717,-4.9717,-4.9717,-4.9717,-4.9717,-4.9717,-4.9717,-4.9717,-4.9717,-4.9473,-4.8474,-4.9001,-4.9424,-4.8223,-4.8021,-4.792,-4.7564,-4.5979,-4.4615,-4.4479,-4.3628,-4.2986,-4.2986,-4.2986,-4.2986,-4.2986,-4.2986,-4.2986,-4.2986,-4.2986,-4.3011,-4.3087,-4.3037,-4.261,-4.1702,-4.1501,-4.1376,-4.1275,-4.0824,-4.0651,-4.0651,-4.1178,-4.1376,-4.1275,-4.1376,-4.1376,-4.1275,-4.1376,-4.1455,-3.4399,-3.4399,-3.4399,-3.4399,-3.4399,-3.4399,-3.4399,-3.4399,0.0,0.0,0.0,0.0,0.0,0.0,0.0,0.0,0.0,0.0,0.0,0.0,0.0,0.0,0.0,0.0,0.0,0.0,0.0,0.0,0.0,0.0,0.0,0.0,0.0,-4.7459,-4.7459,-4.7489,-4.7608,-4.7608,-4.7608,-4.7608,-4.7608,-4.7608,-4.7608,-4.7608,-4.7448,0.0,0.0,-4.7564,-4.7395,-4.7719,-4.7782,-4.7724,-4.7201,-4.6865,-4.672,-4.6243,-4.665,-4.7666,-4.8991,-4.9572,-4.9717,-4.9717,-4.9717,-4.9717,-4.9717,-4.9717,-4.9717,-4.9717,-4.9717,-4.9717,-4.9717,-4.9717,-4.9669,-4.9473,-4.9571,-4.9424,-4.8223,-4.8021,-4.7462,-4.5582,-4.494,-4.4424,-4.3406,-4.3129,-4.2986,-4.2986,-4.2986,-4.2986,-4.2986,-4.2986,-4.2986,-4.2986,-4.2986,-4.3162,-4.3639,-4.3237,-4.3112,-4.3413,-4.2534,-4.1831,-4.13,-4.12,-4.1175,-4.1175,-4.1756,-4.1806,-4.1275,-4.1806,-4.1781,-4.13,-4.1806,-4.2087,-3.4399,-3.4399,-3.4399,-3.4399,-3.4399,-3.4399,-3.4399,-3.469,0.0,0.0,0.0,0.0,0.0,0.0,0.0,0.0,0.0,0.0,0.0,0.0,0.0,0.0,0.0,0.0,0.0,0.0,0.0,0.0,0.0,0.0,0.0,0.0,0.0,0.0,-4.7309,-4.7309,-4.7309,-4.7309,-4.7309,-4.7309,-4.7309,-4.7309,-4.7309,-4.7309,-4.7149,-4.6887,0.0,-4.6872,-4.6648,-4.6712,-4.6766,-4.6737,-4.6446,-4.633,-4.633,-4.6388,-4.7201,-4.8362,-4.8972,-4.9378,-4.9717,-4.9717,-4.9717,-4.9717,-4.9717,-4.9717,-4.9717,-4.9717,-4.9717,-4.9717,-4.9717,-4.9248,-4.8624,-4.7993,-4.7841,-4.7536,-4.6451,-4.6189,-4.5926,-4.4886,-4.4206,-4.3628,-4.3098,-4.2986,-4.2986,-4.2986,-4.2986,-4.2986,-4.2986,-4.2986,-4.2986,-4.2986,-4.3237,-4.3539,-4.379,-4.384,-4.3714,-4.3388,-4.2886,-4.2414,-4.1806,-4.2057,-4.2082,-4.1781,-4.2308,-4.2484,-4.2233,-4.2484,-4.2459,-4.2233,-4.2484,-4.2665,-3.4399,-3.4399,-3.4399,-3.4399,-3.4399,-3.4457,-3.4603,-3.5009,-3.545,0.0,0.0,0.0,0.0,0.0,0.0,0.0,0.0,0.0,0.0,0.0,0.0,0.0,0.0,0.0,0.0,0.0,0.0,0.0,0.0,0.0,0.0,0.0,0.0,0.0,-4.7309,-4.7309,-4.7309,-4.7309,-4.7309,-4.7309,-4.7309,-4.7309,-4.7309,-4.7222,-4.7062,-4.68,-4.658,-4.6358,-4.6135,-4.5956,-4.5895,-4.5895,-4.5895,-4.5982,-4.6185,-4.6824,-4.7753,-4.8692,-4.8885,-4.9262,-4.9717,-4.9717,-4.9717,-4.9717,-4.9717,-4.9717,-4.9717,-4.9717,-4.9522,-4.9326,-4.9326,-4.8653,-4.7717,-4.658,-4.6267,-4.6032,-4.494,-4.467,-4.4615,-4.437,-4.3628,-4.3011,-4.3162,-4.3062,-4.3011,-4.3162,-4.3062,-4.2986,-4.2986,-4.3087,-4.3162,-4.3162,-4.3664,-4.394,-4.3815,-4.4292,-4.4141,-4.3037,-4.2986,-4.2841,-4.2414,-4.276,-4.2841,-4.2414,-4.276,-4.2986,-4.2986,-4.2986,-4.2986,-4.2986,-4.2986,-4.2986,-3.4399,-3.4399,-3.4399,-3.4399,-3.4399,-3.4574,-3.5189,-3.5363,0.0,-3.6112,0.0,0.0,0.0,0.0,0.0,0.0,0.0,0.0,0.0,0.0,0.0,0.0,0.0,0.0,0.0,0.0,0.0,0.0,0.0,0.0,0.0,0.0,0.0,0.0,0.0,-4.7309,-4.7309,-4.7309,-4.7309,-4.7309,-4.7309,-4.7309,-4.7309,-4.7019,-4.68,-4.6609,-4.6358,-4.609,-4.594,-4.594,-4.5895,-4.5895,-4.5895,-4.6243,-4.6853,-4.7462,-4.813,-4.8798,-4.9407,-4.964,-4.9717,-4.9717,-4.9717,-4.9717,-4.9717,-4.9717,-4.9717,-4.9717,-4.8951,-4.8122,-4.8122,-4.8072,-4.7717,-4.658,-4.6267,-4.6032,-4.494,-4.467,-4.4424,-4.3351,-4.3042,-4.3137,-4.3664,-4.3313,-4.3162,-4.3664,-4.3313,-4.2986,-4.2986,-4.3413,-4.374,-4.374,-4.4242,-4.4367,-4.384,-4.4292,-4.4141,-4.3037,-4.2986,-4.2961,-4.2911,-4.2961,-4.2961,-4.2911,-4.2961,-4.2986,-4.2986,-4.2986,-4.2986,-4.2986,-4.2986,-4.2986,-3.4399,-3.4399,-3.4399,-3.4399,-3.4399,0.0,0.0,-3.672,-3.7434,-3.7631,-3.8735,0.0,0.0,0.0,0.0,0.0,0.0,0.0,0.0,0.0,0.0,0.0,0.0,0.0,0.0,0.0,0.0,0.0,0.0,0.0,0.0,0.0,0.0,0.0,0.0,-4.7309,-4.7309,-4.7309,-4.7309,-4.7309,-4.7309,-4.7309,-4.7309,-4.7019,-4.68,-4.6609,-4.6314,-4.609,-4.5895,-4.5895,-4.5895,-4.5924,-4.633,-4.6853,-4.7491,-4.813,-4.8769,-4.9349,-4.9582,-4.9717,-4.9717,-4.9717,-4.9717,-4.9717,-4.9717,-4.9717,-4.9571,-4.8852,-4.8324,-4.8021,-4.8021,-4.6971,-4.582,-4.5395,-4.4752,-4.4126,-4.3713,-4.3657,-4.3517,-4.3073,-4.3263,-4.3438,-4.3313,-4.3388,-4.3564,-4.3765,-4.3338,-4.3212,-4.3915,-4.389,-4.394,-4.4267,-4.4819,-4.507,-4.4869,-4.5045,-4.4669,-4.3564,-4.3162,-4.2986,-4.2986,-4.2986,-4.2986,-4.2986,-4.2986,-4.2986,-4.2986,-4.2986,-4.3162,-4.3489,-4.3489,-4.3689,-3.4496,-3.453,-3.4568,-3.4568,0.0,0.0,-3.6756,-3.7887,-3.878,-3.932,-4.0577,0.0,0.0,0.0,0.0,0.0,0.0,0.0,0.0,0.0,0.0,0.0,0.0,0.0,0.0,0.0,0.0,0.0,0.0,0.0,0.0,0.0,0.0,0.0,0.0,-4.7309,-4.7309,-4.7309,-4.7309,-4.7309,-4.7309,-4.7309,-4.7309,-4.6931,-4.6712,-4.658,-4.6269,-4.6001,-4.5895,-4.5895,-4.5895,-4.5924,-4.6359,-4.7056,-4.784,-4.8275,-4.8972,-4.9717,-4.9717,-4.9717,-4.9717,-4.9717,-4.9717,-4.9717,-4.9717,-4.9473,-4.9001,-4.8223,-4.7513,-4.6971,-4.6971,-4.582,-4.4615,-4.4261,-4.3572,-4.3037,-4.3212,-4.3237,-4.3288,-4.3463,-4.379,-4.3991,-4.3815,-4.394,-4.4116,-4.4317,-4.3865,-4.3765,-4.4518,-4.4443,-4.4543,-4.5095,-4.5522,-4.5673,-4.5497,-4.5497,-4.4995,-4.3865,-4.3614,-4.3338,-4.2986,-4.3137,-4.3237,-4.3237,-4.3413,-4.3489,-4.3489,-4.3489,-4.3689,-4.4066,-4.4066,-4.4267,-3.4698,-3.4802,-3.4902,0.0,0.0,0.0,-3.8354,-3.8686,-3.9161,-4.1125,-4.1283,-4.1317,-4.201,0.0,0.0,0.0,0.0,0.0,0.0,0.0,0.0,0.0,0.0,0.0,0.0,0.0,0.0,0.0,0.0,0.0,0.0,0.0,0.0,0.0,0.0,0.0,-4.7309,-4.7309,-4.7309,-4.7309,-4.7309,-4.7309,-4.7266,-4.6829,-4.6609,-4.6535,-4.612,-4.5895,-4.5895,-4.5895,-4.5895,-4.5895,-4.5895,-4.6679,-4.7782,-4.7782,-4.8595,-4.9717,-4.9717,-4.9669,-4.9717,-4.9717,-4.9717,-4.9717,-4.9669,-4.8902,-4.8021,-4.7971,-4.6399,-4.467,-4.467,-4.467,-4.4424,-4.324,-4.2986,-4.3137,-4.3689,-4.379,-4.3966,-4.4518,-4.4618,-4.4819,-4.5372,-4.502,-4.4819,-4.5397,-4.4995,-4.4618,-4.4644,-4.5121,-4.5698,-4.625,-4.6301,-4.6075,-4.5547,-4.5497,-4.502,-4.389,-4.4317,-4.4141,-4.3037,-4.3514,-4.3815,-4.3815,-4.4342,-4.4618,-4.4618,-4.4618,-4.4618,-4.4644,-4.4644,-4.4644,-3.4698,-3.4802,0.0,-3.4902,0.0,0.0,0.0,-3.9225,0.0,0.0,-4.2575,-4.2315,0.0,0.0,0.0,0.0,0.0,0.0,0.0,0.0,0.0,0.0,0.0,0.0,0.0,0.0,0.0,0.0,0.0,0.0,0.0,0.0,0.0,0.0,0.0,0.0,-4.7309,-4.7309,-4.7309,-4.7309,-4.7106,-4.7019,-4.7019,-4.6712,-4.6491,-4.6314,-4.6001,-4.5895,-4.5895,-4.5895,-4.5895,-4.5924,-4.6388,-4.6766,-4.7172,-4.7608,-4.8304,-4.9001,-4.9001,-4.9291,-4.9717,-4.9717,-4.9717,-4.9571,-4.8753,-4.8274,-4.7666,-4.6137,-4.5208,-4.4507,-4.3713,-4.3517,-4.3406,-4.3073,-4.2986,-4.3137,-4.3689,-4.379,-4.3966,-4.4518,-4.4945,-4.5171,-4.492,-4.507,-4.5296,-4.5472,-4.4995,-4.4769,-4.5171,-4.5723,-4.6125,-4.6301,-4.6301,-4.6075,-4.5547,-4.5849,-4.5573,-4.4443,-4.492,-4.4719,-4.3614,-4.4091,-4.4367,-4.4367,-4.4543,-4.4618,-4.4618,-4.4618,-4.4844,-4.5221,-4.5221,-4.5447,-3.4898,-3.503,0.0,-3.5459,-3.6531,-3.7896,-3.9469,0.0,0.0,0.0,0.0,0.0,0.0,0.0,0.0,0.0,0.0,0.0,0.0,0.0,0.0,0.0,0.0,0.0,0.0,0.0,0.0,0.0,0.0,0.0,0.0,0.0,0.0,0.0,0.0,0.0,-4.692,-4.7189,-4.7309,-4.7309,-4.7019,-4.6844,-4.6756,-4.6535,-4.6358,-4.6225,-4.6001,-4.5895,-4.5895,-4.5895,-4.5895,-4.5924,-4.6301,-4.6621,-4.6836,-4.7259,-4.7811,-4.8344,-4.8143,-4.8634,-4.9175,-4.8539,-4.8674,-4.8802,-4.7638,-4.7023,-4.6399,-4.5101,-4.437,-4.3878,-4.3184,-4.2986,-4.2986,-4.2986,-4.2986,-4.3137,-4.3689,-4.3966,-4.4292,-4.4869,-4.5422,-4.5698,-4.5347,-4.5573,-4.5824,-4.5824,-4.5522,-4.5422,-4.5773,-4.61,-4.6301,-4.6301,-4.6301,-4.6175,-4.5849,-4.6125,-4.5924,-4.502,-4.5497,-4.5422,-4.4518,-4.4794,-4.497,-4.497,-4.5196,-4.5296,-4.5296,-4.5296,-4.5472,-4.5824,-4.5824,-4.5999,-3.5162,0.0,0.0,-3.6327,-3.7524,0.0,0.0,0.0,0.0,0.0,0.0,0.0,0.0,0.0,0.0,0.0,0.0,0.0,0.0,0.0,0.0,0.0,0.0,0.0,0.0,0.0,0.0,0.0,0.0,0.0,0.0,0.0,0.0,0.0,0.0,0.0,-4.619,-4.6847,-4.7176,0.0,-4.6858,-4.6668,-4.6535,-4.6225,-4.6061,-4.6016,-4.5821,-4.573,-4.573,-4.573,-4.573,-4.573,-4.573,-4.6152,-4.6691,-4.6599,-4.7004,-4.747,-4.7003,-4.7474,-4.8132,-4.6668,-4.694,-4.7582,-4.6476,-4.5449,-4.467,-4.4561,-4.3768,-4.2986,-4.2986,-4.2986,-4.2986,-4.2986,-4.3011,-4.3187,-4.3689,-4.4242,-4.4794,-4.5372,-4.5899,-4.625,-4.6301,-4.6301,-4.6301,-4.6301,-4.6301,-4.6301,-4.6301,-4.6301,-4.6301,-4.6301,-4.6301,-4.6301,-4.6301,-4.6301,-4.61,-4.5598,-4.6024,-4.6075,-4.5573,-4.5573,-4.5573,-4.5573,-4.605,-4.6301,-4.6301,-4.6301,-4.6301,-4.6301,-4.6301,-4.6301,-3.5195,-3.5359,0.0,0.0,-3.8242,0.0,0.0,0.0,0.0,0.0,0.0,0.0,0.0,0.0,0.0,0.0,0.0,0.0,0.0,0.0,0.0,0.0,0.0,0.0,0.0,0.0,0.0,0.0,0.0,0.0,0.0,0.0,0.0,0.0,0.0,-4.5663,-4.5514,-4.6032,-4.6304,0.0,-4.5531,-4.5582,-4.6269,-4.5401,-4.4915,-4.4684,-4.4638,-4.4666,-4.4666,-4.4666,-4.4666,-4.4666,-4.4666,-4.5241,-4.5978,-4.5143,-4.5261,-4.5684,-4.4753,-4.4914,-4.5558,-4.5656,-4.5847,-4.5929,-4.5263,-4.4886,-4.4507,-4.3628,-4.3184,-4.2986,-4.2986,-4.2986,-4.2986,-4.2986,-4.3313,-4.3664,-4.379,-4.4242,-4.4794,-4.5372,-4.5573,-4.5799,-4.6225,-4.6301,-4.6301,-4.6301,-4.6301,-4.6301,-4.6301,-4.6301,-4.6301,-4.6301,-4.6301,-4.6301,-4.6301,-4.6301,-4.625,-4.615,-4.625,-4.625,-4.6125,-4.6125,-4.6125,-4.6125,-4.625,-4.6301,-4.6301,-4.6301,-4.6301,-4.6301,-4.6301,-4.6301,-3.5326,0.0,0.0,-3.7075,0.0,0.0,0.0,0.0,0.0,0.0,0.0,0.0,0.0,0.0,0.0,0.0,0.0,0.0,0.0,0.0,0.0,0.0,0.0,0.0,0.0,0.0,0.0,0.0,0.0,0.0,0.0,0.0,0.0,0.0,-4.5125,-4.5155,-4.4825,-4.5388,-4.5632,-4.5505,-4.4469,-4.4038,-4.4213,-4.4938,-4.5201,-4.5035,-4.4499,-4.4312,-4.4312,-4.4312,-4.4312,-4.4312,-4.4312,-4.4666,-4.4989,-4.3984,-4.38,-4.3987,-4.321,-4.3479,-4.413,-4.3675,-4.4045,-4.4519,-4.3743,-4.3672,-4.3768,-4.3184,-4.2986,-4.2986,-4.2986,-4.2986,-4.2986,-4.2986,-4.3187,-4.3413,-4.3413,-4.4041,-4.4644,-4.4669,-4.5321,-4.5899,-4.5924,-4.6125,-4.6301,-4.6301,-4.6301,-4.6301,-4.6301,-4.6301,-4.6301,-4.6301,-4.6301,-4.6301,-4.6301,-4.6301,-4.6301,-4.6301,-4.6301,-4.6301,-4.6301,-4.6301,-4.6301,-4.6301,-4.6301,-4.6301,-4.6301,-4.6301,-4.6301,-4.6301,-4.6301,-4.6301,-3.5424,0.0,-3.6118,-3.7943,0.0,0.0,0.0,0.0,0.0,0.0,0.0,0.0,0.0,0.0,0.0,0.0,0.0,0.0,0.0,0.0,0.0,0.0,0.0,0.0,0.0,0.0,0.0,0.0,0.0,0.0,0.0,0.0,-4.4706,-4.4127,-4.4676,-4.4706,-4.4137,-4.4713,-4.4918,-4.478,-4.3618,-4.2621,-4.1902,-4.4196,-4.5298,-4.5293,-4.4434,-4.3937,-4.3768,-4.3768,-4.3768,-4.3768,-4.3768,-4.389,-4.3937,-4.2889,-4.255,-4.2409,-4.1896,-4.2255,-4.2788,-4.1561,-4.2098,-4.3122,-4.241,-4.2539,-4.2861,-4.2961,-4.2986,-4.2986,-4.2986,-4.2986,-4.2986,-4.2986,-4.3062,-4.3112,-4.3112,-4.384,-4.4367,-4.4016,-4.5146,-4.605,-4.5698,-4.5999,-4.6301,-4.6301,-4.6301,-4.6301,-4.6301,-4.6301,-4.6301,-4.6301,-4.6301,-4.6301,-4.6301,-4.6301,-4.6301,-4.6301,-4.6301,-4.6301,-4.6301,-4.6301,-4.6351,-4.6451,-4.6351,-4.6301,-4.6301,-4.6301,-4.6301,-4.6301,-4.6301,-4.6301,0.0,0.0,-3.6686,0.0,0.0,0.0,0.0,0.0,0.0,0.0,0.0,0.0,0.0,0.0,0.0,0.0,0.0,0.0,0.0,0.0,0.0,0.0,0.0,0.0,0.0,0.0,0.0,0.0,0.0,0.0,0.0,-4.3559,-4.3529,-4.3439,-4.3499,-4.3499,-4.3409,-4.3731,-4.3921,-4.3879,-4.2982,-4.2064,-4.1164,-4.209,-4.2779,-4.3225,-4.3081,-4.2474,-4.1617,-4.1617,-4.1617,-4.1617,-4.1617,-4.2208,-4.2889,-4.1815,-4.1419,-4.1295,-4.0364,-4.0107,-4.0286,-4.0555,-4.0782,-4.1115,-4.1911,-4.2263,-4.2414,-4.2836,-4.2986,-4.2986,-4.2986,-4.2986,-4.2986,-4.2986,-4.3338,-4.3689,-4.3689,-4.3815,-4.4041,-4.4443,-4.5095,-4.5723,-4.6125,-4.625,-4.6301,-4.6301,-4.6301,-4.6301,-4.6301,-4.6301,-4.6301,-4.6301,-4.6301,-4.6301,-4.6301,-4.6301,-4.6301,-4.6301,-4.6301,-4.6301,-4.6301,-4.6301,-4.6527,-4.6943,-4.6552,-4.6301,-4.6301,-4.6301,-4.6301,-4.6301,-4.6301,-4.6301,-3.5519,-3.5998,-3.6716,0.0,0.0,0.0,0.0,0.0,0.0,0.0,0.0,0.0,0.0,0.0,0.0,0.0,0.0,0.0,0.0,0.0,0.0,0.0,0.0,0.0,0.0,0.0,0.0,0.0,0.0,0.0,-4.329,-4.329,-4.329,-4.329,-4.329,-4.329,-4.329,-4.3307,-4.266,-4.1369,-4.1246,-4.0695,-3.9774,-4.097,-4.1801,-4.2351,-4.1999,-4.1667,-4.1219,-4.1219,-4.1219,-4.1219,-4.1219,-4.1468,-4.1766,-4.0743,-4.0364,-4.0313,-3.9826,-3.9697,-3.9747,-3.9973,-4.0475,-4.1053,-4.1555,-4.2133,-4.2715,-4.2911,-4.2986,-4.2986,-4.2986,-4.2986,-4.3062,-4.3363,-4.3639,-4.389,-4.4192,-4.4518,-4.492,-4.5472,-4.5522,-4.5673,-4.6225,-4.6301,-4.6301,-4.6301,-4.6301,-4.6301,-4.6301,-4.6301,-4.6301,-4.6301,-4.6301,-4.6301,-4.6301,-4.6301,-4.6301,-4.6301,-4.6301,-4.6451,-4.6753,-4.6778,-4.7029,-4.7556,-4.7054,-4.6928,-4.7205,-4.6903,-4.6778,-4.6753,-4.6451,-4.6476,0.0,0.0,0.0,0.0,0.0,0.0,0.0,0.0,0.0,0.0,0.0,0.0,0.0,0.0,0.0,0.0,0.0,0.0,0.0,0.0,0.0,0.0,0.0,0.0,0.0,0.0,0.0,0.0,0.0,0.0,-4.329,-4.309,-4.309,-4.329,-4.305,-4.301,-4.329,-4.282,-4.1504,-3.9448,-3.9537,-3.9207,-3.8516,-3.9608,-4.0428,-4.0994,-4.0995,-4.0939,-4.0844,-4.0844,-4.0844,-4.0844,-4.0844,-4.0844,-4.0743,-3.9981,-3.9697,-3.9697,-3.9697,-3.9697,-3.9722,-3.9848,-4.045,-4.1125,-4.1455,-4.2108,-4.2866,-4.2936,-4.2986,-4.3011,-4.3162,-4.3187,-4.3288,-4.3689,-4.4016,-4.4267,-4.4392,-4.4869,-4.5397,-4.5799,-4.5673,-4.5673,-4.6225,-4.6301,-4.6301,-4.6301,-4.6301,-4.6301,-4.6301,-4.6301,-4.6301,-4.6301,-4.6301,-4.6301,-4.6301,-4.6301,-4.6301,-4.6301,-4.6451,-4.6702,-4.7043,-4.7193,-4.7581,-4.8109,-4.7757,-4.7657,-4.7908,-4.7531,-4.733,-4.733,-4.6903,-4.6928,0.0,-3.5519,0.0,0.0,0.0,0.0,0.0,0.0,0.0,0.0,0.0,0.0,0.0,0.0,0.0,0.0,0.0,0.0,0.0,0.0,0.0,0.0,0.0,0.0,0.0,0.0,0.0,0.0,0.0,0.0,-4.329,-4.2537,-4.2456,-4.325,-4.2322,-4.2281,-4.329,-4.2017,-4.0646,-3.921,-3.8323,-3.7893,-3.7828,-3.7534,-3.7707,-3.8263,-3.9783,-4.0203,-3.98,-3.98,-3.98,-3.98,-3.98,-3.98,-3.98,-3.9749,-3.9697,-3.9697,-3.9697,-3.9697,-3.9772,-4.03,-4.0526,-4.0752,-4.1861,-4.2213,-4.2363,-4.2891,-4.2986,-4.3112,-4.3614,-4.3765,-4.3765,-4.379,-4.4618,-4.5121,-4.4066,-4.4292,-4.4669,-4.4694,-4.5121,-4.5673,-4.6225,-4.6301,-4.6301,-4.6301,-4.6301,-4.6301,-4.6301,-4.6301,-4.6301,-4.6301,-4.6301,-4.6301,-4.6301,-4.6301,-4.6301,-4.6301,-4.6803,-4.7043,-4.7068,-4.7606,-4.8134,-4.8711,-4.8711,-4.8435,-4.7908,-4.7883,-4.7857,-4.7857,-4.7832,-4.7832,0.0,0.0,0.0,0.0,0.0,0.0,0.0,0.0,0.0,0.0,0.0,0.0,0.0,0.0,0.0,0.0,0.0,0.0,0.0,0.0,0.0,0.0,0.0,0.0,0.0,0.0,0.0,0.0,0.0,0.0,-4.1011,-4.0681,-4.064,-4.097,-4.1567,-4.1922,-4.2017,-4.0161,-3.8917,-3.8296,-3.7361,-3.6896,-3.6922,-3.6748,-3.7161,-3.8015,-3.8586,-3.917,-3.9697,-3.9697,-3.9697,-3.9697,-3.9697,-3.9697,-3.9697,-3.9697,-3.9697,-3.9697,-3.9697,-3.9697,-3.9722,-3.9923,-4.0475,-4.1075,-4.1505,-4.2133,-4.2766,-4.2911,-4.3237,-4.3564,-4.374,-4.4066,-4.4418,-4.4794,-4.5196,-4.5372,-4.497,-4.5045,-4.5171,-4.5171,-4.5623,-4.6075,-4.6276,-4.6301,-4.6301,-4.6301,-4.6301,-4.6301,-4.6301,-4.6301,-4.6301,-4.6301,-4.6301,-4.6301,-4.6301,-4.6301,-4.6451,-4.6803,-4.6968,-4.7456,-4.8159,-4.836,-4.8736,-4.9289,-4.9289,-4.9188,-4.8987,-4.8636,-4.846,-4.846,-4.8083,-4.8109,-3.5519,0.0,0.0,0.0,0.0,0.0,0.0,0.0,0.0,0.0,0.0,0.0,0.0,0.0,0.0,0.0,0.0,0.0,0.0,0.0,0.0,0.0,0.0,0.0,0.0,0.0,0.0,0.0,0.0,0.0,-3.9422,-3.9117,-3.8908,-3.8852,-4.0321,-4.0758,-3.9953,-3.872,-3.7861,-3.7315,-3.6687,-3.6405,-3.6405,-3.6405,-3.6908,-3.7739,-3.7914,-3.8642,-3.9697,-3.9697,-3.9697,-3.9697,-3.9697,-3.9697,-3.9697,-3.9697,-3.9697,-3.9697,-3.9697,-3.9697,-3.9722,-3.9898,-4.0601,-4.1326,-4.1555,-4.2258,-4.2986,-4.2986,-4.3363,-4.384,-4.4041,-4.4493,-4.5045,-4.5623,-4.5623,-4.5497,-4.5497,-4.5497,-4.5497,-4.5497,-4.5924,-4.6301,-4.6301,-4.6301,-4.6301,-4.6301,-4.6301,-4.6301,-4.6301,-4.6301,-4.6301,-4.6301,-4.6301,-4.6376,-4.6577,-4.6602,-4.6828,-4.7355,-4.7581,-4.8008,-4.8736,-4.8962,-4.9213,-4.959,-4.959,-4.959,-4.959,-4.9213,-4.9063,-4.9038,-4.8661,-4.8686,0.0,0.0,0.0,0.0,0.0,0.0,0.0,0.0,0.0,0.0,0.0,0.0,0.0,0.0,0.0,0.0,0.0,0.0,0.0,0.0,0.0,0.0,0.0,0.0,0.0,0.0,0.0,0.0,0.0,-3.8802,-3.879,-3.7937,-3.7335,-3.7176,-3.8543,-3.8605,-3.7307,-3.7772,-3.7468,-3.638,-3.6405,-3.6405,-3.6405,-3.6405,-3.6707,-3.7211,-3.7739,-3.8617,-3.9672,-3.9697,-3.9697,-3.9697,-3.9697,-3.9697,-3.9697,-3.9697,-3.9697,-3.9697,-3.9697,-3.9697,-3.9798,-4.0325,-4.0824,-4.1376,-4.1982,-4.259,-4.2986,-4.2986,-4.3363,-4.394,-4.4493,-4.507,-4.5623,-4.6175,-4.5899,-4.5522,-4.5522,-4.5522,-4.5497,-4.5497,-4.5924,-4.6301,-4.6301,-4.6326,-4.6326,-4.6301,-4.6326,-4.6326,-4.6301,-4.6301,-4.6301,-4.6301,-4.6326,-4.6552,-4.7079,-4.7093,-4.738,-4.7908,-4.846,-4.8786,-4.8786,-4.9314,-4.959,-4.959,-4.959,-4.959,-4.959,-4.959,-4.959,-4.959,-4.959,-4.959,-3.5519,0.0,0.0,0.0,0.0,0.0,0.0,0.0,0.0,0.0,0.0,0.0,0.0,0.0,0.0,0.0,0.0,0.0,0.0,0.0,0.0,0.0,0.0,0.0,0.0,0.0,0.0,0.0,-3.6711,-3.6525,-3.632,-3.6051,-3.6322,-3.7192,-3.6353,-3.6191,-3.6717,-3.6386,-3.6079,-3.578,-3.6182,-3.6405,-3.6405,-3.6405,-3.6707,-3.7186,-3.7337,-3.8065,-3.912,-3.9521,-3.9697,-3.9697,-3.9697,-3.9697,-3.9697,-3.9697,-3.9697,-3.9697,-3.9697,-3.9697,-3.9722,-3.9873,-4.0576,-4.13,-4.153,-4.2233,-4.2986,-4.2986,-4.3363,-4.4016,-4.4995,-4.5372,-4.5623,-4.6175,-4.62,-4.6075,-4.6075,-4.6075,-4.5974,-4.5573,-4.5924,-4.6301,-4.6301,-4.6652,-4.6778,-4.6376,-4.6652,-4.6753,-4.6351,-4.6301,-4.6301,-4.6301,-4.6677,-4.6979,-4.7129,-4.7481,-4.7933,-4.8485,-4.8686,-4.8962,-4.9339,-4.9515,-4.959,-4.959,-4.959,-4.959,-4.959,-4.959,-4.959,-4.959,-4.959,-4.959,-3.5519,-3.5519,-3.5519,0.0,0.0,0.0,0.0,-3.5789,0.0,0.0,0.0,0.0,0.0,0.0,0.0,0.0,0.0,0.0,0.0,0.0,0.0,0.0,0.0,0.0,0.0,0.0,0.0,0.0,-3.5359,-3.511,-3.4936,-3.4835,-3.5136,-3.5876,-3.4969,-3.4768,-3.5531,-3.5308,-3.5282,-3.5508,-3.5881,-3.6132,-3.6405,-3.6405,-3.6581,-3.6908,-3.7086,-3.7688,-3.8542,-3.912,-3.9496,-3.9697,-3.9697,-3.9697,-3.9697,-3.9697,-3.9697,-3.9697,-3.9697,-3.9697,-3.9747,-3.9973,-4.0626,-4.1326,-4.1605,-4.2283,-4.2986,-4.2986,-4.3363,-4.4066,-4.5196,-4.5497,-4.5623,-4.6175,-4.6301,-4.6301,-4.6301,-4.6301,-4.6225,-4.5899,-4.61,-4.6301,-4.6301,-4.6778,-4.6968,-4.6702,-4.6928,-4.7029,-4.6702,-4.6451,-4.6301,-4.6301,-4.6803,-4.723,-4.7431,-4.7958,-4.851,-4.9088,-4.9113,-4.9264,-4.959,-4.959,-4.959,-4.959,-4.959,-4.959,-4.959,-4.959,-4.959,-4.959,-4.959,-4.959,-3.5547,-3.5609,-3.5576,0.0,0.0,0.0,-3.5294,-3.5326,0.0,0.0,0.0,0.0,0.0,0.0,0.0,0.0,0.0,0.0,0.0,0.0,0.0,0.0,0.0,0.0,0.0,0.0,-3.5534,-3.5521,-3.4786,-3.4356,-3.4356,-3.4147,-3.4047,-3.4047,-3.4083,-3.4103,-3.4103,-3.4438,-3.4831,-3.5307,-3.5433,-3.5805,-3.6329,-3.638,-3.6405,-3.643,-3.6885,-3.7437,-3.804,-3.8567,-3.9145,-3.9697,-3.9697,-3.9697,-3.9697,-3.9697,-3.9697,-3.9697,-3.9697,-3.9697,-3.9798,-4.035,-4.0824,-4.1376,-4.2037,-4.259,-4.2986,-4.2986,-4.3338,-4.3966,-4.5095,-4.5397,-4.5547,-4.6175,-4.6301,-4.6301,-4.6301,-4.6301,-4.6301,-4.6301,-4.6301,-4.6301,-4.6301,-4.6778,-4.7043,-4.6993,-4.7043,-4.7043,-4.6993,-4.6602,-4.6301,-4.6301,-4.6803,-4.733,-4.7857,-4.8435,-4.9012,-4.9565,-4.959,-4.959,-4.959,-4.959,-4.959,-4.959,-4.959,-4.959,-4.959,-4.959,-4.959,-4.959,-4.959,-4.959,0.0,0.0,0.0,0.0,0.0,0.0,-3.4048,-3.4138,0.0,0.0,0.0,0.0,0.0,0.0,0.0,0.0,0.0,0.0,0.0,0.0,0.0,0.0,0.0,0.0,0.0,0.0,-3.4605,-3.4439,-3.4063,-3.3937,-3.4173,-3.3937,-3.3683,-3.3513,-3.3555,-3.3477,-3.333,-3.3815,-3.4123,-3.4223,-3.5082,-3.5558,-3.5683,-3.6157,-3.6405,-3.6405,-3.6531,-3.7086,-3.8015,-3.814,-3.8768,-3.9697,-3.9697,-3.9697,-3.9697,-3.9697,-3.9697,-3.9697,-3.9697,-3.9697,-3.9798,-4.035,-4.0824,-4.1376,-4.2037,-4.259,-4.2986,-4.2986,-4.3062,-4.3388,-4.4493,-4.4794,-4.5045,-4.6075,-4.6301,-4.6301,-4.6301,-4.6301,-4.6301,-4.6301,-4.6301,-4.6301,-4.6301,-4.6778,-4.6918,-4.6552,-4.6853,-4.6918,-4.6527,-4.6376,-4.6301,-4.6301,-4.6803,-4.733,-4.7857,-4.8435,-4.9012,-4.9565,-4.959,-4.959,-4.959,-4.959,-4.959,-4.959,-4.959,-4.959,-4.959,-4.959,-4.959,-4.959,-4.959,-4.959,0.0,0.0,0.0,-3.5834,0.0,0.0,0.0,-3.3718,0.0,0.0,0.0,0.0,0.0,0.0,0.0,0.0,0.0,0.0,0.0,0.0,0.0,0.0,0.0,0.0,0.0,0.0,-3.4314,-3.4131,-3.3852,-3.3768,-3.3894,-3.3683,-3.3513,-3.3386,-3.3326,-3.3197,-3.3111,-3.3345,-3.3621,-3.3897,-3.4751,-3.5232,-3.5508,-3.6107,-3.6405,-3.6405,-3.6405,-3.6883,-3.7613,-3.7889,-3.8517,-3.932,-3.9597,-3.9697,-3.9697,-3.9697,-3.9697,-3.9697,-3.9697,-3.9697,-3.9798,-4.035,-4.0701,-4.1078,-4.1961,-4.259,-4.2986,-4.2986,-4.2986,-4.3237,-4.4342,-4.4618,-4.492,-4.605,-4.6301,-4.6301,-4.6301,-4.6301,-4.6301,-4.6301,-4.6301,-4.6301,-4.6301,-4.6778,-4.6993,-4.6753,-4.6954,-4.6968,-4.6753,-4.6476,-4.6301,-4.6301,-4.7029,-4.7631,-4.7883,-4.8686,-4.9289,-4.9565,-4.959,-4.959,-4.959,-4.959,-4.959,-4.959,-4.959,-4.959,-4.959,-4.959,-4.959,-4.959,-4.959,-4.959,0.0,0.0,0.0,0.0,0.0,-3.4743,0.0,0.0,0.0,0.0,0.0,0.0,0.0,0.0,0.0,0.0,0.0,0.0,0.0,0.0,0.0,0.0,0.0,0.0,0.0,0.0,-3.4189,-3.4047,-3.3768,-3.3598,-3.3641,-3.3428,-3.3368,-3.3368,-3.3197,-3.3111,-3.3111,-3.3111,-3.3294,-3.3746,-3.4299,-3.4806,-3.5357,-3.5956,-3.6304,-3.6405,-3.6405,-3.6732,-3.7236,-3.7789,-3.8341,-3.8919,-3.9471,-3.9697,-3.9697,-3.9697,-3.9697,-3.9697,-3.9697,-3.9697,-3.9798,-4.035,-4.0651,-4.1028,-4.2062,-4.269,-4.2986,-4.2986,-4.2986,-4.3212,-4.4192,-4.4543,-4.4895,-4.5899,-4.6225,-4.6301,-4.6301,-4.6301,-4.6301,-4.6301,-4.6301,-4.6301,-4.6301,-4.6677,-4.6979,-4.6979,-4.6979,-4.6979,-4.6979,-4.6677,-4.6426,-4.6326,-4.728,-4.7908,-4.7908,-4.8837,-4.949,-4.959,-4.959,-4.959,-4.959,-4.959,-4.959,-4.959,-4.959,-4.959,-4.959,-4.959,-4.959,-4.959,-4.959,-4.959,0.0,0.0,0.0,0.0,-3.5388,0.0,0.0,0.0,0.0,0.0,0.0,0.0,0.0,0.0,0.0,0.0,0.0,0.0,0.0,0.0,0.0,0.0,0.0,0.0,0.0,0.0,0.0,-3.3768,-3.3411,-3.324,-3.3428,-3.324,-3.3111,-3.3111,-3.3111,-3.3111,-3.3111,-3.3111,-3.3119,-3.3212,-3.3721,-3.4274,-3.4781,-3.5332,-3.5906,-3.6405,-3.6405,-3.6732,-3.7236,-3.7789,-3.8341,-3.8919,-3.9471,-3.9697,-3.9697,-3.9697,-3.9697,-3.9697,-3.9697,-3.9697,-3.9798,-4.035,-4.1178,-4.2137,-4.2766,-4.2936,-4.2986,-4.2986,-4.2986,-4.3112,-4.374,-4.4242,-4.4794,-4.5422,-4.5949,-4.6301,-4.6301,-4.6301,-4.6301,-4.6301,-4.6301,-4.6301,-4.6301,-4.6351,-4.6401,-4.6401,-4.6401,-4.6401,-4.6401,-4.6778,-4.6853,-4.6351,-4.728,-4.7908,-4.7908,-4.8485,-4.9063,-4.9565,-4.959,-4.959,-4.959,-4.959,-4.959,-4.959,-4.959,-4.959,-4.959,-4.959,-4.959,-4.959,-4.959,-4.959,0.0,0.0,0.0,0.0,0.0,0.0,-3.304,0.0,-3.3331,0.0,0.0,0.0,0.0,0.0,0.0,0.0,0.0,0.0,0.0,0.0,0.0,0.0,0.0,0.0,0.0,0.0,0.0,0.0,0.0,-3.3154,-3.324,-3.3154,-3.3111,-3.3111,-3.3111,-3.3111,-3.3111,-3.3111,-3.3111,-3.3136,-3.3646,-3.4198,-3.4751,-3.5257,-3.5855,-3.6405,-3.6405,-3.6531,-3.6807,-3.7287,-3.7864,-3.8417,-3.8994,-3.9421,-3.9697,-3.9697,-3.9697,-3.9697,-3.9697,-3.9697,-3.9798,-4.035,-4.1053,-4.1781,-4.2333,-4.2766,-4.2986,-4.2986,-4.2986,-4.3112,-4.3664,-4.3966,-4.4367,-4.5271,-4.5673,-4.5924,-4.625,-4.6301,-4.6301,-4.6301,-4.6301,-4.6301,-4.6301,-4.6301,-4.6301,-4.6301,-4.6301,-4.6301,-4.6301,-4.6527,-4.6702,-4.6778,-4.7456,-4.8033,-4.8385,-4.8912,-4.9339,-4.959,-4.959,-4.959,-4.959,-4.959,-4.959,-4.959,-4.959,-4.959,-4.959,-4.959,-4.959,-4.959,-4.959,-4.9766,-3.5742,0.0,0.0,0.0,0.0,0.0,0.0,0.0,0.0,0.0,0.0,0.0,0.0,0.0,0.0,-3.3193,0.0,0.0,0.0,0.0,0.0,0.0,0.0,0.0,0.0,0.0,0.0,0.0,-3.3283,-3.3111,-3.3111,-3.3111,-3.3111,-3.3111,-3.3111,-3.3111,-3.3111,-3.3111,-3.3144,-3.3294,-3.3545,-3.4123,-3.4906,-3.5157,-3.5705,-3.6405,-3.6405,-3.6405,-3.6455,-3.7008,-3.7513,-3.8065,-3.8642,-3.922,-3.9697,-3.9697,-3.9697,-3.9697,-3.9697,-3.9798,-3.9998,-4.0551,-4.1103,-4.1656,-4.2208,-4.2715,-4.2986,-4.2986,-4.2986,-4.3062,-4.3463,-4.3689,-4.4016,-4.4819,-4.5146,-4.5397,-4.5974,-4.6075,-4.6125,-4.6276,-4.6301,-4.6301,-4.6301,-4.6301,-4.6301,-4.6301,-4.6301,-4.6301,-4.6301,-4.6451,-4.6702,-4.7043,-4.7732,-4.8309,-4.8736,-4.9264,-4.959,-4.959,-4.959,-4.959,-4.959,-4.959,-4.959,-4.959,-4.959,-4.959,-4.959,-4.959,-4.959,-4.959,-4.959,-4.9816,0.0,0.0,0.0,-3.4439,0.0,0.0,0.0,0.0,-3.4214,0.0,0.0,0.0,0.0,0.0,-3.2619,-3.2446,-3.2872,0.0,0.0,0.0,0.0,0.0,0.0,0.0,0.0,0.0,0.0,-3.3111,-3.3111,-3.3111,-3.3111,-3.3111,-3.3111,-3.3111,-3.3111,-3.3111,-3.3111,-3.3111,-3.3345,-3.3872,-3.3345,-3.3947,-3.5458,-3.4931,-3.5353,-3.6405,-3.6405,-3.6405,-3.6455,-3.7008,-3.7513,-3.8065,-3.8642,-3.922,-3.9697,-3.9697,-3.9697,-3.9697,-3.9697,-4.0049,-4.0576,-4.1075,-4.1681,-4.2288,-4.2785,-4.2961,-4.2986,-4.2986,-4.2986,-4.2986,-4.3011,-4.3388,-4.3815,-4.384,-4.4267,-4.4819,-4.5397,-4.5522,-4.5673,-4.62,-4.6301,-4.6301,-4.6301,-4.6301,-4.6301,-4.6301,-4.6301,-4.6301,-4.6301,-4.6778,-4.7043,-4.7068,-4.8109,-4.8761,-4.8761,-4.9264,-4.959,-4.959,-4.959,-4.959,-4.959,-4.959,-4.959,-4.959,-4.959,-4.959,-4.959,-4.959,-4.959,-4.959,-4.959,-4.9615,0.0,0.0,-3.4397,-3.4397,0.0,0.0,0.0,0.0,0.0,0.0,0.0,0.0,0.0,-3.3953,-3.374,-3.3535,-3.3364,-3.3019,0.0,0.0,0.0,0.0,0.0,0.0,0.0,0.0,0.0,-3.3326,-3.3197,-3.3111,0.0,-3.3111,-3.3111,-3.3111,-3.3111,-3.3111,-3.3111,-3.3445,-3.3721,-3.3897,-3.4073,-3.465,-3.5483,-3.5307,-3.5655,-3.6405,-3.6405,-3.6405,-3.643,-3.6606,-3.7186,-3.8015,-3.8216,-3.8868,-3.9697,-3.9697,-3.9697,-3.9697,-3.9697,-4.0049,-4.0601,-4.11,-4.1706,-4.2313,-4.2811,-4.2986,-4.2986,-4.2986,-4.2986,-4.2986,-4.2986,-4.3112,-4.3338,-4.3714,-4.4217,-4.4794,-4.5372,-4.5773,-4.6075,-4.6276,-4.6301,-4.6301,-4.6301,-4.6301,-4.6301,-4.6301,-4.6627,-4.6728,-4.6351,-4.6803,-4.7255,-4.7606,-4.7983,-4.851,-4.9264,-4.949,-4.959,-4.959,-4.959,-4.959,-4.959,-4.959,-4.959,-4.959,-4.959,-4.959,-4.959,-4.959,-4.959,-4.959,-4.959,-4.9791,-3.4397,-3.4397,0.0,-3.4397,-3.4397,0.0,-3.4397,0.0,0.0,0.0,0.0,0.0,0.0,0.0,-3.4314,-3.4131,-3.3669,-3.3229,0.0,-3.2643,0.0,0.0,0.0,0.0,0.0,0.0,-3.3283,-3.3283,-3.3154,-3.3111,0.0,0.0,-3.3111,-3.3111,-3.3111,-3.3212,-3.337,-3.3721,-3.4098,-3.4474,-3.465,-3.5102,-3.583,-3.5583,-3.5855,-3.6405,-3.6405,-3.6405,-3.6405,-3.6405,-3.701,-3.8015,-3.8015,-3.8693,-3.9697,-3.9697,-3.9697,-3.9697,-3.9697,-4.0049,-4.0601,-4.11,-4.1706,-4.2313,-4.2811,-4.2986,-4.3011,-4.3212,-4.3137,-4.3011,-4.3212,-4.3112,-4.3062,-4.3413,-4.379,-4.4242,-4.502,-4.5447,-4.5824,-4.6225,-4.6301,-4.6301,-4.6301,-4.6301,-4.6301,-4.6301,-4.6602,-4.6702,-4.6351,-4.6803,-4.7193,-4.7606,-4.7983,-4.8586,-4.9515,-4.959,-4.959,-4.959,-4.959,-4.959,-4.959,-4.959,-4.9791,-5.0193,-4.9791,-4.9791,-5.0193,-4.9791,-4.959,-4.959,-4.959,-4.9791]}]]